<?xml version="1.0" encoding="UTF-8" standalone="no" ?>
<gpx xmlns="http://www.topografix.com/GPX/1/1" xmlns:xsi="http://www.w3.org/2001/XMLSchema-instance" xsi:schemaLocation="http://www.topografix.com/GPX/1/1 http://www.topografix.com/GPX/1/1/gpx.xsd" version="1.1" creator="VisuGPX - https://www.visugpx.com">
  <metadata>
    <name>Moncrabeau 24-09 2022</name>
  </metadata>
  <trk>
    <name><![CDATA[T2022-09-24-12-52]]></name>
    <extensions>
      <line xmlns="http://www.topografix.com/GPX/gpx_style/0/2">
        <color>0000FF</color>
        <width>4</width>
      </line>
    </extensions>
    <trkseg>
      <trkpt lat="44.03543" lon="0.37201">
        <ele>97.8</ele>
        <time>2022-09-24T07:06:07Z</time>
      </trkpt>
      <trkpt lat="44.03539" lon="0.37196">
        <ele>97.2</ele>
        <time>2022-09-24T07:06:11Z</time>
      </trkpt>
      <trkpt lat="44.03543" lon="0.372">
        <ele>94.3</ele>
        <time>2022-09-24T07:06:31Z</time>
      </trkpt>
      <trkpt lat="44.03539" lon="0.37204">
        <ele>92.7</ele>
        <time>2022-09-24T07:06:44Z</time>
      </trkpt>
      <trkpt lat="44.03544" lon="0.37207">
        <ele>92.5</ele>
        <time>2022-09-24T07:07:42Z</time>
      </trkpt>
      <trkpt lat="44.03548" lon="0.37206">
        <ele>92.9</ele>
        <time>2022-09-24T07:09:04Z</time>
      </trkpt>
      <trkpt lat="44.03549" lon="0.372">
        <ele>100.3</ele>
        <time>2022-09-24T07:10:49Z</time>
      </trkpt>
      <trkpt lat="44.0355" lon="0.37194">
        <ele>96</ele>
        <time>2022-09-24T07:14:29Z</time>
      </trkpt>
      <trkpt lat="44.03546" lon="0.37198">
        <ele>91.3</ele>
        <time>2022-09-24T07:17:27Z</time>
      </trkpt>
      <trkpt lat="44.03541" lon="0.37202">
        <ele>94.2</ele>
        <time>2022-09-24T07:17:33Z</time>
      </trkpt>
      <trkpt lat="44.03536" lon="0.37199">
        <ele>95.1</ele>
        <time>2022-09-24T07:17:39Z</time>
      </trkpt>
      <trkpt lat="44.03532" lon="0.37195">
        <ele>95.4</ele>
        <time>2022-09-24T07:17:45Z</time>
      </trkpt>
      <trkpt lat="44.03528" lon="0.37191">
        <ele>95.4</ele>
        <time>2022-09-24T07:17:50Z</time>
      </trkpt>
      <trkpt lat="44.03524" lon="0.37186">
        <ele>95.4</ele>
        <time>2022-09-24T07:17:55Z</time>
      </trkpt>
      <trkpt lat="44.03521" lon="0.37182">
        <ele>95</ele>
        <time>2022-09-24T07:17:59Z</time>
      </trkpt>
      <trkpt lat="44.03517" lon="0.37177">
        <ele>94.3</ele>
        <time>2022-09-24T07:18:04Z</time>
      </trkpt>
      <trkpt lat="44.03512" lon="0.37178">
        <ele>94</ele>
        <time>2022-09-24T07:18:09Z</time>
      </trkpt>
      <trkpt lat="44.03507" lon="0.37181">
        <ele>93.7</ele>
        <time>2022-09-24T07:18:13Z</time>
      </trkpt>
      <trkpt lat="44.03503" lon="0.37186">
        <ele>93.7</ele>
        <time>2022-09-24T07:18:17Z</time>
      </trkpt>
      <trkpt lat="44.035" lon="0.37191">
        <ele>93.8</ele>
        <time>2022-09-24T07:18:23Z</time>
      </trkpt>
      <trkpt lat="44.03498" lon="0.37199">
        <ele>93.1</ele>
        <time>2022-09-24T07:18:28Z</time>
      </trkpt>
      <trkpt lat="44.03495" lon="0.37205">
        <ele>92.6</ele>
        <time>2022-09-24T07:18:33Z</time>
      </trkpt>
      <trkpt lat="44.03492" lon="0.3721">
        <ele>93</ele>
        <time>2022-09-24T07:18:39Z</time>
      </trkpt>
      <trkpt lat="44.03489" lon="0.37216">
        <ele>92.8</ele>
        <time>2022-09-24T07:18:44Z</time>
      </trkpt>
      <trkpt lat="44.03491" lon="0.37222">
        <ele>90.6</ele>
        <time>2022-09-24T07:18:50Z</time>
      </trkpt>
      <trkpt lat="44.03494" lon="0.37228">
        <ele>88.4</ele>
        <time>2022-09-24T07:18:55Z</time>
      </trkpt>
      <trkpt lat="44.03497" lon="0.37233">
        <ele>87.1</ele>
        <time>2022-09-24T07:19:00Z</time>
      </trkpt>
      <trkpt lat="44.03501" lon="0.37238">
        <ele>86.7</ele>
        <time>2022-09-24T07:19:05Z</time>
      </trkpt>
      <trkpt lat="44.03504" lon="0.37243">
        <ele>86.7</ele>
        <time>2022-09-24T07:19:09Z</time>
      </trkpt>
      <trkpt lat="44.03507" lon="0.37249">
        <ele>86.4</ele>
        <time>2022-09-24T07:19:14Z</time>
      </trkpt>
      <trkpt lat="44.03509" lon="0.37254">
        <ele>86.1</ele>
        <time>2022-09-24T07:19:18Z</time>
      </trkpt>
      <trkpt lat="44.03512" lon="0.37261">
        <ele>85.8</ele>
        <time>2022-09-24T07:19:23Z</time>
      </trkpt>
      <trkpt lat="44.03515" lon="0.37266">
        <ele>85.7</ele>
        <time>2022-09-24T07:19:27Z</time>
      </trkpt>
      <trkpt lat="44.03517" lon="0.37271">
        <ele>85.1</ele>
        <time>2022-09-24T07:19:31Z</time>
      </trkpt>
      <trkpt lat="44.03519" lon="0.37278">
        <ele>84.5</ele>
        <time>2022-09-24T07:19:36Z</time>
      </trkpt>
      <trkpt lat="44.03522" lon="0.37284">
        <ele>84</ele>
        <time>2022-09-24T07:19:41Z</time>
      </trkpt>
      <trkpt lat="44.03525" lon="0.37289">
        <ele>83.1</ele>
        <time>2022-09-24T07:19:46Z</time>
      </trkpt>
      <trkpt lat="44.03527" lon="0.37295">
        <ele>81.9</ele>
        <time>2022-09-24T07:19:51Z</time>
      </trkpt>
      <trkpt lat="44.03527" lon="0.37301">
        <ele>81.2</ele>
        <time>2022-09-24T07:19:55Z</time>
      </trkpt>
      <trkpt lat="44.03527" lon="0.37308">
        <ele>81.2</ele>
        <time>2022-09-24T07:19:59Z</time>
      </trkpt>
      <trkpt lat="44.03527" lon="0.37315">
        <ele>82.1</ele>
        <time>2022-09-24T07:20:03Z</time>
      </trkpt>
      <trkpt lat="44.03527" lon="0.37321">
        <ele>83.3</ele>
        <time>2022-09-24T07:20:07Z</time>
      </trkpt>
      <trkpt lat="44.03526" lon="0.37328">
        <ele>84.7</ele>
        <time>2022-09-24T07:20:12Z</time>
      </trkpt>
      <trkpt lat="44.03524" lon="0.37333">
        <ele>85.9</ele>
        <time>2022-09-24T07:20:17Z</time>
      </trkpt>
      <trkpt lat="44.03521" lon="0.37339">
        <ele>86.8</ele>
        <time>2022-09-24T07:20:21Z</time>
      </trkpt>
      <trkpt lat="44.03519" lon="0.37346">
        <ele>87.5</ele>
        <time>2022-09-24T07:20:26Z</time>
      </trkpt>
      <trkpt lat="44.03516" lon="0.37352">
        <ele>88.1</ele>
        <time>2022-09-24T07:20:30Z</time>
      </trkpt>
      <trkpt lat="44.03513" lon="0.37358">
        <ele>88.4</ele>
        <time>2022-09-24T07:20:34Z</time>
      </trkpt>
      <trkpt lat="44.0351" lon="0.37365">
        <ele>88.8</ele>
        <time>2022-09-24T07:20:39Z</time>
      </trkpt>
      <trkpt lat="44.03509" lon="0.37371">
        <ele>89.1</ele>
        <time>2022-09-24T07:20:43Z</time>
      </trkpt>
      <trkpt lat="44.03507" lon="0.37377">
        <ele>89.4</ele>
        <time>2022-09-24T07:20:47Z</time>
      </trkpt>
      <trkpt lat="44.03503" lon="0.37382">
        <ele>89.3</ele>
        <time>2022-09-24T07:20:51Z</time>
      </trkpt>
      <trkpt lat="44.03501" lon="0.37389">
        <ele>89.3</ele>
        <time>2022-09-24T07:20:56Z</time>
      </trkpt>
      <trkpt lat="44.035" lon="0.37395">
        <ele>89</ele>
        <time>2022-09-24T07:21:00Z</time>
      </trkpt>
      <trkpt lat="44.03501" lon="0.37402">
        <ele>89.4</ele>
        <time>2022-09-24T07:21:05Z</time>
      </trkpt>
      <trkpt lat="44.03502" lon="0.37409">
        <ele>90.1</ele>
        <time>2022-09-24T07:21:10Z</time>
      </trkpt>
      <trkpt lat="44.03503" lon="0.37416">
        <ele>90.9</ele>
        <time>2022-09-24T07:21:16Z</time>
      </trkpt>
      <trkpt lat="44.03506" lon="0.37422">
        <ele>91.2</ele>
        <time>2022-09-24T07:21:21Z</time>
      </trkpt>
      <trkpt lat="44.0351" lon="0.37428">
        <ele>90.9</ele>
        <time>2022-09-24T07:21:25Z</time>
      </trkpt>
      <trkpt lat="44.03514" lon="0.37431">
        <ele>90.2</ele>
        <time>2022-09-24T07:21:29Z</time>
      </trkpt>
      <trkpt lat="44.03518" lon="0.37434">
        <ele>89.2</ele>
        <time>2022-09-24T07:21:33Z</time>
      </trkpt>
      <trkpt lat="44.03523" lon="0.37438">
        <ele>87.9</ele>
        <time>2022-09-24T07:21:38Z</time>
      </trkpt>
      <trkpt lat="44.03526" lon="0.37442">
        <ele>87.4</ele>
        <time>2022-09-24T07:21:42Z</time>
      </trkpt>
      <trkpt lat="44.03531" lon="0.37446">
        <ele>86.7</ele>
        <time>2022-09-24T07:21:46Z</time>
      </trkpt>
      <trkpt lat="44.03535" lon="0.3745">
        <ele>86.1</ele>
        <time>2022-09-24T07:21:50Z</time>
      </trkpt>
      <trkpt lat="44.0354" lon="0.37452">
        <ele>85.8</ele>
        <time>2022-09-24T07:21:54Z</time>
      </trkpt>
      <trkpt lat="44.03545" lon="0.37455">
        <ele>85.8</ele>
        <time>2022-09-24T07:21:58Z</time>
      </trkpt>
      <trkpt lat="44.03549" lon="0.37459">
        <ele>85.6</ele>
        <time>2022-09-24T07:22:02Z</time>
      </trkpt>
      <trkpt lat="44.03553" lon="0.37462">
        <ele>85.6</ele>
        <time>2022-09-24T07:22:06Z</time>
      </trkpt>
      <trkpt lat="44.03557" lon="0.37465">
        <ele>85.2</ele>
        <time>2022-09-24T07:22:10Z</time>
      </trkpt>
      <trkpt lat="44.03561" lon="0.37469">
        <ele>83.7</ele>
        <time>2022-09-24T07:22:17Z</time>
      </trkpt>
      <trkpt lat="44.03565" lon="0.37474">
        <ele>81.7</ele>
        <time>2022-09-24T07:22:22Z</time>
      </trkpt>
      <trkpt lat="44.03569" lon="0.37478">
        <ele>79.9</ele>
        <time>2022-09-24T07:22:27Z</time>
      </trkpt>
      <trkpt lat="44.03573" lon="0.3748">
        <ele>78.8</ele>
        <time>2022-09-24T07:22:32Z</time>
      </trkpt>
      <trkpt lat="44.03578" lon="0.37483">
        <ele>78.2</ele>
        <time>2022-09-24T07:22:36Z</time>
      </trkpt>
      <trkpt lat="44.03582" lon="0.37486">
        <ele>77.9</ele>
        <time>2022-09-24T07:22:40Z</time>
      </trkpt>
      <trkpt lat="44.03586" lon="0.37491">
        <ele>77.9</ele>
        <time>2022-09-24T07:22:44Z</time>
      </trkpt>
      <trkpt lat="44.0359" lon="0.37496">
        <ele>78</ele>
        <time>2022-09-24T07:22:48Z</time>
      </trkpt>
      <trkpt lat="44.03595" lon="0.37499">
        <ele>78.1</ele>
        <time>2022-09-24T07:22:52Z</time>
      </trkpt>
      <trkpt lat="44.036" lon="0.37502">
        <ele>78.3</ele>
        <time>2022-09-24T07:22:56Z</time>
      </trkpt>
      <trkpt lat="44.03604" lon="0.37505">
        <ele>78.5</ele>
        <time>2022-09-24T07:22:59Z</time>
      </trkpt>
      <trkpt lat="44.03609" lon="0.37508">
        <ele>78.5</ele>
        <time>2022-09-24T07:23:03Z</time>
      </trkpt>
      <trkpt lat="44.03614" lon="0.37512">
        <ele>77.7</ele>
        <time>2022-09-24T07:23:09Z</time>
      </trkpt>
      <trkpt lat="44.03617" lon="0.37517">
        <ele>77.8</ele>
        <time>2022-09-24T07:23:12Z</time>
      </trkpt>
      <trkpt lat="44.0362" lon="0.37523">
        <ele>78.3</ele>
        <time>2022-09-24T07:23:16Z</time>
      </trkpt>
      <trkpt lat="44.03621" lon="0.3753">
        <ele>78.7</ele>
        <time>2022-09-24T07:23:21Z</time>
      </trkpt>
      <trkpt lat="44.03624" lon="0.37536">
        <ele>78.6</ele>
        <time>2022-09-24T07:23:26Z</time>
      </trkpt>
      <trkpt lat="44.03623" lon="0.37542">
        <ele>78.3</ele>
        <time>2022-09-24T07:23:35Z</time>
      </trkpt>
      <trkpt lat="44.03624" lon="0.37548">
        <ele>78.7</ele>
        <time>2022-09-24T07:23:43Z</time>
      </trkpt>
      <trkpt lat="44.03624" lon="0.37555">
        <ele>78.9</ele>
        <time>2022-09-24T07:23:48Z</time>
      </trkpt>
      <trkpt lat="44.03624" lon="0.37562">
        <ele>78.9</ele>
        <time>2022-09-24T07:23:59Z</time>
      </trkpt>
      <trkpt lat="44.03621" lon="0.37568">
        <ele>79.6</ele>
        <time>2022-09-24T07:24:06Z</time>
      </trkpt>
      <trkpt lat="44.03622" lon="0.37574">
        <ele>80.4</ele>
        <time>2022-09-24T07:24:12Z</time>
      </trkpt>
      <trkpt lat="44.03626" lon="0.37576">
        <ele>82.7</ele>
        <time>2022-09-24T07:24:22Z</time>
      </trkpt>
      <trkpt lat="44.03631" lon="0.37578">
        <ele>85</ele>
        <time>2022-09-24T07:24:31Z</time>
      </trkpt>
      <trkpt lat="44.03636" lon="0.37578">
        <ele>86.7</ele>
        <time>2022-09-24T07:24:42Z</time>
      </trkpt>
      <trkpt lat="44.03636" lon="0.37585">
        <ele>88.2</ele>
        <time>2022-09-24T07:24:52Z</time>
      </trkpt>
      <trkpt lat="44.03639" lon="0.37591">
        <ele>89.4</ele>
        <time>2022-09-24T07:24:58Z</time>
      </trkpt>
      <trkpt lat="44.03641" lon="0.37596">
        <ele>90.6</ele>
        <time>2022-09-24T07:25:04Z</time>
      </trkpt>
      <trkpt lat="44.03644" lon="0.37602">
        <ele>92.9</ele>
        <time>2022-09-24T07:25:17Z</time>
      </trkpt>
      <trkpt lat="44.03648" lon="0.37606">
        <ele>93.8</ele>
        <time>2022-09-24T07:25:30Z</time>
      </trkpt>
      <trkpt lat="44.03651" lon="0.37611">
        <ele>93.5</ele>
        <time>2022-09-24T07:25:36Z</time>
      </trkpt>
      <trkpt lat="44.03652" lon="0.37617">
        <ele>93.5</ele>
        <time>2022-09-24T07:25:41Z</time>
      </trkpt>
      <trkpt lat="44.03652" lon="0.37624">
        <ele>95.5</ele>
        <time>2022-09-24T07:25:50Z</time>
      </trkpt>
      <trkpt lat="44.03654" lon="0.3763">
        <ele>97.2</ele>
        <time>2022-09-24T07:25:55Z</time>
      </trkpt>
      <trkpt lat="44.03655" lon="0.37637">
        <ele>99.6</ele>
        <time>2022-09-24T07:26:03Z</time>
      </trkpt>
      <trkpt lat="44.03651" lon="0.37632">
        <ele>100</ele>
        <time>2022-09-24T07:30:50Z</time>
      </trkpt>
      <trkpt lat="44.03647" lon="0.37631">
        <ele>99.1</ele>
        <time>2022-09-24T07:31:02Z</time>
      </trkpt>
      <trkpt lat="44.03643" lon="0.37634">
        <ele>98.2</ele>
        <time>2022-09-24T07:31:11Z</time>
      </trkpt>
      <trkpt lat="44.0364" lon="0.37639">
        <ele>97.8</ele>
        <time>2022-09-24T07:31:15Z</time>
      </trkpt>
      <trkpt lat="44.03638" lon="0.37645">
        <ele>97.2</ele>
        <time>2022-09-24T07:31:20Z</time>
      </trkpt>
      <trkpt lat="44.03636" lon="0.37651">
        <ele>96.7</ele>
        <time>2022-09-24T07:31:26Z</time>
      </trkpt>
      <trkpt lat="44.03634" lon="0.37658">
        <ele>96</ele>
        <time>2022-09-24T07:31:31Z</time>
      </trkpt>
      <trkpt lat="44.03632" lon="0.37664">
        <ele>95.1</ele>
        <time>2022-09-24T07:31:36Z</time>
      </trkpt>
      <trkpt lat="44.0363" lon="0.37669">
        <ele>94.2</ele>
        <time>2022-09-24T07:31:41Z</time>
      </trkpt>
      <trkpt lat="44.03628" lon="0.37675">
        <ele>93.8</ele>
        <time>2022-09-24T07:31:46Z</time>
      </trkpt>
      <trkpt lat="44.03626" lon="0.37683">
        <ele>93.6</ele>
        <time>2022-09-24T07:31:51Z</time>
      </trkpt>
      <trkpt lat="44.03626" lon="0.3769">
        <ele>93.7</ele>
        <time>2022-09-24T07:31:55Z</time>
      </trkpt>
      <trkpt lat="44.03625" lon="0.37697">
        <ele>94.4</ele>
        <time>2022-09-24T07:32:00Z</time>
      </trkpt>
      <trkpt lat="44.03623" lon="0.37704">
        <ele>96.1</ele>
        <time>2022-09-24T07:32:05Z</time>
      </trkpt>
      <trkpt lat="44.0362" lon="0.37711">
        <ele>97.5</ele>
        <time>2022-09-24T07:32:10Z</time>
      </trkpt>
      <trkpt lat="44.03618" lon="0.37717">
        <ele>98</ele>
        <time>2022-09-24T07:32:14Z</time>
      </trkpt>
      <trkpt lat="44.03616" lon="0.37723">
        <ele>98.2</ele>
        <time>2022-09-24T07:32:18Z</time>
      </trkpt>
      <trkpt lat="44.03613" lon="0.37728">
        <ele>98.4</ele>
        <time>2022-09-24T07:32:22Z</time>
      </trkpt>
      <trkpt lat="44.03611" lon="0.37734">
        <ele>98.5</ele>
        <time>2022-09-24T07:32:26Z</time>
      </trkpt>
      <trkpt lat="44.03609" lon="0.37741">
        <ele>98.2</ele>
        <time>2022-09-24T07:32:31Z</time>
      </trkpt>
      <trkpt lat="44.03606" lon="0.37747">
        <ele>97.8</ele>
        <time>2022-09-24T07:32:35Z</time>
      </trkpt>
      <trkpt lat="44.03603" lon="0.37754">
        <ele>97.2</ele>
        <time>2022-09-24T07:32:39Z</time>
      </trkpt>
      <trkpt lat="44.036" lon="0.3776">
        <ele>96.8</ele>
        <time>2022-09-24T07:32:43Z</time>
      </trkpt>
      <trkpt lat="44.03598" lon="0.37766">
        <ele>96.6</ele>
        <time>2022-09-24T07:32:47Z</time>
      </trkpt>
      <trkpt lat="44.03595" lon="0.37773">
        <ele>96.6</ele>
        <time>2022-09-24T07:32:52Z</time>
      </trkpt>
      <trkpt lat="44.03593" lon="0.37779">
        <ele>96.8</ele>
        <time>2022-09-24T07:32:56Z</time>
      </trkpt>
      <trkpt lat="44.03591" lon="0.37786">
        <ele>97.3</ele>
        <time>2022-09-24T07:33:01Z</time>
      </trkpt>
      <trkpt lat="44.03588" lon="0.37792">
        <ele>97.2</ele>
        <time>2022-09-24T07:33:06Z</time>
      </trkpt>
      <trkpt lat="44.03585" lon="0.37797">
        <ele>96.7</ele>
        <time>2022-09-24T07:33:10Z</time>
      </trkpt>
      <trkpt lat="44.03582" lon="0.37803">
        <ele>96.2</ele>
        <time>2022-09-24T07:33:15Z</time>
      </trkpt>
      <trkpt lat="44.03579" lon="0.37809">
        <ele>95.6</ele>
        <time>2022-09-24T07:33:19Z</time>
      </trkpt>
      <trkpt lat="44.03577" lon="0.37816">
        <ele>95</ele>
        <time>2022-09-24T07:33:23Z</time>
      </trkpt>
      <trkpt lat="44.03575" lon="0.37822">
        <ele>94.6</ele>
        <time>2022-09-24T07:33:27Z</time>
      </trkpt>
      <trkpt lat="44.03572" lon="0.37827">
        <ele>94.4</ele>
        <time>2022-09-24T07:33:31Z</time>
      </trkpt>
      <trkpt lat="44.03569" lon="0.37833">
        <ele>94.5</ele>
        <time>2022-09-24T07:33:36Z</time>
      </trkpt>
      <trkpt lat="44.03566" lon="0.37839">
        <ele>94.8</ele>
        <time>2022-09-24T07:33:40Z</time>
      </trkpt>
      <trkpt lat="44.03564" lon="0.37845">
        <ele>94.9</ele>
        <time>2022-09-24T07:33:44Z</time>
      </trkpt>
      <trkpt lat="44.03561" lon="0.3785">
        <ele>95.1</ele>
        <time>2022-09-24T07:33:48Z</time>
      </trkpt>
      <trkpt lat="44.03559" lon="0.37856">
        <ele>95.3</ele>
        <time>2022-09-24T07:33:52Z</time>
      </trkpt>
      <trkpt lat="44.03556" lon="0.37861">
        <ele>95.4</ele>
        <time>2022-09-24T07:33:56Z</time>
      </trkpt>
      <trkpt lat="44.03554" lon="0.37868">
        <ele>95.1</ele>
        <time>2022-09-24T07:34:01Z</time>
      </trkpt>
      <trkpt lat="44.03552" lon="0.37873">
        <ele>94.8</ele>
        <time>2022-09-24T07:34:05Z</time>
      </trkpt>
      <trkpt lat="44.03549" lon="0.37879">
        <ele>94.8</ele>
        <time>2022-09-24T07:34:09Z</time>
      </trkpt>
      <trkpt lat="44.03545" lon="0.37886">
        <ele>95.5</ele>
        <time>2022-09-24T07:34:13Z</time>
      </trkpt>
      <trkpt lat="44.03542" lon="0.37891">
        <ele>95.9</ele>
        <time>2022-09-24T07:34:17Z</time>
      </trkpt>
      <trkpt lat="44.03538" lon="0.37897">
        <ele>96.2</ele>
        <time>2022-09-24T07:34:21Z</time>
      </trkpt>
      <trkpt lat="44.03535" lon="0.37902">
        <ele>96.6</ele>
        <time>2022-09-24T07:34:25Z</time>
      </trkpt>
      <trkpt lat="44.03532" lon="0.37907">
        <ele>97.2</ele>
        <time>2022-09-24T07:34:30Z</time>
      </trkpt>
      <trkpt lat="44.03529" lon="0.37913">
        <ele>97.3</ele>
        <time>2022-09-24T07:34:35Z</time>
      </trkpt>
      <trkpt lat="44.03529" lon="0.3792">
        <ele>97</ele>
        <time>2022-09-24T07:34:39Z</time>
      </trkpt>
      <trkpt lat="44.03531" lon="0.37926">
        <ele>97.3</ele>
        <time>2022-09-24T07:34:44Z</time>
      </trkpt>
      <trkpt lat="44.03535" lon="0.37929">
        <ele>97.7</ele>
        <time>2022-09-24T07:34:49Z</time>
      </trkpt>
      <trkpt lat="44.0354" lon="0.37932">
        <ele>98.2</ele>
        <time>2022-09-24T07:34:54Z</time>
      </trkpt>
      <trkpt lat="44.03545" lon="0.37936">
        <ele>98.8</ele>
        <time>2022-09-24T07:35:00Z</time>
      </trkpt>
      <trkpt lat="44.03549" lon="0.37941">
        <ele>100</ele>
        <time>2022-09-24T07:35:05Z</time>
      </trkpt>
      <trkpt lat="44.03553" lon="0.37945">
        <ele>101</ele>
        <time>2022-09-24T07:35:09Z</time>
      </trkpt>
      <trkpt lat="44.03557" lon="0.37948">
        <ele>101.6</ele>
        <time>2022-09-24T07:35:13Z</time>
      </trkpt>
      <trkpt lat="44.03561" lon="0.37952">
        <ele>101.8</ele>
        <time>2022-09-24T07:35:17Z</time>
      </trkpt>
      <trkpt lat="44.03565" lon="0.37955">
        <ele>101.6</ele>
        <time>2022-09-24T07:35:21Z</time>
      </trkpt>
      <trkpt lat="44.03569" lon="0.37959">
        <ele>101.3</ele>
        <time>2022-09-24T07:35:25Z</time>
      </trkpt>
      <trkpt lat="44.03573" lon="0.37963">
        <ele>100.5</ele>
        <time>2022-09-24T07:35:29Z</time>
      </trkpt>
      <trkpt lat="44.03577" lon="0.37967">
        <ele>100.3</ele>
        <time>2022-09-24T07:35:33Z</time>
      </trkpt>
      <trkpt lat="44.03581" lon="0.3797">
        <ele>100</ele>
        <time>2022-09-24T07:35:37Z</time>
      </trkpt>
      <trkpt lat="44.03585" lon="0.37975">
        <ele>100.1</ele>
        <time>2022-09-24T07:35:42Z</time>
      </trkpt>
      <trkpt lat="44.0359" lon="0.37979">
        <ele>100.1</ele>
        <time>2022-09-24T07:35:47Z</time>
      </trkpt>
      <trkpt lat="44.03594" lon="0.37983">
        <ele>99.3</ele>
        <time>2022-09-24T07:35:52Z</time>
      </trkpt>
      <trkpt lat="44.03598" lon="0.37986">
        <ele>98.1</ele>
        <time>2022-09-24T07:35:56Z</time>
      </trkpt>
      <trkpt lat="44.03602" lon="0.3799">
        <ele>97.3</ele>
        <time>2022-09-24T07:36:00Z</time>
      </trkpt>
      <trkpt lat="44.03606" lon="0.37996">
        <ele>96.9</ele>
        <time>2022-09-24T07:36:04Z</time>
      </trkpt>
      <trkpt lat="44.03609" lon="0.38001">
        <ele>97.4</ele>
        <time>2022-09-24T07:36:08Z</time>
      </trkpt>
      <trkpt lat="44.03613" lon="0.38005">
        <ele>98.1</ele>
        <time>2022-09-24T07:36:12Z</time>
      </trkpt>
      <trkpt lat="44.03618" lon="0.3801">
        <ele>98.6</ele>
        <time>2022-09-24T07:36:17Z</time>
      </trkpt>
      <trkpt lat="44.03622" lon="0.38013">
        <ele>98.6</ele>
        <time>2022-09-24T07:36:21Z</time>
      </trkpt>
      <trkpt lat="44.03626" lon="0.38017">
        <ele>98.5</ele>
        <time>2022-09-24T07:36:26Z</time>
      </trkpt>
      <trkpt lat="44.03631" lon="0.38021">
        <ele>98.5</ele>
        <time>2022-09-24T07:36:31Z</time>
      </trkpt>
      <trkpt lat="44.03635" lon="0.38025">
        <ele>98.2</ele>
        <time>2022-09-24T07:36:35Z</time>
      </trkpt>
      <trkpt lat="44.03639" lon="0.38029">
        <ele>97.9</ele>
        <time>2022-09-24T07:36:40Z</time>
      </trkpt>
      <trkpt lat="44.03644" lon="0.38034">
        <ele>97.8</ele>
        <time>2022-09-24T07:36:45Z</time>
      </trkpt>
      <trkpt lat="44.03647" lon="0.38039">
        <ele>97.6</ele>
        <time>2022-09-24T07:36:49Z</time>
      </trkpt>
      <trkpt lat="44.03651" lon="0.38044">
        <ele>97.3</ele>
        <time>2022-09-24T07:36:53Z</time>
      </trkpt>
      <trkpt lat="44.03656" lon="0.38047">
        <ele>96.9</ele>
        <time>2022-09-24T07:36:58Z</time>
      </trkpt>
      <trkpt lat="44.0366" lon="0.38051">
        <ele>96.4</ele>
        <time>2022-09-24T07:37:02Z</time>
      </trkpt>
      <trkpt lat="44.03664" lon="0.38055">
        <ele>95.9</ele>
        <time>2022-09-24T07:37:06Z</time>
      </trkpt>
      <trkpt lat="44.03668" lon="0.38059">
        <ele>95.8</ele>
        <time>2022-09-24T07:37:11Z</time>
      </trkpt>
      <trkpt lat="44.03671" lon="0.38064">
        <ele>96.4</ele>
        <time>2022-09-24T07:37:15Z</time>
      </trkpt>
      <trkpt lat="44.03675" lon="0.38069">
        <ele>96.7</ele>
        <time>2022-09-24T07:37:20Z</time>
      </trkpt>
      <trkpt lat="44.03678" lon="0.38074">
        <ele>96.6</ele>
        <time>2022-09-24T07:37:24Z</time>
      </trkpt>
      <trkpt lat="44.03682" lon="0.38077">
        <ele>96.3</ele>
        <time>2022-09-24T07:37:28Z</time>
      </trkpt>
      <trkpt lat="44.03686" lon="0.38082">
        <ele>96</ele>
        <time>2022-09-24T07:37:33Z</time>
      </trkpt>
      <trkpt lat="44.03689" lon="0.38087">
        <ele>96.2</ele>
        <time>2022-09-24T07:37:37Z</time>
      </trkpt>
      <trkpt lat="44.03693" lon="0.38093">
        <ele>96.7</ele>
        <time>2022-09-24T07:37:41Z</time>
      </trkpt>
      <trkpt lat="44.03696" lon="0.38098">
        <ele>97.3</ele>
        <time>2022-09-24T07:37:45Z</time>
      </trkpt>
      <trkpt lat="44.037" lon="0.38104">
        <ele>97.9</ele>
        <time>2022-09-24T07:37:49Z</time>
      </trkpt>
      <trkpt lat="44.03703" lon="0.38109">
        <ele>98.4</ele>
        <time>2022-09-24T07:37:53Z</time>
      </trkpt>
      <trkpt lat="44.03705" lon="0.38114">
        <ele>98.6</ele>
        <time>2022-09-24T07:37:58Z</time>
      </trkpt>
      <trkpt lat="44.03708" lon="0.3812">
        <ele>98.3</ele>
        <time>2022-09-24T07:38:02Z</time>
      </trkpt>
      <trkpt lat="44.03711" lon="0.38125">
        <ele>97.7</ele>
        <time>2022-09-24T07:38:06Z</time>
      </trkpt>
      <trkpt lat="44.03714" lon="0.38131">
        <ele>97.6</ele>
        <time>2022-09-24T07:38:10Z</time>
      </trkpt>
      <trkpt lat="44.03716" lon="0.38137">
        <ele>97.5</ele>
        <time>2022-09-24T07:38:14Z</time>
      </trkpt>
      <trkpt lat="44.03718" lon="0.38144">
        <ele>97.4</ele>
        <time>2022-09-24T07:38:18Z</time>
      </trkpt>
      <trkpt lat="44.0372" lon="0.3815">
        <ele>96.8</ele>
        <time>2022-09-24T07:38:22Z</time>
      </trkpt>
      <trkpt lat="44.03721" lon="0.38156">
        <ele>96</ele>
        <time>2022-09-24T07:38:26Z</time>
      </trkpt>
      <trkpt lat="44.03723" lon="0.38164">
        <ele>95.3</ele>
        <time>2022-09-24T07:38:31Z</time>
      </trkpt>
      <trkpt lat="44.03724" lon="0.38171">
        <ele>95.4</ele>
        <time>2022-09-24T07:38:35Z</time>
      </trkpt>
      <trkpt lat="44.03726" lon="0.38177">
        <ele>95.5</ele>
        <time>2022-09-24T07:38:39Z</time>
      </trkpt>
      <trkpt lat="44.03728" lon="0.38183">
        <ele>96</ele>
        <time>2022-09-24T07:38:44Z</time>
      </trkpt>
      <trkpt lat="44.0373" lon="0.3819">
        <ele>96</ele>
        <time>2022-09-24T07:38:48Z</time>
      </trkpt>
      <trkpt lat="44.03731" lon="0.38196">
        <ele>96.1</ele>
        <time>2022-09-24T07:38:52Z</time>
      </trkpt>
      <trkpt lat="44.03733" lon="0.38202">
        <ele>96.2</ele>
        <time>2022-09-24T07:38:56Z</time>
      </trkpt>
      <trkpt lat="44.03735" lon="0.3821">
        <ele>96</ele>
        <time>2022-09-24T07:39:01Z</time>
      </trkpt>
      <trkpt lat="44.03737" lon="0.38216">
        <ele>96.3</ele>
        <time>2022-09-24T07:39:05Z</time>
      </trkpt>
      <trkpt lat="44.03739" lon="0.38223">
        <ele>96.7</ele>
        <time>2022-09-24T07:39:09Z</time>
      </trkpt>
      <trkpt lat="44.03742" lon="0.38228">
        <ele>97.4</ele>
        <time>2022-09-24T07:39:13Z</time>
      </trkpt>
      <trkpt lat="44.03746" lon="0.38234">
        <ele>97.6</ele>
        <time>2022-09-24T07:39:17Z</time>
      </trkpt>
      <trkpt lat="44.03748" lon="0.3824">
        <ele>98.1</ele>
        <time>2022-09-24T07:39:21Z</time>
      </trkpt>
      <trkpt lat="44.03751" lon="0.38246">
        <ele>98</ele>
        <time>2022-09-24T07:39:26Z</time>
      </trkpt>
      <trkpt lat="44.03752" lon="0.38253">
        <ele>97.8</ele>
        <time>2022-09-24T07:39:30Z</time>
      </trkpt>
      <trkpt lat="44.03754" lon="0.38259">
        <ele>98.1</ele>
        <time>2022-09-24T07:39:34Z</time>
      </trkpt>
      <trkpt lat="44.03757" lon="0.38265">
        <ele>98.6</ele>
        <time>2022-09-24T07:39:38Z</time>
      </trkpt>
      <trkpt lat="44.0376" lon="0.38271">
        <ele>99.1</ele>
        <time>2022-09-24T07:39:41Z</time>
      </trkpt>
      <trkpt lat="44.03763" lon="0.38277">
        <ele>99.6</ele>
        <time>2022-09-24T07:39:45Z</time>
      </trkpt>
      <trkpt lat="44.03766" lon="0.38283">
        <ele>99.9</ele>
        <time>2022-09-24T07:39:51Z</time>
      </trkpt>
      <trkpt lat="44.03767" lon="0.38289">
        <ele>99.8</ele>
        <time>2022-09-24T07:39:57Z</time>
      </trkpt>
      <trkpt lat="44.03769" lon="0.38297">
        <ele>99.6</ele>
        <time>2022-09-24T07:40:02Z</time>
      </trkpt>
      <trkpt lat="44.03772" lon="0.38303">
        <ele>99.8</ele>
        <time>2022-09-24T07:40:06Z</time>
      </trkpt>
      <trkpt lat="44.03775" lon="0.38308">
        <ele>99.1</ele>
        <time>2022-09-24T07:40:11Z</time>
      </trkpt>
      <trkpt lat="44.03778" lon="0.38314">
        <ele>98.1</ele>
        <time>2022-09-24T07:40:18Z</time>
      </trkpt>
      <trkpt lat="44.03781" lon="0.38321">
        <ele>97.4</ele>
        <time>2022-09-24T07:40:23Z</time>
      </trkpt>
      <trkpt lat="44.03783" lon="0.38328">
        <ele>97</ele>
        <time>2022-09-24T07:40:27Z</time>
      </trkpt>
      <trkpt lat="44.03785" lon="0.38334">
        <ele>96.8</ele>
        <time>2022-09-24T07:40:30Z</time>
      </trkpt>
      <trkpt lat="44.03789" lon="0.38339">
        <ele>96.4</ele>
        <time>2022-09-24T07:40:33Z</time>
      </trkpt>
      <trkpt lat="44.03792" lon="0.38345">
        <ele>95.5</ele>
        <time>2022-09-24T07:40:37Z</time>
      </trkpt>
      <trkpt lat="44.03794" lon="0.38351">
        <ele>94.3</ele>
        <time>2022-09-24T07:40:42Z</time>
      </trkpt>
      <trkpt lat="44.03797" lon="0.38357">
        <ele>93.1</ele>
        <time>2022-09-24T07:40:47Z</time>
      </trkpt>
      <trkpt lat="44.03798" lon="0.38363">
        <ele>91.9</ele>
        <time>2022-09-24T07:40:53Z</time>
      </trkpt>
      <trkpt lat="44.038" lon="0.3837">
        <ele>90.4</ele>
        <time>2022-09-24T07:40:59Z</time>
      </trkpt>
      <trkpt lat="44.03802" lon="0.38376">
        <ele>89.4</ele>
        <time>2022-09-24T07:41:05Z</time>
      </trkpt>
      <trkpt lat="44.03805" lon="0.38382">
        <ele>88.3</ele>
        <time>2022-09-24T07:41:10Z</time>
      </trkpt>
      <trkpt lat="44.03808" lon="0.38387">
        <ele>87.2</ele>
        <time>2022-09-24T07:41:14Z</time>
      </trkpt>
      <trkpt lat="44.0381" lon="0.38393">
        <ele>85.9</ele>
        <time>2022-09-24T07:41:18Z</time>
      </trkpt>
      <trkpt lat="44.03812" lon="0.384">
        <ele>84.8</ele>
        <time>2022-09-24T07:41:22Z</time>
      </trkpt>
      <trkpt lat="44.03815" lon="0.38406">
        <ele>83.8</ele>
        <time>2022-09-24T07:41:26Z</time>
      </trkpt>
      <trkpt lat="44.03818" lon="0.38412">
        <ele>82.8</ele>
        <time>2022-09-24T07:41:29Z</time>
      </trkpt>
      <trkpt lat="44.03821" lon="0.38417">
        <ele>81.7</ele>
        <time>2022-09-24T07:41:32Z</time>
      </trkpt>
      <trkpt lat="44.03823" lon="0.38423">
        <ele>80.6</ele>
        <time>2022-09-24T07:41:35Z</time>
      </trkpt>
      <trkpt lat="44.03824" lon="0.38429">
        <ele>79.7</ele>
        <time>2022-09-24T07:41:38Z</time>
      </trkpt>
      <trkpt lat="44.03825" lon="0.38435">
        <ele>79.1</ele>
        <time>2022-09-24T07:41:41Z</time>
      </trkpt>
      <trkpt lat="44.03828" lon="0.38441">
        <ele>78.8</ele>
        <time>2022-09-24T07:41:45Z</time>
      </trkpt>
      <trkpt lat="44.0383" lon="0.38447">
        <ele>77.7</ele>
        <time>2022-09-24T07:41:50Z</time>
      </trkpt>
      <trkpt lat="44.03832" lon="0.38454">
        <ele>75.9</ele>
        <time>2022-09-24T07:41:55Z</time>
      </trkpt>
      <trkpt lat="44.03834" lon="0.38461">
        <ele>74.7</ele>
        <time>2022-09-24T07:41:59Z</time>
      </trkpt>
      <trkpt lat="44.03838" lon="0.38466">
        <ele>73.7</ele>
        <time>2022-09-24T07:42:03Z</time>
      </trkpt>
      <trkpt lat="44.0384" lon="0.38471">
        <ele>72.6</ele>
        <time>2022-09-24T07:42:07Z</time>
      </trkpt>
      <trkpt lat="44.03842" lon="0.38477">
        <ele>71.6</ele>
        <time>2022-09-24T07:42:11Z</time>
      </trkpt>
      <trkpt lat="44.03845" lon="0.38484">
        <ele>71.2</ele>
        <time>2022-09-24T07:42:15Z</time>
      </trkpt>
      <trkpt lat="44.03848" lon="0.3849">
        <ele>71.3</ele>
        <time>2022-09-24T07:42:19Z</time>
      </trkpt>
      <trkpt lat="44.03851" lon="0.38496">
        <ele>72</ele>
        <time>2022-09-24T07:42:23Z</time>
      </trkpt>
      <trkpt lat="44.03855" lon="0.38501">
        <ele>73.4</ele>
        <time>2022-09-24T07:42:27Z</time>
      </trkpt>
      <trkpt lat="44.03858" lon="0.38506">
        <ele>74.7</ele>
        <time>2022-09-24T07:42:31Z</time>
      </trkpt>
      <trkpt lat="44.03862" lon="0.38511">
        <ele>75.6</ele>
        <time>2022-09-24T07:42:35Z</time>
      </trkpt>
      <trkpt lat="44.03865" lon="0.38517">
        <ele>76</ele>
        <time>2022-09-24T07:42:40Z</time>
      </trkpt>
      <trkpt lat="44.03867" lon="0.38523">
        <ele>76.1</ele>
        <time>2022-09-24T07:42:44Z</time>
      </trkpt>
      <trkpt lat="44.03871" lon="0.38529">
        <ele>76.2</ele>
        <time>2022-09-24T07:42:48Z</time>
      </trkpt>
      <trkpt lat="44.03874" lon="0.38534">
        <ele>76.4</ele>
        <time>2022-09-24T07:42:51Z</time>
      </trkpt>
      <trkpt lat="44.03877" lon="0.3854">
        <ele>76.3</ele>
        <time>2022-09-24T07:42:55Z</time>
      </trkpt>
      <trkpt lat="44.0388" lon="0.38545">
        <ele>76.1</ele>
        <time>2022-09-24T07:42:59Z</time>
      </trkpt>
      <trkpt lat="44.03883" lon="0.38551">
        <ele>75.9</ele>
        <time>2022-09-24T07:43:03Z</time>
      </trkpt>
      <trkpt lat="44.03886" lon="0.38558">
        <ele>75.3</ele>
        <time>2022-09-24T07:43:07Z</time>
      </trkpt>
      <trkpt lat="44.03888" lon="0.38564">
        <ele>74.1</ele>
        <time>2022-09-24T07:43:12Z</time>
      </trkpt>
      <trkpt lat="44.0389" lon="0.3857">
        <ele>72.9</ele>
        <time>2022-09-24T07:43:17Z</time>
      </trkpt>
      <trkpt lat="44.03892" lon="0.38576">
        <ele>72.2</ele>
        <time>2022-09-24T07:43:21Z</time>
      </trkpt>
      <trkpt lat="44.03896" lon="0.38582">
        <ele>71.6</ele>
        <time>2022-09-24T07:43:25Z</time>
      </trkpt>
      <trkpt lat="44.03899" lon="0.38588">
        <ele>70.8</ele>
        <time>2022-09-24T07:43:29Z</time>
      </trkpt>
      <trkpt lat="44.03901" lon="0.38594">
        <ele>69.9</ele>
        <time>2022-09-24T07:43:33Z</time>
      </trkpt>
      <trkpt lat="44.03903" lon="0.386">
        <ele>69.3</ele>
        <time>2022-09-24T07:43:37Z</time>
      </trkpt>
      <trkpt lat="44.03904" lon="0.38606">
        <ele>68.8</ele>
        <time>2022-09-24T07:43:41Z</time>
      </trkpt>
      <trkpt lat="44.03906" lon="0.38613">
        <ele>68.4</ele>
        <time>2022-09-24T07:43:45Z</time>
      </trkpt>
      <trkpt lat="44.03908" lon="0.38619">
        <ele>67.6</ele>
        <time>2022-09-24T07:43:49Z</time>
      </trkpt>
      <trkpt lat="44.0391" lon="0.38625">
        <ele>65.8</ele>
        <time>2022-09-24T07:43:54Z</time>
      </trkpt>
      <trkpt lat="44.03912" lon="0.38632">
        <ele>64.3</ele>
        <time>2022-09-24T07:43:59Z</time>
      </trkpt>
      <trkpt lat="44.03914" lon="0.38638">
        <ele>63.3</ele>
        <time>2022-09-24T07:44:03Z</time>
      </trkpt>
      <trkpt lat="44.03917" lon="0.38643">
        <ele>62.1</ele>
        <time>2022-09-24T07:44:07Z</time>
      </trkpt>
      <trkpt lat="44.0392" lon="0.38649">
        <ele>61.4</ele>
        <time>2022-09-24T07:44:11Z</time>
      </trkpt>
      <trkpt lat="44.03923" lon="0.38655">
        <ele>61.2</ele>
        <time>2022-09-24T07:44:14Z</time>
      </trkpt>
      <trkpt lat="44.03926" lon="0.38662">
        <ele>61.2</ele>
        <time>2022-09-24T07:44:18Z</time>
      </trkpt>
      <trkpt lat="44.0393" lon="0.38667">
        <ele>61.5</ele>
        <time>2022-09-24T07:44:22Z</time>
      </trkpt>
      <trkpt lat="44.03934" lon="0.38671">
        <ele>61.7</ele>
        <time>2022-09-24T07:44:27Z</time>
      </trkpt>
      <trkpt lat="44.03938" lon="0.38674">
        <ele>63.9</ele>
        <time>2022-09-24T07:46:30Z</time>
      </trkpt>
      <trkpt lat="44.03937" lon="0.3868">
        <ele>65.5</ele>
        <time>2022-09-24T07:46:39Z</time>
      </trkpt>
      <trkpt lat="44.03932" lon="0.38678">
        <ele>64.5</ele>
        <time>2022-09-24T07:47:38Z</time>
      </trkpt>
      <trkpt lat="44.03937" lon="0.38678">
        <ele>67.3</ele>
        <time>2022-09-24T07:48:44Z</time>
      </trkpt>
      <trkpt lat="44.03933" lon="0.38676">
        <ele>66.3</ele>
        <time>2022-09-24T07:49:09Z</time>
      </trkpt>
      <trkpt lat="44.03937" lon="0.38679">
        <ele>64.9</ele>
        <time>2022-09-24T07:49:21Z</time>
      </trkpt>
      <trkpt lat="44.0394" lon="0.38685">
        <ele>63.7</ele>
        <time>2022-09-24T07:49:32Z</time>
      </trkpt>
      <trkpt lat="44.03943" lon="0.3868">
        <ele>62.5</ele>
        <time>2022-09-24T07:49:39Z</time>
      </trkpt>
      <trkpt lat="44.03939" lon="0.38682">
        <ele>62.2</ele>
        <time>2022-09-24T07:49:46Z</time>
      </trkpt>
      <trkpt lat="44.0394" lon="0.38688">
        <ele>62</ele>
        <time>2022-09-24T07:49:55Z</time>
      </trkpt>
      <trkpt lat="44.03942" lon="0.38694">
        <ele>62.3</ele>
        <time>2022-09-24T07:50:01Z</time>
      </trkpt>
      <trkpt lat="44.03946" lon="0.38699">
        <ele>62.9</ele>
        <time>2022-09-24T07:50:08Z</time>
      </trkpt>
      <trkpt lat="44.03948" lon="0.38705">
        <ele>63.9</ele>
        <time>2022-09-24T07:50:15Z</time>
      </trkpt>
      <trkpt lat="44.03953" lon="0.38708">
        <ele>64.7</ele>
        <time>2022-09-24T07:50:19Z</time>
      </trkpt>
      <trkpt lat="44.03958" lon="0.38711">
        <ele>65.4</ele>
        <time>2022-09-24T07:50:22Z</time>
      </trkpt>
      <trkpt lat="44.03962" lon="0.38715">
        <ele>66.3</ele>
        <time>2022-09-24T07:50:26Z</time>
      </trkpt>
      <trkpt lat="44.03965" lon="0.3872">
        <ele>67.1</ele>
        <time>2022-09-24T07:50:30Z</time>
      </trkpt>
      <trkpt lat="44.0397" lon="0.38725">
        <ele>67.6</ele>
        <time>2022-09-24T07:50:35Z</time>
      </trkpt>
      <trkpt lat="44.03974" lon="0.38729">
        <ele>68.1</ele>
        <time>2022-09-24T07:50:42Z</time>
      </trkpt>
      <trkpt lat="44.03978" lon="0.3873">
        <ele>70</ele>
        <time>2022-09-24T07:50:59Z</time>
      </trkpt>
      <trkpt lat="44.03984" lon="0.38729">
        <ele>69.6</ele>
        <time>2022-09-24T07:52:05Z</time>
      </trkpt>
      <trkpt lat="44.03979" lon="0.38731">
        <ele>66.8</ele>
        <time>2022-09-24T07:52:22Z</time>
      </trkpt>
      <trkpt lat="44.03972" lon="0.38727">
        <ele>68.6</ele>
        <time>2022-09-24T07:53:30Z</time>
      </trkpt>
      <trkpt lat="44.03968" lon="0.38727">
        <ele>70.5</ele>
        <time>2022-09-24T07:53:35Z</time>
      </trkpt>
      <trkpt lat="44.03973" lon="0.38727">
        <ele>69.3</ele>
        <time>2022-09-24T07:54:15Z</time>
      </trkpt>
      <trkpt lat="44.03977" lon="0.38732">
        <ele>67.2</ele>
        <time>2022-09-24T07:55:02Z</time>
      </trkpt>
      <trkpt lat="44.0398" lon="0.38738">
        <ele>66.6</ele>
        <time>2022-09-24T07:55:08Z</time>
      </trkpt>
      <trkpt lat="44.03984" lon="0.38741">
        <ele>66.8</ele>
        <time>2022-09-24T07:55:15Z</time>
      </trkpt>
      <trkpt lat="44.03989" lon="0.38743">
        <ele>66.7</ele>
        <time>2022-09-24T07:55:21Z</time>
      </trkpt>
      <trkpt lat="44.03994" lon="0.38746">
        <ele>66.4</ele>
        <time>2022-09-24T07:55:26Z</time>
      </trkpt>
      <trkpt lat="44.03999" lon="0.38748">
        <ele>66.4</ele>
        <time>2022-09-24T07:55:31Z</time>
      </trkpt>
      <trkpt lat="44.04004" lon="0.3875">
        <ele>66.4</ele>
        <time>2022-09-24T07:55:40Z</time>
      </trkpt>
      <trkpt lat="44.04008" lon="0.38753">
        <ele>67</ele>
        <time>2022-09-24T07:55:44Z</time>
      </trkpt>
      <trkpt lat="44.04013" lon="0.38756">
        <ele>67.8</ele>
        <time>2022-09-24T07:55:48Z</time>
      </trkpt>
      <trkpt lat="44.04017" lon="0.3876">
        <ele>68.7</ele>
        <time>2022-09-24T07:55:51Z</time>
      </trkpt>
      <trkpt lat="44.04021" lon="0.38764">
        <ele>71.3</ele>
        <time>2022-09-24T07:56:00Z</time>
      </trkpt>
      <trkpt lat="44.04025" lon="0.38769">
        <ele>71.6</ele>
        <time>2022-09-24T07:56:05Z</time>
      </trkpt>
      <trkpt lat="44.04028" lon="0.38774">
        <ele>70.6</ele>
        <time>2022-09-24T07:56:13Z</time>
      </trkpt>
      <trkpt lat="44.04032" lon="0.38779">
        <ele>70.2</ele>
        <time>2022-09-24T07:56:20Z</time>
      </trkpt>
      <trkpt lat="44.04036" lon="0.38783">
        <ele>70.4</ele>
        <time>2022-09-24T07:56:24Z</time>
      </trkpt>
      <trkpt lat="44.04041" lon="0.38787">
        <ele>71</ele>
        <time>2022-09-24T07:56:29Z</time>
      </trkpt>
      <trkpt lat="44.04045" lon="0.3879">
        <ele>71</ele>
        <time>2022-09-24T07:56:34Z</time>
      </trkpt>
      <trkpt lat="44.04049" lon="0.38794">
        <ele>69.7</ele>
        <time>2022-09-24T07:56:40Z</time>
      </trkpt>
      <trkpt lat="44.04054" lon="0.38796">
        <ele>69</ele>
        <time>2022-09-24T07:56:45Z</time>
      </trkpt>
      <trkpt lat="44.04059" lon="0.38798">
        <ele>68.5</ele>
        <time>2022-09-24T07:56:51Z</time>
      </trkpt>
      <trkpt lat="44.04064" lon="0.38802">
        <ele>68.3</ele>
        <time>2022-09-24T07:56:56Z</time>
      </trkpt>
      <trkpt lat="44.04068" lon="0.38804">
        <ele>68.4</ele>
        <time>2022-09-24T07:57:00Z</time>
      </trkpt>
      <trkpt lat="44.04072" lon="0.38807">
        <ele>68.5</ele>
        <time>2022-09-24T07:57:04Z</time>
      </trkpt>
      <trkpt lat="44.04077" lon="0.3881">
        <ele>68.2</ele>
        <time>2022-09-24T07:57:09Z</time>
      </trkpt>
      <trkpt lat="44.04081" lon="0.38814">
        <ele>68</ele>
        <time>2022-09-24T07:57:13Z</time>
      </trkpt>
      <trkpt lat="44.04086" lon="0.38817">
        <ele>68</ele>
        <time>2022-09-24T07:57:17Z</time>
      </trkpt>
      <trkpt lat="44.0409" lon="0.38819">
        <ele>68</ele>
        <time>2022-09-24T07:57:21Z</time>
      </trkpt>
      <trkpt lat="44.04093" lon="0.38824">
        <ele>67.6</ele>
        <time>2022-09-24T07:57:27Z</time>
      </trkpt>
      <trkpt lat="44.04095" lon="0.3883">
        <ele>67.9</ele>
        <time>2022-09-24T07:57:36Z</time>
      </trkpt>
      <trkpt lat="44.04095" lon="0.38837">
        <ele>69.5</ele>
        <time>2022-09-24T07:57:41Z</time>
      </trkpt>
      <trkpt lat="44.04092" lon="0.38843">
        <ele>70.9</ele>
        <time>2022-09-24T07:57:47Z</time>
      </trkpt>
      <trkpt lat="44.04091" lon="0.38849">
        <ele>72.9</ele>
        <time>2022-09-24T07:57:52Z</time>
      </trkpt>
      <trkpt lat="44.0409" lon="0.38857">
        <ele>74.9</ele>
        <time>2022-09-24T07:57:57Z</time>
      </trkpt>
      <trkpt lat="44.0409" lon="0.38864">
        <ele>76.9</ele>
        <time>2022-09-24T07:58:02Z</time>
      </trkpt>
      <trkpt lat="44.0409" lon="0.38872">
        <ele>78.5</ele>
        <time>2022-09-24T07:58:07Z</time>
      </trkpt>
      <trkpt lat="44.04089" lon="0.38878">
        <ele>80.2</ele>
        <time>2022-09-24T07:58:13Z</time>
      </trkpt>
      <trkpt lat="44.04088" lon="0.38886">
        <ele>80.9</ele>
        <time>2022-09-24T07:58:19Z</time>
      </trkpt>
      <trkpt lat="44.04087" lon="0.38893">
        <ele>80.9</ele>
        <time>2022-09-24T07:58:24Z</time>
      </trkpt>
      <trkpt lat="44.04086" lon="0.389">
        <ele>81.1</ele>
        <time>2022-09-24T07:58:29Z</time>
      </trkpt>
      <trkpt lat="44.04084" lon="0.38906">
        <ele>81.3</ele>
        <time>2022-09-24T07:58:33Z</time>
      </trkpt>
      <trkpt lat="44.04082" lon="0.38912">
        <ele>81.6</ele>
        <time>2022-09-24T07:58:38Z</time>
      </trkpt>
      <trkpt lat="44.04081" lon="0.38919">
        <ele>81.6</ele>
        <time>2022-09-24T07:58:43Z</time>
      </trkpt>
      <trkpt lat="44.04079" lon="0.38927">
        <ele>81.8</ele>
        <time>2022-09-24T07:58:47Z</time>
      </trkpt>
      <trkpt lat="44.04077" lon="0.38934">
        <ele>83.1</ele>
        <time>2022-09-24T07:58:51Z</time>
      </trkpt>
      <trkpt lat="44.04076" lon="0.38941">
        <ele>84.6</ele>
        <time>2022-09-24T07:58:56Z</time>
      </trkpt>
      <trkpt lat="44.04075" lon="0.38947">
        <ele>86.3</ele>
        <time>2022-09-24T07:59:02Z</time>
      </trkpt>
      <trkpt lat="44.04072" lon="0.38952">
        <ele>87.1</ele>
        <time>2022-09-24T07:59:06Z</time>
      </trkpt>
      <trkpt lat="44.04068" lon="0.38957">
        <ele>87.6</ele>
        <time>2022-09-24T07:59:10Z</time>
      </trkpt>
      <trkpt lat="44.04065" lon="0.38962">
        <ele>87.6</ele>
        <time>2022-09-24T07:59:16Z</time>
      </trkpt>
      <trkpt lat="44.04063" lon="0.38968">
        <ele>88</ele>
        <time>2022-09-24T07:59:20Z</time>
      </trkpt>
      <trkpt lat="44.04061" lon="0.38974">
        <ele>88.7</ele>
        <time>2022-09-24T07:59:24Z</time>
      </trkpt>
      <trkpt lat="44.04058" lon="0.3898">
        <ele>89.4</ele>
        <time>2022-09-24T07:59:28Z</time>
      </trkpt>
      <trkpt lat="44.04055" lon="0.38986">
        <ele>89.9</ele>
        <time>2022-09-24T07:59:32Z</time>
      </trkpt>
      <trkpt lat="44.04053" lon="0.38992">
        <ele>90.4</ele>
        <time>2022-09-24T07:59:37Z</time>
      </trkpt>
      <trkpt lat="44.04049" lon="0.38998">
        <ele>90.8</ele>
        <time>2022-09-24T07:59:41Z</time>
      </trkpt>
      <trkpt lat="44.04046" lon="0.39004">
        <ele>91.3</ele>
        <time>2022-09-24T07:59:45Z</time>
      </trkpt>
      <trkpt lat="44.04043" lon="0.39009">
        <ele>92.3</ele>
        <time>2022-09-24T07:59:49Z</time>
      </trkpt>
      <trkpt lat="44.04041" lon="0.39016">
        <ele>93.6</ele>
        <time>2022-09-24T07:59:53Z</time>
      </trkpt>
      <trkpt lat="44.0404" lon="0.39022">
        <ele>94.9</ele>
        <time>2022-09-24T07:59:57Z</time>
      </trkpt>
      <trkpt lat="44.04039" lon="0.39029">
        <ele>96</ele>
        <time>2022-09-24T08:00:01Z</time>
      </trkpt>
      <trkpt lat="44.04038" lon="0.39035">
        <ele>96.8</ele>
        <time>2022-09-24T08:00:05Z</time>
      </trkpt>
      <trkpt lat="44.04037" lon="0.39042">
        <ele>97.7</ele>
        <time>2022-09-24T08:00:10Z</time>
      </trkpt>
      <trkpt lat="44.04033" lon="0.39047">
        <ele>98.1</ele>
        <time>2022-09-24T08:00:16Z</time>
      </trkpt>
      <trkpt lat="44.0403" lon="0.39052">
        <ele>98.2</ele>
        <time>2022-09-24T08:00:19Z</time>
      </trkpt>
      <trkpt lat="44.04028" lon="0.39058">
        <ele>98.2</ele>
        <time>2022-09-24T08:00:22Z</time>
      </trkpt>
      <trkpt lat="44.04028" lon="0.39064">
        <ele>98</ele>
        <time>2022-09-24T08:00:28Z</time>
      </trkpt>
      <trkpt lat="44.04029" lon="0.39072">
        <ele>97.9</ele>
        <time>2022-09-24T08:00:34Z</time>
      </trkpt>
      <trkpt lat="44.04029" lon="0.39079">
        <ele>97.7</ele>
        <time>2022-09-24T08:00:38Z</time>
      </trkpt>
      <trkpt lat="44.04031" lon="0.39085">
        <ele>97.5</ele>
        <time>2022-09-24T08:00:42Z</time>
      </trkpt>
      <trkpt lat="44.04033" lon="0.39093">
        <ele>97.2</ele>
        <time>2022-09-24T08:00:46Z</time>
      </trkpt>
      <trkpt lat="44.04032" lon="0.391">
        <ele>97</ele>
        <time>2022-09-24T08:00:50Z</time>
      </trkpt>
      <trkpt lat="44.04032" lon="0.39107">
        <ele>96.7</ele>
        <time>2022-09-24T08:00:54Z</time>
      </trkpt>
      <trkpt lat="44.04033" lon="0.39113">
        <ele>96.5</ele>
        <time>2022-09-24T08:00:58Z</time>
      </trkpt>
      <trkpt lat="44.04036" lon="0.39119">
        <ele>96.2</ele>
        <time>2022-09-24T08:01:02Z</time>
      </trkpt>
      <trkpt lat="44.04039" lon="0.39125">
        <ele>96.1</ele>
        <time>2022-09-24T08:01:07Z</time>
      </trkpt>
      <trkpt lat="44.0404" lon="0.39132">
        <ele>96.1</ele>
        <time>2022-09-24T08:01:12Z</time>
      </trkpt>
      <trkpt lat="44.04042" lon="0.39138">
        <ele>96.5</ele>
        <time>2022-09-24T08:01:18Z</time>
      </trkpt>
      <trkpt lat="44.04043" lon="0.39145">
        <ele>97</ele>
        <time>2022-09-24T08:01:22Z</time>
      </trkpt>
      <trkpt lat="44.04045" lon="0.39153">
        <ele>97.8</ele>
        <time>2022-09-24T08:01:27Z</time>
      </trkpt>
      <trkpt lat="44.04047" lon="0.39159">
        <ele>98.3</ele>
        <time>2022-09-24T08:01:32Z</time>
      </trkpt>
      <trkpt lat="44.04047" lon="0.39167">
        <ele>97.9</ele>
        <time>2022-09-24T08:01:38Z</time>
      </trkpt>
      <trkpt lat="44.04045" lon="0.39173">
        <ele>96.9</ele>
        <time>2022-09-24T08:01:44Z</time>
      </trkpt>
      <trkpt lat="44.04043" lon="0.39179">
        <ele>96.6</ele>
        <time>2022-09-24T08:01:48Z</time>
      </trkpt>
      <trkpt lat="44.0404" lon="0.39185">
        <ele>96.4</ele>
        <time>2022-09-24T08:01:52Z</time>
      </trkpt>
      <trkpt lat="44.0404" lon="0.39191">
        <ele>96.9</ele>
        <time>2022-09-24T08:01:58Z</time>
      </trkpt>
      <trkpt lat="44.0404" lon="0.39197">
        <ele>97.1</ele>
        <time>2022-09-24T08:02:06Z</time>
      </trkpt>
      <trkpt lat="44.0404" lon="0.39204">
        <ele>95.8</ele>
        <time>2022-09-24T08:02:13Z</time>
      </trkpt>
      <trkpt lat="44.04035" lon="0.39201">
        <ele>95.5</ele>
        <time>2022-09-24T08:03:34Z</time>
      </trkpt>
      <trkpt lat="44.04035" lon="0.39207">
        <ele>96.4</ele>
        <time>2022-09-24T08:05:44Z</time>
      </trkpt>
      <trkpt lat="44.0404" lon="0.39209">
        <ele>99.6</ele>
        <time>2022-09-24T08:06:20Z</time>
      </trkpt>
      <trkpt lat="44.04044" lon="0.39205">
        <ele>100.3</ele>
        <time>2022-09-24T08:06:23Z</time>
      </trkpt>
      <trkpt lat="44.0404" lon="0.39207">
        <ele>99.6</ele>
        <time>2022-09-24T08:06:38Z</time>
      </trkpt>
      <trkpt lat="44.04034" lon="0.39207">
        <ele>101.2</ele>
        <time>2022-09-24T08:08:06Z</time>
      </trkpt>
      <trkpt lat="44.04038" lon="0.3921">
        <ele>107.8</ele>
        <time>2022-09-24T08:08:46Z</time>
      </trkpt>
      <trkpt lat="44.04038" lon="0.39216">
        <ele>106.2</ele>
        <time>2022-09-24T08:09:29Z</time>
      </trkpt>
      <trkpt lat="44.04036" lon="0.39222">
        <ele>106.5</ele>
        <time>2022-09-24T08:09:34Z</time>
      </trkpt>
      <trkpt lat="44.04034" lon="0.39228">
        <ele>106.4</ele>
        <time>2022-09-24T08:09:38Z</time>
      </trkpt>
      <trkpt lat="44.04033" lon="0.39234">
        <ele>105.6</ele>
        <time>2022-09-24T08:09:44Z</time>
      </trkpt>
      <trkpt lat="44.04032" lon="0.39241">
        <ele>105</ele>
        <time>2022-09-24T08:09:49Z</time>
      </trkpt>
      <trkpt lat="44.04031" lon="0.39248">
        <ele>104.9</ele>
        <time>2022-09-24T08:09:53Z</time>
      </trkpt>
      <trkpt lat="44.04029" lon="0.39255">
        <ele>105</ele>
        <time>2022-09-24T08:09:57Z</time>
      </trkpt>
      <trkpt lat="44.04028" lon="0.39261">
        <ele>105</ele>
        <time>2022-09-24T08:10:01Z</time>
      </trkpt>
      <trkpt lat="44.04029" lon="0.39269">
        <ele>105.4</ele>
        <time>2022-09-24T08:10:06Z</time>
      </trkpt>
      <trkpt lat="44.04029" lon="0.39275">
        <ele>105.7</ele>
        <time>2022-09-24T08:10:11Z</time>
      </trkpt>
      <trkpt lat="44.04029" lon="0.39281">
        <ele>105.7</ele>
        <time>2022-09-24T08:10:15Z</time>
      </trkpt>
      <trkpt lat="44.04029" lon="0.39289">
        <ele>105.5</ele>
        <time>2022-09-24T08:10:20Z</time>
      </trkpt>
      <trkpt lat="44.04028" lon="0.39296">
        <ele>105.3</ele>
        <time>2022-09-24T08:10:25Z</time>
      </trkpt>
      <trkpt lat="44.04029" lon="0.39303">
        <ele>104.8</ele>
        <time>2022-09-24T08:10:30Z</time>
      </trkpt>
      <trkpt lat="44.0403" lon="0.39309">
        <ele>104.6</ele>
        <time>2022-09-24T08:10:34Z</time>
      </trkpt>
      <trkpt lat="44.04031" lon="0.39316">
        <ele>104.6</ele>
        <time>2022-09-24T08:10:39Z</time>
      </trkpt>
      <trkpt lat="44.04031" lon="0.39324">
        <ele>105.2</ele>
        <time>2022-09-24T08:10:44Z</time>
      </trkpt>
      <trkpt lat="44.0403" lon="0.3933">
        <ele>105.5</ele>
        <time>2022-09-24T08:10:48Z</time>
      </trkpt>
      <trkpt lat="44.0403" lon="0.39336">
        <ele>105.3</ele>
        <time>2022-09-24T08:10:53Z</time>
      </trkpt>
      <trkpt lat="44.04029" lon="0.39344">
        <ele>105</ele>
        <time>2022-09-24T08:10:58Z</time>
      </trkpt>
      <trkpt lat="44.04029" lon="0.3935">
        <ele>104.9</ele>
        <time>2022-09-24T08:11:02Z</time>
      </trkpt>
      <trkpt lat="44.0403" lon="0.39356">
        <ele>104.8</ele>
        <time>2022-09-24T08:11:06Z</time>
      </trkpt>
      <trkpt lat="44.04031" lon="0.39364">
        <ele>105.1</ele>
        <time>2022-09-24T08:11:10Z</time>
      </trkpt>
      <trkpt lat="44.04032" lon="0.39371">
        <ele>105.5</ele>
        <time>2022-09-24T08:11:15Z</time>
      </trkpt>
      <trkpt lat="44.0403" lon="0.39378">
        <ele>105.2</ele>
        <time>2022-09-24T08:11:18Z</time>
      </trkpt>
      <trkpt lat="44.0403" lon="0.39384">
        <ele>104.9</ele>
        <time>2022-09-24T08:11:21Z</time>
      </trkpt>
      <trkpt lat="44.04031" lon="0.3939">
        <ele>105</ele>
        <time>2022-09-24T08:11:26Z</time>
      </trkpt>
      <trkpt lat="44.04034" lon="0.39396">
        <ele>105.1</ele>
        <time>2022-09-24T08:11:32Z</time>
      </trkpt>
      <trkpt lat="44.04038" lon="0.39401">
        <ele>105.1</ele>
        <time>2022-09-24T08:11:36Z</time>
      </trkpt>
      <trkpt lat="44.04041" lon="0.39406">
        <ele>105.4</ele>
        <time>2022-09-24T08:11:40Z</time>
      </trkpt>
      <trkpt lat="44.04044" lon="0.39412">
        <ele>105</ele>
        <time>2022-09-24T08:11:44Z</time>
      </trkpt>
      <trkpt lat="44.04048" lon="0.39417">
        <ele>104.6</ele>
        <time>2022-09-24T08:11:48Z</time>
      </trkpt>
      <trkpt lat="44.04051" lon="0.39423">
        <ele>103.6</ele>
        <time>2022-09-24T08:11:54Z</time>
      </trkpt>
      <trkpt lat="44.04054" lon="0.39429">
        <ele>103.5</ele>
        <time>2022-09-24T08:11:58Z</time>
      </trkpt>
      <trkpt lat="44.04058" lon="0.39434">
        <ele>103.6</ele>
        <time>2022-09-24T08:12:02Z</time>
      </trkpt>
      <trkpt lat="44.04062" lon="0.39439">
        <ele>104.1</ele>
        <time>2022-09-24T08:12:07Z</time>
      </trkpt>
      <trkpt lat="44.04066" lon="0.39445">
        <ele>104.5</ele>
        <time>2022-09-24T08:12:12Z</time>
      </trkpt>
      <trkpt lat="44.04069" lon="0.39451">
        <ele>105</ele>
        <time>2022-09-24T08:12:17Z</time>
      </trkpt>
      <trkpt lat="44.04072" lon="0.39457">
        <ele>105.3</ele>
        <time>2022-09-24T08:12:22Z</time>
      </trkpt>
      <trkpt lat="44.04075" lon="0.39463">
        <ele>105.4</ele>
        <time>2022-09-24T08:12:27Z</time>
      </trkpt>
      <trkpt lat="44.04077" lon="0.39469">
        <ele>105.4</ele>
        <time>2022-09-24T08:12:31Z</time>
      </trkpt>
      <trkpt lat="44.04079" lon="0.39475">
        <ele>105.5</ele>
        <time>2022-09-24T08:12:35Z</time>
      </trkpt>
      <trkpt lat="44.04082" lon="0.39481">
        <ele>106.2</ele>
        <time>2022-09-24T08:12:40Z</time>
      </trkpt>
      <trkpt lat="44.04083" lon="0.39487">
        <ele>107</ele>
        <time>2022-09-24T08:12:45Z</time>
      </trkpt>
      <trkpt lat="44.04087" lon="0.39493">
        <ele>107.5</ele>
        <time>2022-09-24T08:12:50Z</time>
      </trkpt>
      <trkpt lat="44.0409" lon="0.39498">
        <ele>107.7</ele>
        <time>2022-09-24T08:12:54Z</time>
      </trkpt>
      <trkpt lat="44.04093" lon="0.39503">
        <ele>108.2</ele>
        <time>2022-09-24T08:12:58Z</time>
      </trkpt>
      <trkpt lat="44.04097" lon="0.39507">
        <ele>108.8</ele>
        <time>2022-09-24T08:13:02Z</time>
      </trkpt>
      <trkpt lat="44.04102" lon="0.39511">
        <ele>109.5</ele>
        <time>2022-09-24T08:13:06Z</time>
      </trkpt>
      <trkpt lat="44.04106" lon="0.39514">
        <ele>110.2</ele>
        <time>2022-09-24T08:13:10Z</time>
      </trkpt>
      <trkpt lat="44.04111" lon="0.39517">
        <ele>110.7</ele>
        <time>2022-09-24T08:13:14Z</time>
      </trkpt>
      <trkpt lat="44.04115" lon="0.3952">
        <ele>111.4</ele>
        <time>2022-09-24T08:13:18Z</time>
      </trkpt>
      <trkpt lat="44.04119" lon="0.39523">
        <ele>112.4</ele>
        <time>2022-09-24T08:13:23Z</time>
      </trkpt>
      <trkpt lat="44.04124" lon="0.39527">
        <ele>113.2</ele>
        <time>2022-09-24T08:13:28Z</time>
      </trkpt>
      <trkpt lat="44.04127" lon="0.39531">
        <ele>114.2</ele>
        <time>2022-09-24T08:13:34Z</time>
      </trkpt>
      <trkpt lat="44.04131" lon="0.39535">
        <ele>115</ele>
        <time>2022-09-24T08:13:39Z</time>
      </trkpt>
      <trkpt lat="44.04135" lon="0.39539">
        <ele>115.7</ele>
        <time>2022-09-24T08:13:44Z</time>
      </trkpt>
      <trkpt lat="44.0414" lon="0.39542">
        <ele>116.1</ele>
        <time>2022-09-24T08:13:48Z</time>
      </trkpt>
      <trkpt lat="44.04144" lon="0.39545">
        <ele>116.2</ele>
        <time>2022-09-24T08:13:54Z</time>
      </trkpt>
      <trkpt lat="44.04148" lon="0.3955">
        <ele>116.1</ele>
        <time>2022-09-24T08:13:59Z</time>
      </trkpt>
      <trkpt lat="44.04154" lon="0.39554">
        <ele>116</ele>
        <time>2022-09-24T08:14:04Z</time>
      </trkpt>
      <trkpt lat="44.04158" lon="0.39557">
        <ele>115.8</ele>
        <time>2022-09-24T08:14:09Z</time>
      </trkpt>
      <trkpt lat="44.04161" lon="0.39561">
        <ele>115.9</ele>
        <time>2022-09-24T08:14:16Z</time>
      </trkpt>
      <trkpt lat="44.04165" lon="0.39566">
        <ele>116.3</ele>
        <time>2022-09-24T08:14:21Z</time>
      </trkpt>
      <trkpt lat="44.04166" lon="0.39572">
        <ele>115</ele>
        <time>2022-09-24T08:14:27Z</time>
      </trkpt>
      <trkpt lat="44.04166" lon="0.39579">
        <ele>113.5</ele>
        <time>2022-09-24T08:14:32Z</time>
      </trkpt>
      <trkpt lat="44.04166" lon="0.39586">
        <ele>112.6</ele>
        <time>2022-09-24T08:14:38Z</time>
      </trkpt>
      <trkpt lat="44.04166" lon="0.39593">
        <ele>112.9</ele>
        <time>2022-09-24T08:14:43Z</time>
      </trkpt>
      <trkpt lat="44.04166" lon="0.396">
        <ele>113.3</ele>
        <time>2022-09-24T08:14:48Z</time>
      </trkpt>
      <trkpt lat="44.04167" lon="0.39606">
        <ele>114.1</ele>
        <time>2022-09-24T08:14:53Z</time>
      </trkpt>
      <trkpt lat="44.04168" lon="0.39613">
        <ele>114.7</ele>
        <time>2022-09-24T08:14:58Z</time>
      </trkpt>
      <trkpt lat="44.04168" lon="0.3962">
        <ele>115.7</ele>
        <time>2022-09-24T08:15:04Z</time>
      </trkpt>
      <trkpt lat="44.04168" lon="0.39628">
        <ele>116.9</ele>
        <time>2022-09-24T08:15:09Z</time>
      </trkpt>
      <trkpt lat="44.04168" lon="0.39635">
        <ele>118.1</ele>
        <time>2022-09-24T08:15:13Z</time>
      </trkpt>
      <trkpt lat="44.04167" lon="0.39642">
        <ele>119.2</ele>
        <time>2022-09-24T08:15:17Z</time>
      </trkpt>
      <trkpt lat="44.04167" lon="0.39649">
        <ele>119.7</ele>
        <time>2022-09-24T08:15:22Z</time>
      </trkpt>
      <trkpt lat="44.04167" lon="0.39656">
        <ele>120.2</ele>
        <time>2022-09-24T08:15:28Z</time>
      </trkpt>
      <trkpt lat="44.04166" lon="0.39662">
        <ele>120.6</ele>
        <time>2022-09-24T08:15:34Z</time>
      </trkpt>
      <trkpt lat="44.04166" lon="0.3967">
        <ele>120.9</ele>
        <time>2022-09-24T08:15:39Z</time>
      </trkpt>
      <trkpt lat="44.04166" lon="0.39677">
        <ele>121</ele>
        <time>2022-09-24T08:15:43Z</time>
      </trkpt>
      <trkpt lat="44.04167" lon="0.39684">
        <ele>121.2</ele>
        <time>2022-09-24T08:15:48Z</time>
      </trkpt>
      <trkpt lat="44.04167" lon="0.39691">
        <ele>121.7</ele>
        <time>2022-09-24T08:15:53Z</time>
      </trkpt>
      <trkpt lat="44.04167" lon="0.39698">
        <ele>122.6</ele>
        <time>2022-09-24T08:15:59Z</time>
      </trkpt>
      <trkpt lat="44.04167" lon="0.39705">
        <ele>123.5</ele>
        <time>2022-09-24T08:16:04Z</time>
      </trkpt>
      <trkpt lat="44.04167" lon="0.39713">
        <ele>124.3</ele>
        <time>2022-09-24T08:16:09Z</time>
      </trkpt>
      <trkpt lat="44.04167" lon="0.39719">
        <ele>124.7</ele>
        <time>2022-09-24T08:16:14Z</time>
      </trkpt>
      <trkpt lat="44.04166" lon="0.39726">
        <ele>125.1</ele>
        <time>2022-09-24T08:16:20Z</time>
      </trkpt>
      <trkpt lat="44.04167" lon="0.39733">
        <ele>125.1</ele>
        <time>2022-09-24T08:16:25Z</time>
      </trkpt>
      <trkpt lat="44.04168" lon="0.3974">
        <ele>124.8</ele>
        <time>2022-09-24T08:16:30Z</time>
      </trkpt>
      <trkpt lat="44.04169" lon="0.39746">
        <ele>122.3</ele>
        <time>2022-09-24T08:16:38Z</time>
      </trkpt>
      <trkpt lat="44.04169" lon="0.39754">
        <ele>122.1</ele>
        <time>2022-09-24T08:16:44Z</time>
      </trkpt>
      <trkpt lat="44.04169" lon="0.3976">
        <ele>122</ele>
        <time>2022-09-24T08:16:48Z</time>
      </trkpt>
      <trkpt lat="44.04167" lon="0.39766">
        <ele>122.4</ele>
        <time>2022-09-24T08:16:53Z</time>
      </trkpt>
      <trkpt lat="44.04165" lon="0.39773">
        <ele>123</ele>
        <time>2022-09-24T08:16:58Z</time>
      </trkpt>
      <trkpt lat="44.04161" lon="0.39777">
        <ele>124</ele>
        <time>2022-09-24T08:17:04Z</time>
      </trkpt>
      <trkpt lat="44.04158" lon="0.39782">
        <ele>124.4</ele>
        <time>2022-09-24T08:17:09Z</time>
      </trkpt>
      <trkpt lat="44.04155" lon="0.39787">
        <ele>124.6</ele>
        <time>2022-09-24T08:17:14Z</time>
      </trkpt>
      <trkpt lat="44.04151" lon="0.39793">
        <ele>125.2</ele>
        <time>2022-09-24T08:17:19Z</time>
      </trkpt>
      <trkpt lat="44.04148" lon="0.398">
        <ele>125.5</ele>
        <time>2022-09-24T08:17:26Z</time>
      </trkpt>
      <trkpt lat="44.04147" lon="0.39806">
        <ele>125.6</ele>
        <time>2022-09-24T08:17:31Z</time>
      </trkpt>
      <trkpt lat="44.04146" lon="0.39813">
        <ele>125.8</ele>
        <time>2022-09-24T08:17:36Z</time>
      </trkpt>
      <trkpt lat="44.04146" lon="0.39819">
        <ele>127</ele>
        <time>2022-09-24T08:17:41Z</time>
      </trkpt>
      <trkpt lat="44.04146" lon="0.39827">
        <ele>128.2</ele>
        <time>2022-09-24T08:17:46Z</time>
      </trkpt>
      <trkpt lat="44.04146" lon="0.39835">
        <ele>129.5</ele>
        <time>2022-09-24T08:17:51Z</time>
      </trkpt>
      <trkpt lat="44.04147" lon="0.39841">
        <ele>130.2</ele>
        <time>2022-09-24T08:17:56Z</time>
      </trkpt>
      <trkpt lat="44.04148" lon="0.39848">
        <ele>130.5</ele>
        <time>2022-09-24T08:18:02Z</time>
      </trkpt>
      <trkpt lat="44.04148" lon="0.39855">
        <ele>130.6</ele>
        <time>2022-09-24T08:18:09Z</time>
      </trkpt>
      <trkpt lat="44.04149" lon="0.39862">
        <ele>130.8</ele>
        <time>2022-09-24T08:18:16Z</time>
      </trkpt>
      <trkpt lat="44.04149" lon="0.39869">
        <ele>130.5</ele>
        <time>2022-09-24T08:18:22Z</time>
      </trkpt>
      <trkpt lat="44.04149" lon="0.39876">
        <ele>128.6</ele>
        <time>2022-09-24T08:18:29Z</time>
      </trkpt>
      <trkpt lat="44.04149" lon="0.39883">
        <ele>127.5</ele>
        <time>2022-09-24T08:18:36Z</time>
      </trkpt>
      <trkpt lat="44.04148" lon="0.3989">
        <ele>127.1</ele>
        <time>2022-09-24T08:18:42Z</time>
      </trkpt>
      <trkpt lat="44.04146" lon="0.39896">
        <ele>127.2</ele>
        <time>2022-09-24T08:18:48Z</time>
      </trkpt>
      <trkpt lat="44.04146" lon="0.39903">
        <ele>128.1</ele>
        <time>2022-09-24T08:18:53Z</time>
      </trkpt>
      <trkpt lat="44.04147" lon="0.3991">
        <ele>129.6</ele>
        <time>2022-09-24T08:18:57Z</time>
      </trkpt>
      <trkpt lat="44.0415" lon="0.39916">
        <ele>130.7</ele>
        <time>2022-09-24T08:19:01Z</time>
      </trkpt>
      <trkpt lat="44.04149" lon="0.39924">
        <ele>132.4</ele>
        <time>2022-09-24T08:19:07Z</time>
      </trkpt>
      <trkpt lat="44.04146" lon="0.3993">
        <ele>134.3</ele>
        <time>2022-09-24T08:19:13Z</time>
      </trkpt>
      <trkpt lat="44.04146" lon="0.39936">
        <ele>135.6</ele>
        <time>2022-09-24T08:19:17Z</time>
      </trkpt>
      <trkpt lat="44.04142" lon="0.39941">
        <ele>142.4</ele>
        <time>2022-09-24T08:21:07Z</time>
      </trkpt>
      <trkpt lat="44.04147" lon="0.39941">
        <ele>142.8</ele>
        <time>2022-09-24T08:22:05Z</time>
      </trkpt>
      <trkpt lat="44.04143" lon="0.39944">
        <ele>141.4</ele>
        <time>2022-09-24T08:24:26Z</time>
      </trkpt>
      <trkpt lat="44.04147" lon="0.39942">
        <ele>140.9</ele>
        <time>2022-09-24T08:26:24Z</time>
      </trkpt>
      <trkpt lat="44.04152" lon="0.39945">
        <ele>143.6</ele>
        <time>2022-09-24T08:27:17Z</time>
      </trkpt>
      <trkpt lat="44.04156" lon="0.39948">
        <ele>144.3</ele>
        <time>2022-09-24T08:27:24Z</time>
      </trkpt>
      <trkpt lat="44.0416" lon="0.3995">
        <ele>145</ele>
        <time>2022-09-24T08:27:30Z</time>
      </trkpt>
      <trkpt lat="44.04165" lon="0.39953">
        <ele>145.6</ele>
        <time>2022-09-24T08:27:37Z</time>
      </trkpt>
      <trkpt lat="44.0417" lon="0.39954">
        <ele>145.6</ele>
        <time>2022-09-24T08:27:43Z</time>
      </trkpt>
      <trkpt lat="44.04175" lon="0.39952">
        <ele>145.8</ele>
        <time>2022-09-24T08:27:48Z</time>
      </trkpt>
      <trkpt lat="44.0418" lon="0.39951">
        <ele>145.9</ele>
        <time>2022-09-24T08:27:52Z</time>
      </trkpt>
      <trkpt lat="44.04184" lon="0.39952">
        <ele>146.1</ele>
        <time>2022-09-24T08:27:55Z</time>
      </trkpt>
      <trkpt lat="44.04189" lon="0.39952">
        <ele>146.7</ele>
        <time>2022-09-24T08:27:59Z</time>
      </trkpt>
      <trkpt lat="44.04194" lon="0.39952">
        <ele>147.2</ele>
        <time>2022-09-24T08:28:04Z</time>
      </trkpt>
      <trkpt lat="44.04198" lon="0.39953">
        <ele>147.8</ele>
        <time>2022-09-24T08:28:09Z</time>
      </trkpt>
      <trkpt lat="44.04203" lon="0.39951">
        <ele>147.9</ele>
        <time>2022-09-24T08:28:14Z</time>
      </trkpt>
      <trkpt lat="44.04209" lon="0.39951">
        <ele>148.1</ele>
        <time>2022-09-24T08:28:19Z</time>
      </trkpt>
      <trkpt lat="44.04215" lon="0.3995">
        <ele>147.8</ele>
        <time>2022-09-24T08:28:23Z</time>
      </trkpt>
      <trkpt lat="44.0422" lon="0.3995">
        <ele>147.4</ele>
        <time>2022-09-24T08:28:27Z</time>
      </trkpt>
      <trkpt lat="44.04225" lon="0.39949">
        <ele>147.4</ele>
        <time>2022-09-24T08:28:31Z</time>
      </trkpt>
      <trkpt lat="44.0423" lon="0.39948">
        <ele>147.7</ele>
        <time>2022-09-24T08:28:35Z</time>
      </trkpt>
      <trkpt lat="44.04235" lon="0.39947">
        <ele>148</ele>
        <time>2022-09-24T08:28:38Z</time>
      </trkpt>
      <trkpt lat="44.0424" lon="0.39946">
        <ele>148.3</ele>
        <time>2022-09-24T08:28:42Z</time>
      </trkpt>
      <trkpt lat="44.04245" lon="0.39945">
        <ele>148.7</ele>
        <time>2022-09-24T08:28:46Z</time>
      </trkpt>
      <trkpt lat="44.04249" lon="0.39944">
        <ele>148.9</ele>
        <time>2022-09-24T08:28:50Z</time>
      </trkpt>
      <trkpt lat="44.04254" lon="0.39944">
        <ele>148.8</ele>
        <time>2022-09-24T08:28:54Z</time>
      </trkpt>
      <trkpt lat="44.04259" lon="0.39943">
        <ele>149.1</ele>
        <time>2022-09-24T08:28:58Z</time>
      </trkpt>
      <trkpt lat="44.04265" lon="0.39942">
        <ele>149.8</ele>
        <time>2022-09-24T08:29:03Z</time>
      </trkpt>
      <trkpt lat="44.0427" lon="0.39943">
        <ele>150.6</ele>
        <time>2022-09-24T08:29:07Z</time>
      </trkpt>
      <trkpt lat="44.04274" lon="0.39942">
        <ele>151.3</ele>
        <time>2022-09-24T08:29:11Z</time>
      </trkpt>
      <trkpt lat="44.04279" lon="0.3994">
        <ele>151.7</ele>
        <time>2022-09-24T08:29:15Z</time>
      </trkpt>
      <trkpt lat="44.04284" lon="0.39939">
        <ele>152.3</ele>
        <time>2022-09-24T08:29:18Z</time>
      </trkpt>
      <trkpt lat="44.04289" lon="0.39938">
        <ele>152.7</ele>
        <time>2022-09-24T08:29:22Z</time>
      </trkpt>
      <trkpt lat="44.04294" lon="0.39937">
        <ele>152.7</ele>
        <time>2022-09-24T08:29:26Z</time>
      </trkpt>
      <trkpt lat="44.04299" lon="0.39939">
        <ele>152.6</ele>
        <time>2022-09-24T08:29:31Z</time>
      </trkpt>
      <trkpt lat="44.04303" lon="0.39939">
        <ele>152.5</ele>
        <time>2022-09-24T08:29:35Z</time>
      </trkpt>
      <trkpt lat="44.04308" lon="0.39938">
        <ele>152.6</ele>
        <time>2022-09-24T08:29:39Z</time>
      </trkpt>
      <trkpt lat="44.04314" lon="0.39937">
        <ele>152.9</ele>
        <time>2022-09-24T08:29:43Z</time>
      </trkpt>
      <trkpt lat="44.04319" lon="0.39935">
        <ele>153.4</ele>
        <time>2022-09-24T08:29:47Z</time>
      </trkpt>
      <trkpt lat="44.04324" lon="0.39935">
        <ele>153.5</ele>
        <time>2022-09-24T08:29:52Z</time>
      </trkpt>
      <trkpt lat="44.04323" lon="0.39942">
        <ele>152.2</ele>
        <time>2022-09-24T08:30:01Z</time>
      </trkpt>
      <trkpt lat="44.04319" lon="0.39946">
        <ele>151.8</ele>
        <time>2022-09-24T08:30:05Z</time>
      </trkpt>
      <trkpt lat="44.04316" lon="0.3995">
        <ele>151.6</ele>
        <time>2022-09-24T08:30:10Z</time>
      </trkpt>
      <trkpt lat="44.04312" lon="0.39955">
        <ele>151.6</ele>
        <time>2022-09-24T08:30:14Z</time>
      </trkpt>
      <trkpt lat="44.04307" lon="0.3996">
        <ele>151.7</ele>
        <time>2022-09-24T08:30:18Z</time>
      </trkpt>
      <trkpt lat="44.04303" lon="0.39964">
        <ele>152.1</ele>
        <time>2022-09-24T08:30:22Z</time>
      </trkpt>
      <trkpt lat="44.04299" lon="0.39967">
        <ele>152.8</ele>
        <time>2022-09-24T08:30:26Z</time>
      </trkpt>
      <trkpt lat="44.04295" lon="0.39971">
        <ele>153.9</ele>
        <time>2022-09-24T08:30:31Z</time>
      </trkpt>
      <trkpt lat="44.04291" lon="0.39976">
        <ele>154.9</ele>
        <time>2022-09-24T08:30:36Z</time>
      </trkpt>
      <trkpt lat="44.04287" lon="0.39981">
        <ele>155.5</ele>
        <time>2022-09-24T08:30:41Z</time>
      </trkpt>
      <trkpt lat="44.04284" lon="0.39986">
        <ele>156</ele>
        <time>2022-09-24T08:30:44Z</time>
      </trkpt>
      <trkpt lat="44.0428" lon="0.39991">
        <ele>156.3</ele>
        <time>2022-09-24T08:30:48Z</time>
      </trkpt>
      <trkpt lat="44.04277" lon="0.39997">
        <ele>156.3</ele>
        <time>2022-09-24T08:30:53Z</time>
      </trkpt>
      <trkpt lat="44.04275" lon="0.40002">
        <ele>156.1</ele>
        <time>2022-09-24T08:30:59Z</time>
      </trkpt>
      <trkpt lat="44.04276" lon="0.40009">
        <ele>156.8</ele>
        <time>2022-09-24T08:31:03Z</time>
      </trkpt>
      <trkpt lat="44.04277" lon="0.40017">
        <ele>156.9</ele>
        <time>2022-09-24T08:31:07Z</time>
      </trkpt>
      <trkpt lat="44.04279" lon="0.40023">
        <ele>157.1</ele>
        <time>2022-09-24T08:31:12Z</time>
      </trkpt>
      <trkpt lat="44.04281" lon="0.4003">
        <ele>157.6</ele>
        <time>2022-09-24T08:31:16Z</time>
      </trkpt>
      <trkpt lat="44.04284" lon="0.40036">
        <ele>158.3</ele>
        <time>2022-09-24T08:31:19Z</time>
      </trkpt>
      <trkpt lat="44.04284" lon="0.40043">
        <ele>158.8</ele>
        <time>2022-09-24T08:31:23Z</time>
      </trkpt>
      <trkpt lat="44.04284" lon="0.4005">
        <ele>158.8</ele>
        <time>2022-09-24T08:31:28Z</time>
      </trkpt>
      <trkpt lat="44.04287" lon="0.40056">
        <ele>158.4</ele>
        <time>2022-09-24T08:31:33Z</time>
      </trkpt>
      <trkpt lat="44.0429" lon="0.40062">
        <ele>157.9</ele>
        <time>2022-09-24T08:31:38Z</time>
      </trkpt>
      <trkpt lat="44.04292" lon="0.40068">
        <ele>157.6</ele>
        <time>2022-09-24T08:31:42Z</time>
      </trkpt>
      <trkpt lat="44.04295" lon="0.40073">
        <ele>157.7</ele>
        <time>2022-09-24T08:31:46Z</time>
      </trkpt>
      <trkpt lat="44.04295" lon="0.4008">
        <ele>158.4</ele>
        <time>2022-09-24T08:31:53Z</time>
      </trkpt>
      <trkpt lat="44.04296" lon="0.40087">
        <ele>159.1</ele>
        <time>2022-09-24T08:31:57Z</time>
      </trkpt>
      <trkpt lat="44.04296" lon="0.40094">
        <ele>159.8</ele>
        <time>2022-09-24T08:32:02Z</time>
      </trkpt>
      <trkpt lat="44.04294" lon="0.401">
        <ele>160.3</ele>
        <time>2022-09-24T08:32:06Z</time>
      </trkpt>
      <trkpt lat="44.04292" lon="0.40108">
        <ele>161</ele>
        <time>2022-09-24T08:32:11Z</time>
      </trkpt>
      <trkpt lat="44.0429" lon="0.40114">
        <ele>161.6</ele>
        <time>2022-09-24T08:32:16Z</time>
      </trkpt>
      <trkpt lat="44.04288" lon="0.40119">
        <ele>162.9</ele>
        <time>2022-09-24T08:32:23Z</time>
      </trkpt>
      <trkpt lat="44.04288" lon="0.40126">
        <ele>163.1</ele>
        <time>2022-09-24T08:32:28Z</time>
      </trkpt>
      <trkpt lat="44.04286" lon="0.40133">
        <ele>163.1</ele>
        <time>2022-09-24T08:32:34Z</time>
      </trkpt>
      <trkpt lat="44.04285" lon="0.40139">
        <ele>163.4</ele>
        <time>2022-09-24T08:32:39Z</time>
      </trkpt>
      <trkpt lat="44.04285" lon="0.40146">
        <ele>163.8</ele>
        <time>2022-09-24T08:32:43Z</time>
      </trkpt>
      <trkpt lat="44.04285" lon="0.40152">
        <ele>164.2</ele>
        <time>2022-09-24T08:32:46Z</time>
      </trkpt>
      <trkpt lat="44.04286" lon="0.4016">
        <ele>164.7</ele>
        <time>2022-09-24T08:32:50Z</time>
      </trkpt>
      <trkpt lat="44.04287" lon="0.40166">
        <ele>165.2</ele>
        <time>2022-09-24T08:32:53Z</time>
      </trkpt>
      <trkpt lat="44.04287" lon="0.40174">
        <ele>165.6</ele>
        <time>2022-09-24T08:32:57Z</time>
      </trkpt>
      <trkpt lat="44.04284" lon="0.4018">
        <ele>165.5</ele>
        <time>2022-09-24T08:33:00Z</time>
      </trkpt>
      <trkpt lat="44.04282" lon="0.40186">
        <ele>165.6</ele>
        <time>2022-09-24T08:33:03Z</time>
      </trkpt>
      <trkpt lat="44.0428" lon="0.40192">
        <ele>165.4</ele>
        <time>2022-09-24T08:33:06Z</time>
      </trkpt>
      <trkpt lat="44.0428" lon="0.40198">
        <ele>165.6</ele>
        <time>2022-09-24T08:33:10Z</time>
      </trkpt>
      <trkpt lat="44.04279" lon="0.40205">
        <ele>164.7</ele>
        <time>2022-09-24T08:33:16Z</time>
      </trkpt>
      <trkpt lat="44.04276" lon="0.40211">
        <ele>163.6</ele>
        <time>2022-09-24T08:33:21Z</time>
      </trkpt>
      <trkpt lat="44.04275" lon="0.40218">
        <ele>162.7</ele>
        <time>2022-09-24T08:33:26Z</time>
      </trkpt>
      <trkpt lat="44.04272" lon="0.40224">
        <ele>162.4</ele>
        <time>2022-09-24T08:33:30Z</time>
      </trkpt>
      <trkpt lat="44.0427" lon="0.4023">
        <ele>162.4</ele>
        <time>2022-09-24T08:33:34Z</time>
      </trkpt>
      <trkpt lat="44.04269" lon="0.40236">
        <ele>162.4</ele>
        <time>2022-09-24T08:33:38Z</time>
      </trkpt>
      <trkpt lat="44.04268" lon="0.40243">
        <ele>162.8</ele>
        <time>2022-09-24T08:33:42Z</time>
      </trkpt>
      <trkpt lat="44.04268" lon="0.40249">
        <ele>163.3</ele>
        <time>2022-09-24T08:33:48Z</time>
      </trkpt>
      <trkpt lat="44.04264" lon="0.40254">
        <ele>162.5</ele>
        <time>2022-09-24T08:33:57Z</time>
      </trkpt>
      <trkpt lat="44.04261" lon="0.40259">
        <ele>161.1</ele>
        <time>2022-09-24T08:34:01Z</time>
      </trkpt>
      <trkpt lat="44.04258" lon="0.40267">
        <ele>160.1</ele>
        <time>2022-09-24T08:34:05Z</time>
      </trkpt>
      <trkpt lat="44.04257" lon="0.40274">
        <ele>159.1</ele>
        <time>2022-09-24T08:34:10Z</time>
      </trkpt>
      <trkpt lat="44.04256" lon="0.40281">
        <ele>157.8</ele>
        <time>2022-09-24T08:34:15Z</time>
      </trkpt>
      <trkpt lat="44.04254" lon="0.40287">
        <ele>157.5</ele>
        <time>2022-09-24T08:34:18Z</time>
      </trkpt>
      <trkpt lat="44.04251" lon="0.40293">
        <ele>156.8</ele>
        <time>2022-09-24T08:34:22Z</time>
      </trkpt>
      <trkpt lat="44.04249" lon="0.40299">
        <ele>156.2</ele>
        <time>2022-09-24T08:34:26Z</time>
      </trkpt>
      <trkpt lat="44.04247" lon="0.40306">
        <ele>156</ele>
        <time>2022-09-24T08:34:30Z</time>
      </trkpt>
      <trkpt lat="44.04245" lon="0.40313">
        <ele>156.4</ele>
        <time>2022-09-24T08:34:34Z</time>
      </trkpt>
      <trkpt lat="44.04243" lon="0.4032">
        <ele>156.9</ele>
        <time>2022-09-24T08:34:39Z</time>
      </trkpt>
      <trkpt lat="44.04241" lon="0.40326">
        <ele>157.5</ele>
        <time>2022-09-24T08:34:43Z</time>
      </trkpt>
      <trkpt lat="44.04239" lon="0.40333">
        <ele>158.1</ele>
        <time>2022-09-24T08:34:47Z</time>
      </trkpt>
      <trkpt lat="44.04236" lon="0.40341">
        <ele>158.4</ele>
        <time>2022-09-24T08:34:51Z</time>
      </trkpt>
      <trkpt lat="44.04234" lon="0.40348">
        <ele>159.2</ele>
        <time>2022-09-24T08:34:55Z</time>
      </trkpt>
      <trkpt lat="44.04232" lon="0.40354">
        <ele>160.4</ele>
        <time>2022-09-24T08:35:00Z</time>
      </trkpt>
      <trkpt lat="44.0423" lon="0.40361">
        <ele>161.1</ele>
        <time>2022-09-24T08:35:04Z</time>
      </trkpt>
      <trkpt lat="44.04228" lon="0.40368">
        <ele>161</ele>
        <time>2022-09-24T08:35:07Z</time>
      </trkpt>
      <trkpt lat="44.04227" lon="0.40374">
        <ele>161.4</ele>
        <time>2022-09-24T08:35:10Z</time>
      </trkpt>
      <trkpt lat="44.04225" lon="0.40381">
        <ele>161.8</ele>
        <time>2022-09-24T08:35:14Z</time>
      </trkpt>
      <trkpt lat="44.04222" lon="0.40386">
        <ele>161.8</ele>
        <time>2022-09-24T08:35:18Z</time>
      </trkpt>
      <trkpt lat="44.0422" lon="0.40392">
        <ele>160.5</ele>
        <time>2022-09-24T08:35:27Z</time>
      </trkpt>
      <trkpt lat="44.0422" lon="0.40399">
        <ele>160.1</ele>
        <time>2022-09-24T08:35:31Z</time>
      </trkpt>
      <trkpt lat="44.04219" lon="0.40405">
        <ele>159.8</ele>
        <time>2022-09-24T08:35:35Z</time>
      </trkpt>
      <trkpt lat="44.04218" lon="0.40412">
        <ele>159</ele>
        <time>2022-09-24T08:35:40Z</time>
      </trkpt>
      <trkpt lat="44.04214" lon="0.40417">
        <ele>158.6</ele>
        <time>2022-09-24T08:35:44Z</time>
      </trkpt>
      <trkpt lat="44.04212" lon="0.40423">
        <ele>158.2</ele>
        <time>2022-09-24T08:35:48Z</time>
      </trkpt>
      <trkpt lat="44.04216" lon="0.40419">
        <ele>160.6</ele>
        <time>2022-09-24T08:36:21Z</time>
      </trkpt>
      <trkpt lat="44.04217" lon="0.40412">
        <ele>160.8</ele>
        <time>2022-09-24T08:36:32Z</time>
      </trkpt>
      <trkpt lat="44.04217" lon="0.40405">
        <ele>162.5</ele>
        <time>2022-09-24T08:36:42Z</time>
      </trkpt>
      <trkpt lat="44.04219" lon="0.404">
        <ele>163.6</ele>
        <time>2022-09-24T08:36:52Z</time>
      </trkpt>
      <trkpt lat="44.04216" lon="0.40405">
        <ele>165.4</ele>
        <time>2022-09-24T08:37:00Z</time>
      </trkpt>
      <trkpt lat="44.04214" lon="0.40411">
        <ele>166.3</ele>
        <time>2022-09-24T08:37:03Z</time>
      </trkpt>
      <trkpt lat="44.04212" lon="0.40418">
        <ele>166.8</ele>
        <time>2022-09-24T08:37:06Z</time>
      </trkpt>
      <trkpt lat="44.04212" lon="0.40425">
        <ele>167.4</ele>
        <time>2022-09-24T08:37:10Z</time>
      </trkpt>
      <trkpt lat="44.04211" lon="0.40432">
        <ele>167.3</ele>
        <time>2022-09-24T08:37:16Z</time>
      </trkpt>
      <trkpt lat="44.04212" lon="0.40438">
        <ele>164.7</ele>
        <time>2022-09-24T08:37:41Z</time>
      </trkpt>
      <trkpt lat="44.04212" lon="0.40445">
        <ele>163.1</ele>
        <time>2022-09-24T08:38:37Z</time>
      </trkpt>
      <trkpt lat="44.04207" lon="0.40449">
        <ele>163.3</ele>
        <time>2022-09-24T08:38:47Z</time>
      </trkpt>
      <trkpt lat="44.04203" lon="0.40449">
        <ele>163.5</ele>
        <time>2022-09-24T08:38:51Z</time>
      </trkpt>
      <trkpt lat="44.04198" lon="0.40447">
        <ele>163.7</ele>
        <time>2022-09-24T08:39:01Z</time>
      </trkpt>
      <trkpt lat="44.04199" lon="0.40453">
        <ele>159.3</ele>
        <time>2022-09-24T08:39:35Z</time>
      </trkpt>
      <trkpt lat="44.04203" lon="0.40457">
        <ele>157.8</ele>
        <time>2022-09-24T08:39:43Z</time>
      </trkpt>
      <trkpt lat="44.04208" lon="0.40458">
        <ele>157.6</ele>
        <time>2022-09-24T08:39:48Z</time>
      </trkpt>
      <trkpt lat="44.04212" lon="0.40456">
        <ele>162.8</ele>
        <time>2022-09-24T08:41:22Z</time>
      </trkpt>
      <trkpt lat="44.04212" lon="0.40463">
        <ele>163.9</ele>
        <time>2022-09-24T08:41:28Z</time>
      </trkpt>
      <trkpt lat="44.04212" lon="0.4047">
        <ele>164.4</ele>
        <time>2022-09-24T08:41:32Z</time>
      </trkpt>
      <trkpt lat="44.04212" lon="0.40477">
        <ele>164.5</ele>
        <time>2022-09-24T08:41:36Z</time>
      </trkpt>
      <trkpt lat="44.04211" lon="0.40484">
        <ele>164.5</ele>
        <time>2022-09-24T08:41:40Z</time>
      </trkpt>
      <trkpt lat="44.0421" lon="0.40491">
        <ele>164.9</ele>
        <time>2022-09-24T08:41:44Z</time>
      </trkpt>
      <trkpt lat="44.04209" lon="0.40497">
        <ele>165.3</ele>
        <time>2022-09-24T08:41:47Z</time>
      </trkpt>
      <trkpt lat="44.04208" lon="0.40504">
        <ele>166</ele>
        <time>2022-09-24T08:41:51Z</time>
      </trkpt>
      <trkpt lat="44.04208" lon="0.40512">
        <ele>166.4</ele>
        <time>2022-09-24T08:41:55Z</time>
      </trkpt>
      <trkpt lat="44.04207" lon="0.40519">
        <ele>166.4</ele>
        <time>2022-09-24T08:41:59Z</time>
      </trkpt>
      <trkpt lat="44.04207" lon="0.40525">
        <ele>165.7</ele>
        <time>2022-09-24T08:42:03Z</time>
      </trkpt>
      <trkpt lat="44.04206" lon="0.40532">
        <ele>164.8</ele>
        <time>2022-09-24T08:42:07Z</time>
      </trkpt>
      <trkpt lat="44.04207" lon="0.40539">
        <ele>164.1</ele>
        <time>2022-09-24T08:42:11Z</time>
      </trkpt>
      <trkpt lat="44.04206" lon="0.40545">
        <ele>163.7</ele>
        <time>2022-09-24T08:42:14Z</time>
      </trkpt>
      <trkpt lat="44.04206" lon="0.40552">
        <ele>163</ele>
        <time>2022-09-24T08:42:18Z</time>
      </trkpt>
      <trkpt lat="44.04207" lon="0.40559">
        <ele>162.3</ele>
        <time>2022-09-24T08:42:22Z</time>
      </trkpt>
      <trkpt lat="44.04207" lon="0.40566">
        <ele>161.4</ele>
        <time>2022-09-24T08:42:26Z</time>
      </trkpt>
      <trkpt lat="44.04206" lon="0.40573">
        <ele>160.5</ele>
        <time>2022-09-24T08:42:31Z</time>
      </trkpt>
      <trkpt lat="44.04205" lon="0.4058">
        <ele>159.5</ele>
        <time>2022-09-24T08:42:35Z</time>
      </trkpt>
      <trkpt lat="44.04205" lon="0.40586">
        <ele>158.4</ele>
        <time>2022-09-24T08:42:39Z</time>
      </trkpt>
      <trkpt lat="44.04204" lon="0.40593">
        <ele>157.6</ele>
        <time>2022-09-24T08:42:43Z</time>
      </trkpt>
      <trkpt lat="44.04203" lon="0.40601">
        <ele>157</ele>
        <time>2022-09-24T08:42:47Z</time>
      </trkpt>
      <trkpt lat="44.04203" lon="0.40608">
        <ele>156.6</ele>
        <time>2022-09-24T08:42:51Z</time>
      </trkpt>
      <trkpt lat="44.04202" lon="0.40615">
        <ele>156.3</ele>
        <time>2022-09-24T08:42:55Z</time>
      </trkpt>
      <trkpt lat="44.04201" lon="0.40622">
        <ele>156</ele>
        <time>2022-09-24T08:42:59Z</time>
      </trkpt>
      <trkpt lat="44.04202" lon="0.4063">
        <ele>155.6</ele>
        <time>2022-09-24T08:43:03Z</time>
      </trkpt>
      <trkpt lat="44.04201" lon="0.40638">
        <ele>155.3</ele>
        <time>2022-09-24T08:43:07Z</time>
      </trkpt>
      <trkpt lat="44.042" lon="0.40645">
        <ele>155.5</ele>
        <time>2022-09-24T08:43:11Z</time>
      </trkpt>
      <trkpt lat="44.04199" lon="0.40651">
        <ele>156</ele>
        <time>2022-09-24T08:43:15Z</time>
      </trkpt>
      <trkpt lat="44.04198" lon="0.40658">
        <ele>156.6</ele>
        <time>2022-09-24T08:43:19Z</time>
      </trkpt>
      <trkpt lat="44.04197" lon="0.40664">
        <ele>157.3</ele>
        <time>2022-09-24T08:43:23Z</time>
      </trkpt>
      <trkpt lat="44.04195" lon="0.4067">
        <ele>158.1</ele>
        <time>2022-09-24T08:43:26Z</time>
      </trkpt>
      <trkpt lat="44.04194" lon="0.40677">
        <ele>158.7</ele>
        <time>2022-09-24T08:43:29Z</time>
      </trkpt>
      <trkpt lat="44.04194" lon="0.40685">
        <ele>159.4</ele>
        <time>2022-09-24T08:43:33Z</time>
      </trkpt>
      <trkpt lat="44.04194" lon="0.40691">
        <ele>159.7</ele>
        <time>2022-09-24T08:43:37Z</time>
      </trkpt>
      <trkpt lat="44.04193" lon="0.40699">
        <ele>160.3</ele>
        <time>2022-09-24T08:43:42Z</time>
      </trkpt>
      <trkpt lat="44.04191" lon="0.40704">
        <ele>160.9</ele>
        <time>2022-09-24T08:43:51Z</time>
      </trkpt>
      <trkpt lat="44.04189" lon="0.4071">
        <ele>161.4</ele>
        <time>2022-09-24T08:44:00Z</time>
      </trkpt>
      <trkpt lat="44.04189" lon="0.40717">
        <ele>160.9</ele>
        <time>2022-09-24T08:44:06Z</time>
      </trkpt>
      <trkpt lat="44.04189" lon="0.40724">
        <ele>160.4</ele>
        <time>2022-09-24T08:44:12Z</time>
      </trkpt>
      <trkpt lat="44.04189" lon="0.40731">
        <ele>160.3</ele>
        <time>2022-09-24T08:44:17Z</time>
      </trkpt>
      <trkpt lat="44.04188" lon="0.40737">
        <ele>160.3</ele>
        <time>2022-09-24T08:44:22Z</time>
      </trkpt>
      <trkpt lat="44.04187" lon="0.40743">
        <ele>160.6</ele>
        <time>2022-09-24T08:44:27Z</time>
      </trkpt>
      <trkpt lat="44.04186" lon="0.4075">
        <ele>161.2</ele>
        <time>2022-09-24T08:44:31Z</time>
      </trkpt>
      <trkpt lat="44.04185" lon="0.40757">
        <ele>161.5</ele>
        <time>2022-09-24T08:44:35Z</time>
      </trkpt>
      <trkpt lat="44.04183" lon="0.40764">
        <ele>162.1</ele>
        <time>2022-09-24T08:44:39Z</time>
      </trkpt>
      <trkpt lat="44.04181" lon="0.40771">
        <ele>162.9</ele>
        <time>2022-09-24T08:44:43Z</time>
      </trkpt>
      <trkpt lat="44.0418" lon="0.40777">
        <ele>163.7</ele>
        <time>2022-09-24T08:44:47Z</time>
      </trkpt>
      <trkpt lat="44.04178" lon="0.40784">
        <ele>164.5</ele>
        <time>2022-09-24T08:44:51Z</time>
      </trkpt>
      <trkpt lat="44.04176" lon="0.40791">
        <ele>164.8</ele>
        <time>2022-09-24T08:44:56Z</time>
      </trkpt>
      <trkpt lat="44.04173" lon="0.40797">
        <ele>164.9</ele>
        <time>2022-09-24T08:45:00Z</time>
      </trkpt>
      <trkpt lat="44.04169" lon="0.40802">
        <ele>165</ele>
        <time>2022-09-24T08:45:04Z</time>
      </trkpt>
      <trkpt lat="44.04166" lon="0.40809">
        <ele>165.2</ele>
        <time>2022-09-24T08:45:08Z</time>
      </trkpt>
      <trkpt lat="44.04164" lon="0.40815">
        <ele>165.6</ele>
        <time>2022-09-24T08:45:11Z</time>
      </trkpt>
      <trkpt lat="44.04162" lon="0.40823">
        <ele>166.3</ele>
        <time>2022-09-24T08:45:15Z</time>
      </trkpt>
      <trkpt lat="44.04161" lon="0.40831">
        <ele>166.6</ele>
        <time>2022-09-24T08:45:19Z</time>
      </trkpt>
      <trkpt lat="44.04159" lon="0.40838">
        <ele>166.7</ele>
        <time>2022-09-24T08:45:23Z</time>
      </trkpt>
      <trkpt lat="44.04158" lon="0.40845">
        <ele>167.8</ele>
        <time>2022-09-24T08:45:28Z</time>
      </trkpt>
      <trkpt lat="44.04157" lon="0.40852">
        <ele>168.2</ele>
        <time>2022-09-24T08:45:32Z</time>
      </trkpt>
      <trkpt lat="44.04158" lon="0.40858">
        <ele>165.8</ele>
        <time>2022-09-24T08:45:40Z</time>
      </trkpt>
      <trkpt lat="44.04158" lon="0.40865">
        <ele>162.1</ele>
        <time>2022-09-24T08:50:03Z</time>
      </trkpt>
      <trkpt lat="44.04155" lon="0.4087">
        <ele>162.1</ele>
        <time>2022-09-24T08:50:09Z</time>
      </trkpt>
      <trkpt lat="44.04152" lon="0.40876">
        <ele>161.6</ele>
        <time>2022-09-24T08:50:14Z</time>
      </trkpt>
      <trkpt lat="44.04151" lon="0.40884">
        <ele>160.6</ele>
        <time>2022-09-24T08:50:19Z</time>
      </trkpt>
      <trkpt lat="44.0415" lon="0.40891">
        <ele>159.8</ele>
        <time>2022-09-24T08:50:24Z</time>
      </trkpt>
      <trkpt lat="44.04149" lon="0.40897">
        <ele>159.3</ele>
        <time>2022-09-24T08:50:28Z</time>
      </trkpt>
      <trkpt lat="44.04148" lon="0.40903">
        <ele>158.9</ele>
        <time>2022-09-24T08:50:32Z</time>
      </trkpt>
      <trkpt lat="44.04147" lon="0.4091">
        <ele>158.7</ele>
        <time>2022-09-24T08:50:36Z</time>
      </trkpt>
      <trkpt lat="44.04145" lon="0.40917">
        <ele>158.7</ele>
        <time>2022-09-24T08:50:40Z</time>
      </trkpt>
      <trkpt lat="44.04144" lon="0.40923">
        <ele>159.1</ele>
        <time>2022-09-24T08:50:44Z</time>
      </trkpt>
      <trkpt lat="44.04141" lon="0.40928">
        <ele>160.1</ele>
        <time>2022-09-24T08:50:48Z</time>
      </trkpt>
      <trkpt lat="44.04141" lon="0.40935">
        <ele>161</ele>
        <time>2022-09-24T08:50:52Z</time>
      </trkpt>
      <trkpt lat="44.04139" lon="0.40942">
        <ele>161.8</ele>
        <time>2022-09-24T08:50:56Z</time>
      </trkpt>
      <trkpt lat="44.04138" lon="0.40949">
        <ele>162.4</ele>
        <time>2022-09-24T08:51:00Z</time>
      </trkpt>
      <trkpt lat="44.04137" lon="0.40957">
        <ele>163.1</ele>
        <time>2022-09-24T08:51:05Z</time>
      </trkpt>
      <trkpt lat="44.04136" lon="0.40963">
        <ele>163.6</ele>
        <time>2022-09-24T08:51:09Z</time>
      </trkpt>
      <trkpt lat="44.04134" lon="0.40969">
        <ele>163.5</ele>
        <time>2022-09-24T08:51:13Z</time>
      </trkpt>
      <trkpt lat="44.04134" lon="0.40976">
        <ele>163.1</ele>
        <time>2022-09-24T08:51:17Z</time>
      </trkpt>
      <trkpt lat="44.04132" lon="0.40982">
        <ele>161.8</ele>
        <time>2022-09-24T08:51:22Z</time>
      </trkpt>
      <trkpt lat="44.0413" lon="0.40989">
        <ele>160.8</ele>
        <time>2022-09-24T08:51:26Z</time>
      </trkpt>
      <trkpt lat="44.0413" lon="0.40995">
        <ele>160.3</ele>
        <time>2022-09-24T08:51:30Z</time>
      </trkpt>
      <trkpt lat="44.0413" lon="0.41003">
        <ele>159.9</ele>
        <time>2022-09-24T08:51:34Z</time>
      </trkpt>
      <trkpt lat="44.0413" lon="0.41009">
        <ele>159.3</ele>
        <time>2022-09-24T08:51:38Z</time>
      </trkpt>
      <trkpt lat="44.04129" lon="0.41015">
        <ele>158.7</ele>
        <time>2022-09-24T08:51:42Z</time>
      </trkpt>
      <trkpt lat="44.04128" lon="0.41021">
        <ele>158.3</ele>
        <time>2022-09-24T08:51:46Z</time>
      </trkpt>
      <trkpt lat="44.04126" lon="0.41029">
        <ele>157.8</ele>
        <time>2022-09-24T08:51:50Z</time>
      </trkpt>
      <trkpt lat="44.04125" lon="0.41036">
        <ele>157.8</ele>
        <time>2022-09-24T08:51:54Z</time>
      </trkpt>
      <trkpt lat="44.04123" lon="0.41042">
        <ele>158</ele>
        <time>2022-09-24T08:51:57Z</time>
      </trkpt>
      <trkpt lat="44.04122" lon="0.41048">
        <ele>158.7</ele>
        <time>2022-09-24T08:52:00Z</time>
      </trkpt>
      <trkpt lat="44.04122" lon="0.41055">
        <ele>158.8</ele>
        <time>2022-09-24T08:52:04Z</time>
      </trkpt>
      <trkpt lat="44.0412" lon="0.41061">
        <ele>157.9</ele>
        <time>2022-09-24T08:52:08Z</time>
      </trkpt>
      <trkpt lat="44.04117" lon="0.41067">
        <ele>156.9</ele>
        <time>2022-09-24T08:52:12Z</time>
      </trkpt>
      <trkpt lat="44.04115" lon="0.41073">
        <ele>156.1</ele>
        <time>2022-09-24T08:52:16Z</time>
      </trkpt>
      <trkpt lat="44.04113" lon="0.4108">
        <ele>155.1</ele>
        <time>2022-09-24T08:52:20Z</time>
      </trkpt>
      <trkpt lat="44.04111" lon="0.41087">
        <ele>154.3</ele>
        <time>2022-09-24T08:52:24Z</time>
      </trkpt>
      <trkpt lat="44.04108" lon="0.41094">
        <ele>153.7</ele>
        <time>2022-09-24T08:52:30Z</time>
      </trkpt>
      <trkpt lat="44.04106" lon="0.41099">
        <ele>153.1</ele>
        <time>2022-09-24T08:52:34Z</time>
      </trkpt>
      <trkpt lat="44.04103" lon="0.41106">
        <ele>152.3</ele>
        <time>2022-09-24T08:52:38Z</time>
      </trkpt>
      <trkpt lat="44.04101" lon="0.41113">
        <ele>151.6</ele>
        <time>2022-09-24T08:52:43Z</time>
      </trkpt>
      <trkpt lat="44.04098" lon="0.41119">
        <ele>151.6</ele>
        <time>2022-09-24T08:52:47Z</time>
      </trkpt>
      <trkpt lat="44.04095" lon="0.41124">
        <ele>151.7</ele>
        <time>2022-09-24T08:52:50Z</time>
      </trkpt>
      <trkpt lat="44.04093" lon="0.41131">
        <ele>151.7</ele>
        <time>2022-09-24T08:52:55Z</time>
      </trkpt>
      <trkpt lat="44.04091" lon="0.41137">
        <ele>152.2</ele>
        <time>2022-09-24T08:52:59Z</time>
      </trkpt>
      <trkpt lat="44.04089" lon="0.41144">
        <ele>152.8</ele>
        <time>2022-09-24T08:53:03Z</time>
      </trkpt>
      <trkpt lat="44.04087" lon="0.41151">
        <ele>153.6</ele>
        <time>2022-09-24T08:53:07Z</time>
      </trkpt>
      <trkpt lat="44.04085" lon="0.41157">
        <ele>154.2</ele>
        <time>2022-09-24T08:53:11Z</time>
      </trkpt>
      <trkpt lat="44.04082" lon="0.41163">
        <ele>154.6</ele>
        <time>2022-09-24T08:53:15Z</time>
      </trkpt>
      <trkpt lat="44.0408" lon="0.41169">
        <ele>155</ele>
        <time>2022-09-24T08:53:18Z</time>
      </trkpt>
      <trkpt lat="44.04078" lon="0.41175">
        <ele>155.5</ele>
        <time>2022-09-24T08:53:21Z</time>
      </trkpt>
      <trkpt lat="44.04076" lon="0.41182">
        <ele>155.7</ele>
        <time>2022-09-24T08:53:24Z</time>
      </trkpt>
      <trkpt lat="44.04073" lon="0.41188">
        <ele>155.8</ele>
        <time>2022-09-24T08:53:29Z</time>
      </trkpt>
      <trkpt lat="44.0407" lon="0.41193">
        <ele>155.6</ele>
        <time>2022-09-24T08:53:34Z</time>
      </trkpt>
      <trkpt lat="44.04068" lon="0.41199">
        <ele>155.4</ele>
        <time>2022-09-24T08:53:38Z</time>
      </trkpt>
      <trkpt lat="44.04067" lon="0.41206">
        <ele>155.1</ele>
        <time>2022-09-24T08:53:42Z</time>
      </trkpt>
      <trkpt lat="44.04065" lon="0.41213">
        <ele>154.8</ele>
        <time>2022-09-24T08:53:46Z</time>
      </trkpt>
      <trkpt lat="44.04063" lon="0.41221">
        <ele>154.8</ele>
        <time>2022-09-24T08:53:50Z</time>
      </trkpt>
      <trkpt lat="44.0406" lon="0.41226">
        <ele>154.4</ele>
        <time>2022-09-24T08:53:54Z</time>
      </trkpt>
      <trkpt lat="44.04057" lon="0.41232">
        <ele>153.6</ele>
        <time>2022-09-24T08:53:58Z</time>
      </trkpt>
      <trkpt lat="44.04055" lon="0.41239">
        <ele>152.4</ele>
        <time>2022-09-24T08:54:03Z</time>
      </trkpt>
      <trkpt lat="44.04053" lon="0.41245">
        <ele>151.7</ele>
        <time>2022-09-24T08:54:07Z</time>
      </trkpt>
      <trkpt lat="44.04051" lon="0.41252">
        <ele>151.2</ele>
        <time>2022-09-24T08:54:11Z</time>
      </trkpt>
      <trkpt lat="44.04048" lon="0.41258">
        <ele>151.1</ele>
        <time>2022-09-24T08:54:15Z</time>
      </trkpt>
      <trkpt lat="44.04047" lon="0.41265">
        <ele>150.9</ele>
        <time>2022-09-24T08:54:18Z</time>
      </trkpt>
      <trkpt lat="44.04045" lon="0.41271">
        <ele>151.1</ele>
        <time>2022-09-24T08:54:21Z</time>
      </trkpt>
      <trkpt lat="44.04043" lon="0.41278">
        <ele>151.3</ele>
        <time>2022-09-24T08:54:25Z</time>
      </trkpt>
      <trkpt lat="44.04041" lon="0.41285">
        <ele>150.9</ele>
        <time>2022-09-24T08:54:30Z</time>
      </trkpt>
      <trkpt lat="44.04039" lon="0.4129">
        <ele>150.3</ele>
        <time>2022-09-24T08:54:35Z</time>
      </trkpt>
      <trkpt lat="44.04038" lon="0.41297">
        <ele>149.8</ele>
        <time>2022-09-24T08:54:39Z</time>
      </trkpt>
      <trkpt lat="44.04037" lon="0.41304">
        <ele>149.7</ele>
        <time>2022-09-24T08:54:43Z</time>
      </trkpt>
      <trkpt lat="44.04036" lon="0.4131">
        <ele>150.1</ele>
        <time>2022-09-24T08:54:46Z</time>
      </trkpt>
      <trkpt lat="44.04035" lon="0.41318">
        <ele>151.2</ele>
        <time>2022-09-24T08:54:50Z</time>
      </trkpt>
      <trkpt lat="44.04033" lon="0.41325">
        <ele>152.2</ele>
        <time>2022-09-24T08:54:54Z</time>
      </trkpt>
      <trkpt lat="44.04031" lon="0.41332">
        <ele>152.9</ele>
        <time>2022-09-24T08:54:58Z</time>
      </trkpt>
      <trkpt lat="44.0403" lon="0.41339">
        <ele>153.4</ele>
        <time>2022-09-24T08:55:02Z</time>
      </trkpt>
      <trkpt lat="44.0403" lon="0.41345">
        <ele>153.5</ele>
        <time>2022-09-24T08:55:06Z</time>
      </trkpt>
      <trkpt lat="44.04029" lon="0.41352">
        <ele>152.7</ele>
        <time>2022-09-24T08:55:11Z</time>
      </trkpt>
      <trkpt lat="44.04028" lon="0.4136">
        <ele>152.5</ele>
        <time>2022-09-24T08:55:16Z</time>
      </trkpt>
      <trkpt lat="44.04027" lon="0.41366">
        <ele>152.5</ele>
        <time>2022-09-24T08:55:20Z</time>
      </trkpt>
      <trkpt lat="44.04027" lon="0.41374">
        <ele>152.4</ele>
        <time>2022-09-24T08:55:24Z</time>
      </trkpt>
      <trkpt lat="44.04026" lon="0.4138">
        <ele>152.1</ele>
        <time>2022-09-24T08:55:28Z</time>
      </trkpt>
      <trkpt lat="44.04024" lon="0.41387">
        <ele>151.6</ele>
        <time>2022-09-24T08:55:32Z</time>
      </trkpt>
      <trkpt lat="44.04021" lon="0.41391">
        <ele>151.5</ele>
        <time>2022-09-24T08:55:37Z</time>
      </trkpt>
      <trkpt lat="44.04016" lon="0.4139">
        <ele>151.6</ele>
        <time>2022-09-24T08:55:42Z</time>
      </trkpt>
      <trkpt lat="44.04012" lon="0.41387">
        <ele>151.6</ele>
        <time>2022-09-24T08:55:47Z</time>
      </trkpt>
      <trkpt lat="44.04007" lon="0.41383">
        <ele>151.8</ele>
        <time>2022-09-24T08:55:52Z</time>
      </trkpt>
      <trkpt lat="44.04003" lon="0.4138">
        <ele>151.7</ele>
        <time>2022-09-24T08:55:56Z</time>
      </trkpt>
      <trkpt lat="44.03999" lon="0.41375">
        <ele>151.4</ele>
        <time>2022-09-24T08:56:00Z</time>
      </trkpt>
      <trkpt lat="44.03994" lon="0.41372">
        <ele>150.5</ele>
        <time>2022-09-24T08:56:04Z</time>
      </trkpt>
      <trkpt lat="44.03989" lon="0.41369">
        <ele>149.5</ele>
        <time>2022-09-24T08:56:08Z</time>
      </trkpt>
      <trkpt lat="44.03985" lon="0.41365">
        <ele>148.6</ele>
        <time>2022-09-24T08:56:12Z</time>
      </trkpt>
      <trkpt lat="44.03981" lon="0.41362">
        <ele>147.8</ele>
        <time>2022-09-24T08:56:16Z</time>
      </trkpt>
      <trkpt lat="44.03976" lon="0.41359">
        <ele>146.9</ele>
        <time>2022-09-24T08:56:21Z</time>
      </trkpt>
      <trkpt lat="44.03972" lon="0.41356">
        <ele>146.2</ele>
        <time>2022-09-24T08:56:25Z</time>
      </trkpt>
      <trkpt lat="44.03967" lon="0.41354">
        <ele>145.8</ele>
        <time>2022-09-24T08:56:29Z</time>
      </trkpt>
      <trkpt lat="44.03962" lon="0.41351">
        <ele>146</ele>
        <time>2022-09-24T08:56:33Z</time>
      </trkpt>
      <trkpt lat="44.03958" lon="0.41348">
        <ele>146.5</ele>
        <time>2022-09-24T08:56:37Z</time>
      </trkpt>
      <trkpt lat="44.03954" lon="0.41344">
        <ele>146.9</ele>
        <time>2022-09-24T08:56:41Z</time>
      </trkpt>
      <trkpt lat="44.03949" lon="0.4134">
        <ele>147.4</ele>
        <time>2022-09-24T08:56:45Z</time>
      </trkpt>
      <trkpt lat="44.03945" lon="0.41337">
        <ele>148.3</ele>
        <time>2022-09-24T08:56:49Z</time>
      </trkpt>
      <trkpt lat="44.0394" lon="0.41334">
        <ele>148.9</ele>
        <time>2022-09-24T08:56:53Z</time>
      </trkpt>
      <trkpt lat="44.03935" lon="0.41332">
        <ele>149.6</ele>
        <time>2022-09-24T08:56:57Z</time>
      </trkpt>
      <trkpt lat="44.03931" lon="0.41329">
        <ele>149.9</ele>
        <time>2022-09-24T08:57:01Z</time>
      </trkpt>
      <trkpt lat="44.03926" lon="0.41327">
        <ele>150.5</ele>
        <time>2022-09-24T08:57:06Z</time>
      </trkpt>
      <trkpt lat="44.03921" lon="0.41324">
        <ele>150.7</ele>
        <time>2022-09-24T08:57:10Z</time>
      </trkpt>
      <trkpt lat="44.03916" lon="0.41323">
        <ele>150.4</ele>
        <time>2022-09-24T08:57:14Z</time>
      </trkpt>
      <trkpt lat="44.03911" lon="0.41323">
        <ele>150.4</ele>
        <time>2022-09-24T08:57:18Z</time>
      </trkpt>
      <trkpt lat="44.03906" lon="0.41322">
        <ele>150.3</ele>
        <time>2022-09-24T08:57:23Z</time>
      </trkpt>
      <trkpt lat="44.03901" lon="0.41322">
        <ele>150.2</ele>
        <time>2022-09-24T08:57:27Z</time>
      </trkpt>
      <trkpt lat="44.03896" lon="0.41321">
        <ele>149.8</ele>
        <time>2022-09-24T08:57:31Z</time>
      </trkpt>
      <trkpt lat="44.03891" lon="0.4132">
        <ele>149.2</ele>
        <time>2022-09-24T08:57:36Z</time>
      </trkpt>
      <trkpt lat="44.03886" lon="0.41318">
        <ele>148.6</ele>
        <time>2022-09-24T08:57:41Z</time>
      </trkpt>
      <trkpt lat="44.0388" lon="0.41316">
        <ele>148.1</ele>
        <time>2022-09-24T08:57:45Z</time>
      </trkpt>
      <trkpt lat="44.03875" lon="0.41314">
        <ele>147.7</ele>
        <time>2022-09-24T08:57:49Z</time>
      </trkpt>
      <trkpt lat="44.0387" lon="0.41314">
        <ele>147.5</ele>
        <time>2022-09-24T08:57:54Z</time>
      </trkpt>
      <trkpt lat="44.03865" lon="0.41313">
        <ele>147.5</ele>
        <time>2022-09-24T08:57:58Z</time>
      </trkpt>
      <trkpt lat="44.03859" lon="0.41313">
        <ele>147.5</ele>
        <time>2022-09-24T08:58:02Z</time>
      </trkpt>
      <trkpt lat="44.03854" lon="0.41312">
        <ele>147.8</ele>
        <time>2022-09-24T08:58:07Z</time>
      </trkpt>
      <trkpt lat="44.03849" lon="0.4131">
        <ele>148.2</ele>
        <time>2022-09-24T08:58:11Z</time>
      </trkpt>
      <trkpt lat="44.03844" lon="0.4131">
        <ele>148.4</ele>
        <time>2022-09-24T08:58:15Z</time>
      </trkpt>
      <trkpt lat="44.03838" lon="0.4131">
        <ele>148.8</ele>
        <time>2022-09-24T08:58:19Z</time>
      </trkpt>
      <trkpt lat="44.03834" lon="0.4131">
        <ele>149.2</ele>
        <time>2022-09-24T08:58:23Z</time>
      </trkpt>
      <trkpt lat="44.03829" lon="0.41309">
        <ele>149.4</ele>
        <time>2022-09-24T08:58:27Z</time>
      </trkpt>
      <trkpt lat="44.03824" lon="0.41309">
        <ele>149.1</ele>
        <time>2022-09-24T08:58:31Z</time>
      </trkpt>
      <trkpt lat="44.03818" lon="0.41308">
        <ele>148.3</ele>
        <time>2022-09-24T08:58:36Z</time>
      </trkpt>
      <trkpt lat="44.03814" lon="0.41308">
        <ele>147.6</ele>
        <time>2022-09-24T08:58:40Z</time>
      </trkpt>
      <trkpt lat="44.03809" lon="0.41306">
        <ele>146.9</ele>
        <time>2022-09-24T08:58:44Z</time>
      </trkpt>
      <trkpt lat="44.03804" lon="0.41305">
        <ele>146.5</ele>
        <time>2022-09-24T08:58:48Z</time>
      </trkpt>
      <trkpt lat="44.038" lon="0.41303">
        <ele>146.2</ele>
        <time>2022-09-24T08:58:52Z</time>
      </trkpt>
      <trkpt lat="44.03795" lon="0.41301">
        <ele>146.1</ele>
        <time>2022-09-24T08:58:56Z</time>
      </trkpt>
      <trkpt lat="44.0379" lon="0.41302">
        <ele>146</ele>
        <time>2022-09-24T08:58:59Z</time>
      </trkpt>
      <trkpt lat="44.03785" lon="0.41302">
        <ele>145.8</ele>
        <time>2022-09-24T08:59:03Z</time>
      </trkpt>
      <trkpt lat="44.0378" lon="0.41302">
        <ele>145.8</ele>
        <time>2022-09-24T08:59:07Z</time>
      </trkpt>
      <trkpt lat="44.03775" lon="0.41301">
        <ele>145.6</ele>
        <time>2022-09-24T08:59:11Z</time>
      </trkpt>
      <trkpt lat="44.0377" lon="0.413">
        <ele>145.1</ele>
        <time>2022-09-24T08:59:16Z</time>
      </trkpt>
      <trkpt lat="44.03765" lon="0.41297">
        <ele>144.8</ele>
        <time>2022-09-24T08:59:21Z</time>
      </trkpt>
      <trkpt lat="44.03761" lon="0.41293">
        <ele>144</ele>
        <time>2022-09-24T08:59:26Z</time>
      </trkpt>
      <trkpt lat="44.0376" lon="0.41285">
        <ele>143.1</ele>
        <time>2022-09-24T08:59:31Z</time>
      </trkpt>
      <trkpt lat="44.0376" lon="0.41278">
        <ele>142.4</ele>
        <time>2022-09-24T08:59:36Z</time>
      </trkpt>
      <trkpt lat="44.03758" lon="0.41273">
        <ele>141.9</ele>
        <time>2022-09-24T08:59:41Z</time>
      </trkpt>
      <trkpt lat="44.03754" lon="0.41269">
        <ele>141.7</ele>
        <time>2022-09-24T08:59:46Z</time>
      </trkpt>
      <trkpt lat="44.0375" lon="0.41264">
        <ele>142.7</ele>
        <time>2022-09-24T08:59:57Z</time>
      </trkpt>
      <trkpt lat="44.03746" lon="0.41262">
        <ele>146.2</ele>
        <time>2022-09-24T09:05:19Z</time>
      </trkpt>
      <trkpt lat="44.03741" lon="0.41263">
        <ele>145.8</ele>
        <time>2022-09-24T09:05:45Z</time>
      </trkpt>
      <trkpt lat="44.03736" lon="0.41264">
        <ele>145.1</ele>
        <time>2022-09-24T09:05:50Z</time>
      </trkpt>
      <trkpt lat="44.03731" lon="0.41263">
        <ele>144.4</ele>
        <time>2022-09-24T09:05:55Z</time>
      </trkpt>
      <trkpt lat="44.03726" lon="0.41261">
        <ele>143.9</ele>
        <time>2022-09-24T09:05:59Z</time>
      </trkpt>
      <trkpt lat="44.03722" lon="0.41261">
        <ele>143.6</ele>
        <time>2022-09-24T09:06:03Z</time>
      </trkpt>
      <trkpt lat="44.03716" lon="0.41262">
        <ele>143.6</ele>
        <time>2022-09-24T09:06:08Z</time>
      </trkpt>
      <trkpt lat="44.03711" lon="0.41262">
        <ele>143.6</ele>
        <time>2022-09-24T09:06:12Z</time>
      </trkpt>
      <trkpt lat="44.03706" lon="0.41261">
        <ele>143.2</ele>
        <time>2022-09-24T09:06:17Z</time>
      </trkpt>
      <trkpt lat="44.03701" lon="0.41259">
        <ele>143.2</ele>
        <time>2022-09-24T09:06:23Z</time>
      </trkpt>
      <trkpt lat="44.03697" lon="0.41259">
        <ele>143.3</ele>
        <time>2022-09-24T09:06:27Z</time>
      </trkpt>
      <trkpt lat="44.03692" lon="0.41259">
        <ele>143.3</ele>
        <time>2022-09-24T09:06:31Z</time>
      </trkpt>
      <trkpt lat="44.03688" lon="0.41258">
        <ele>143.2</ele>
        <time>2022-09-24T09:06:35Z</time>
      </trkpt>
      <trkpt lat="44.03683" lon="0.41257">
        <ele>142.8</ele>
        <time>2022-09-24T09:06:40Z</time>
      </trkpt>
      <trkpt lat="44.03678" lon="0.41256">
        <ele>142.1</ele>
        <time>2022-09-24T09:06:44Z</time>
      </trkpt>
      <trkpt lat="44.03673" lon="0.41254">
        <ele>141.8</ele>
        <time>2022-09-24T09:06:50Z</time>
      </trkpt>
      <trkpt lat="44.03667" lon="0.41253">
        <ele>142</ele>
        <time>2022-09-24T09:06:56Z</time>
      </trkpt>
      <trkpt lat="44.03664" lon="0.41249">
        <ele>142.5</ele>
        <time>2022-09-24T09:07:02Z</time>
      </trkpt>
      <trkpt lat="44.03664" lon="0.41242">
        <ele>142.8</ele>
        <time>2022-09-24T09:07:08Z</time>
      </trkpt>
      <trkpt lat="44.03663" lon="0.41235">
        <ele>142.7</ele>
        <time>2022-09-24T09:07:13Z</time>
      </trkpt>
      <trkpt lat="44.03663" lon="0.41228">
        <ele>142.7</ele>
        <time>2022-09-24T09:07:18Z</time>
      </trkpt>
      <trkpt lat="44.03663" lon="0.41221">
        <ele>143.4</ele>
        <time>2022-09-24T09:07:22Z</time>
      </trkpt>
      <trkpt lat="44.03663" lon="0.41214">
        <ele>144.2</ele>
        <time>2022-09-24T09:07:26Z</time>
      </trkpt>
      <trkpt lat="44.03664" lon="0.41207">
        <ele>145.4</ele>
        <time>2022-09-24T09:07:31Z</time>
      </trkpt>
      <trkpt lat="44.03663" lon="0.412">
        <ele>145.3</ele>
        <time>2022-09-24T09:07:36Z</time>
      </trkpt>
      <trkpt lat="44.03661" lon="0.41193">
        <ele>144.1</ele>
        <time>2022-09-24T09:07:41Z</time>
      </trkpt>
      <trkpt lat="44.0366" lon="0.41187">
        <ele>142.9</ele>
        <time>2022-09-24T09:07:46Z</time>
      </trkpt>
      <trkpt lat="44.03659" lon="0.41181">
        <ele>141.1</ele>
        <time>2022-09-24T09:07:51Z</time>
      </trkpt>
      <trkpt lat="44.03656" lon="0.41175">
        <ele>139.3</ele>
        <time>2022-09-24T09:07:56Z</time>
      </trkpt>
      <trkpt lat="44.03654" lon="0.41169">
        <ele>138.2</ele>
        <time>2022-09-24T09:08:01Z</time>
      </trkpt>
      <trkpt lat="44.03651" lon="0.41163">
        <ele>137.6</ele>
        <time>2022-09-24T09:08:06Z</time>
      </trkpt>
      <trkpt lat="44.03648" lon="0.41158">
        <ele>137.3</ele>
        <time>2022-09-24T09:08:10Z</time>
      </trkpt>
      <trkpt lat="44.03645" lon="0.41152">
        <ele>137.3</ele>
        <time>2022-09-24T09:08:14Z</time>
      </trkpt>
      <trkpt lat="44.03644" lon="0.41145">
        <ele>137.5</ele>
        <time>2022-09-24T09:08:18Z</time>
      </trkpt>
      <trkpt lat="44.03643" lon="0.41138">
        <ele>138</ele>
        <time>2022-09-24T09:08:22Z</time>
      </trkpt>
      <trkpt lat="44.03641" lon="0.41132">
        <ele>138.3</ele>
        <time>2022-09-24T09:08:26Z</time>
      </trkpt>
      <trkpt lat="44.0364" lon="0.41125">
        <ele>138.3</ele>
        <time>2022-09-24T09:08:31Z</time>
      </trkpt>
      <trkpt lat="44.03638" lon="0.41119">
        <ele>138.5</ele>
        <time>2022-09-24T09:08:35Z</time>
      </trkpt>
      <trkpt lat="44.03635" lon="0.41113">
        <ele>138.7</ele>
        <time>2022-09-24T09:08:40Z</time>
      </trkpt>
      <trkpt lat="44.03634" lon="0.41106">
        <ele>138.5</ele>
        <time>2022-09-24T09:08:46Z</time>
      </trkpt>
      <trkpt lat="44.03633" lon="0.41099">
        <ele>138.1</ele>
        <time>2022-09-24T09:08:50Z</time>
      </trkpt>
      <trkpt lat="44.0363" lon="0.41094">
        <ele>137.6</ele>
        <time>2022-09-24T09:08:54Z</time>
      </trkpt>
      <trkpt lat="44.03626" lon="0.4109">
        <ele>136.9</ele>
        <time>2022-09-24T09:08:58Z</time>
      </trkpt>
      <trkpt lat="44.03624" lon="0.41084">
        <ele>136.6</ele>
        <time>2022-09-24T09:09:02Z</time>
      </trkpt>
      <trkpt lat="44.03624" lon="0.41076">
        <ele>136.9</ele>
        <time>2022-09-24T09:09:06Z</time>
      </trkpt>
      <trkpt lat="44.03626" lon="0.4107">
        <ele>137.3</ele>
        <time>2022-09-24T09:09:10Z</time>
      </trkpt>
      <trkpt lat="44.03627" lon="0.41063">
        <ele>137.4</ele>
        <time>2022-09-24T09:09:14Z</time>
      </trkpt>
      <trkpt lat="44.03629" lon="0.41056">
        <ele>137.7</ele>
        <time>2022-09-24T09:09:18Z</time>
      </trkpt>
      <trkpt lat="44.03629" lon="0.41048">
        <ele>138.1</ele>
        <time>2022-09-24T09:09:23Z</time>
      </trkpt>
      <trkpt lat="44.03631" lon="0.41041">
        <ele>138.1</ele>
        <time>2022-09-24T09:09:27Z</time>
      </trkpt>
      <trkpt lat="44.03633" lon="0.41034">
        <ele>138</ele>
        <time>2022-09-24T09:09:31Z</time>
      </trkpt>
      <trkpt lat="44.03632" lon="0.41027">
        <ele>137.6</ele>
        <time>2022-09-24T09:09:35Z</time>
      </trkpt>
      <trkpt lat="44.0363" lon="0.41022">
        <ele>137.2</ele>
        <time>2022-09-24T09:09:39Z</time>
      </trkpt>
      <trkpt lat="44.03626" lon="0.41017">
        <ele>137</ele>
        <time>2022-09-24T09:09:43Z</time>
      </trkpt>
      <trkpt lat="44.03623" lon="0.41011">
        <ele>136.6</ele>
        <time>2022-09-24T09:09:47Z</time>
      </trkpt>
      <trkpt lat="44.03621" lon="0.41006">
        <ele>135.9</ele>
        <time>2022-09-24T09:09:51Z</time>
      </trkpt>
      <trkpt lat="44.03618" lon="0.41001">
        <ele>134.9</ele>
        <time>2022-09-24T09:09:55Z</time>
      </trkpt>
      <trkpt lat="44.03614" lon="0.40997">
        <ele>133.8</ele>
        <time>2022-09-24T09:09:59Z</time>
      </trkpt>
      <trkpt lat="44.0361" lon="0.40992">
        <ele>132.6</ele>
        <time>2022-09-24T09:10:04Z</time>
      </trkpt>
      <trkpt lat="44.03606" lon="0.40987">
        <ele>131.6</ele>
        <time>2022-09-24T09:10:09Z</time>
      </trkpt>
      <trkpt lat="44.03602" lon="0.40982">
        <ele>130.4</ele>
        <time>2022-09-24T09:10:19Z</time>
      </trkpt>
      <trkpt lat="44.03599" lon="0.40977">
        <ele>129.8</ele>
        <time>2022-09-24T09:10:23Z</time>
      </trkpt>
      <trkpt lat="44.03596" lon="0.40971">
        <ele>128.6</ele>
        <time>2022-09-24T09:10:28Z</time>
      </trkpt>
      <trkpt lat="44.03592" lon="0.40966">
        <ele>127.7</ele>
        <time>2022-09-24T09:10:32Z</time>
      </trkpt>
      <trkpt lat="44.03588" lon="0.40961">
        <ele>127.4</ele>
        <time>2022-09-24T09:10:36Z</time>
      </trkpt>
      <trkpt lat="44.03584" lon="0.40956">
        <ele>127.5</ele>
        <time>2022-09-24T09:10:40Z</time>
      </trkpt>
      <trkpt lat="44.0358" lon="0.40952">
        <ele>127.1</ele>
        <time>2022-09-24T09:10:44Z</time>
      </trkpt>
      <trkpt lat="44.03576" lon="0.40948">
        <ele>126.6</ele>
        <time>2022-09-24T09:10:48Z</time>
      </trkpt>
      <trkpt lat="44.03573" lon="0.40943">
        <ele>125.8</ele>
        <time>2022-09-24T09:10:52Z</time>
      </trkpt>
      <trkpt lat="44.0357" lon="0.40938">
        <ele>124.9</ele>
        <time>2022-09-24T09:10:56Z</time>
      </trkpt>
      <trkpt lat="44.03567" lon="0.40933">
        <ele>123.5</ele>
        <time>2022-09-24T09:11:01Z</time>
      </trkpt>
      <trkpt lat="44.03563" lon="0.40929">
        <ele>122.8</ele>
        <time>2022-09-24T09:11:05Z</time>
      </trkpt>
      <trkpt lat="44.03559" lon="0.40923">
        <ele>122.2</ele>
        <time>2022-09-24T09:11:10Z</time>
      </trkpt>
      <trkpt lat="44.03556" lon="0.40918">
        <ele>122</ele>
        <time>2022-09-24T09:11:14Z</time>
      </trkpt>
      <trkpt lat="44.03552" lon="0.40913">
        <ele>122</ele>
        <time>2022-09-24T09:11:18Z</time>
      </trkpt>
      <trkpt lat="44.03548" lon="0.40908">
        <ele>122</ele>
        <time>2022-09-24T09:11:22Z</time>
      </trkpt>
      <trkpt lat="44.03544" lon="0.40903">
        <ele>121.4</ele>
        <time>2022-09-24T09:11:27Z</time>
      </trkpt>
      <trkpt lat="44.03541" lon="0.40898">
        <ele>120.7</ele>
        <time>2022-09-24T09:11:31Z</time>
      </trkpt>
      <trkpt lat="44.03537" lon="0.40894">
        <ele>120.1</ele>
        <time>2022-09-24T09:11:35Z</time>
      </trkpt>
      <trkpt lat="44.03534" lon="0.40889">
        <ele>119.2</ele>
        <time>2022-09-24T09:11:39Z</time>
      </trkpt>
      <trkpt lat="44.03529" lon="0.40884">
        <ele>118.4</ele>
        <time>2022-09-24T09:11:43Z</time>
      </trkpt>
      <trkpt lat="44.03526" lon="0.40879">
        <ele>117.6</ele>
        <time>2022-09-24T09:11:47Z</time>
      </trkpt>
      <trkpt lat="44.03523" lon="0.40875">
        <ele>116.7</ele>
        <time>2022-09-24T09:11:51Z</time>
      </trkpt>
      <trkpt lat="44.03519" lon="0.40869">
        <ele>115.7</ele>
        <time>2022-09-24T09:11:56Z</time>
      </trkpt>
      <trkpt lat="44.03516" lon="0.40863">
        <ele>114.9</ele>
        <time>2022-09-24T09:12:01Z</time>
      </trkpt>
      <trkpt lat="44.03512" lon="0.40858">
        <ele>114.3</ele>
        <time>2022-09-24T09:12:05Z</time>
      </trkpt>
      <trkpt lat="44.03508" lon="0.40854">
        <ele>114</ele>
        <time>2022-09-24T09:12:09Z</time>
      </trkpt>
      <trkpt lat="44.03504" lon="0.40849">
        <ele>113.7</ele>
        <time>2022-09-24T09:12:13Z</time>
      </trkpt>
      <trkpt lat="44.03501" lon="0.40845">
        <ele>112.8</ele>
        <time>2022-09-24T09:12:17Z</time>
      </trkpt>
      <trkpt lat="44.03498" lon="0.4084">
        <ele>112.1</ele>
        <time>2022-09-24T09:12:21Z</time>
      </trkpt>
      <trkpt lat="44.03494" lon="0.40834">
        <ele>111.2</ele>
        <time>2022-09-24T09:12:26Z</time>
      </trkpt>
      <trkpt lat="44.03491" lon="0.40829">
        <ele>110.3</ele>
        <time>2022-09-24T09:12:30Z</time>
      </trkpt>
      <trkpt lat="44.03487" lon="0.40825">
        <ele>109.5</ele>
        <time>2022-09-24T09:12:34Z</time>
      </trkpt>
      <trkpt lat="44.03484" lon="0.40819">
        <ele>108.9</ele>
        <time>2022-09-24T09:12:39Z</time>
      </trkpt>
      <trkpt lat="44.03482" lon="0.40813">
        <ele>108.7</ele>
        <time>2022-09-24T09:12:44Z</time>
      </trkpt>
      <trkpt lat="44.03483" lon="0.40807">
        <ele>108.9</ele>
        <time>2022-09-24T09:12:50Z</time>
      </trkpt>
      <trkpt lat="44.03486" lon="0.40801">
        <ele>109</ele>
        <time>2022-09-24T09:12:55Z</time>
      </trkpt>
      <trkpt lat="44.03489" lon="0.40796">
        <ele>109.3</ele>
        <time>2022-09-24T09:12:59Z</time>
      </trkpt>
      <trkpt lat="44.03492" lon="0.40789">
        <ele>110</ele>
        <time>2022-09-24T09:13:03Z</time>
      </trkpt>
      <trkpt lat="44.03494" lon="0.40784">
        <ele>110.6</ele>
        <time>2022-09-24T09:13:07Z</time>
      </trkpt>
      <trkpt lat="44.03496" lon="0.40778">
        <ele>111.2</ele>
        <time>2022-09-24T09:13:11Z</time>
      </trkpt>
      <trkpt lat="44.03498" lon="0.40771">
        <ele>111.9</ele>
        <time>2022-09-24T09:13:16Z</time>
      </trkpt>
      <trkpt lat="44.035" lon="0.40765">
        <ele>113.1</ele>
        <time>2022-09-24T09:13:22Z</time>
      </trkpt>
      <trkpt lat="44.03503" lon="0.40759">
        <ele>114.1</ele>
        <time>2022-09-24T09:13:27Z</time>
      </trkpt>
      <trkpt lat="44.03506" lon="0.40753">
        <ele>115.3</ele>
        <time>2022-09-24T09:13:31Z</time>
      </trkpt>
      <trkpt lat="44.03508" lon="0.40748">
        <ele>116.5</ele>
        <time>2022-09-24T09:13:36Z</time>
      </trkpt>
      <trkpt lat="44.03511" lon="0.40743">
        <ele>116.8</ele>
        <time>2022-09-24T09:13:40Z</time>
      </trkpt>
      <trkpt lat="44.03514" lon="0.40737">
        <ele>116.7</ele>
        <time>2022-09-24T09:13:44Z</time>
      </trkpt>
      <trkpt lat="44.03517" lon="0.40731">
        <ele>116.6</ele>
        <time>2022-09-24T09:13:48Z</time>
      </trkpt>
      <trkpt lat="44.03519" lon="0.40726">
        <ele>115.9</ele>
        <time>2022-09-24T09:13:53Z</time>
      </trkpt>
      <trkpt lat="44.03522" lon="0.40721">
        <ele>115.1</ele>
        <time>2022-09-24T09:13:58Z</time>
      </trkpt>
      <trkpt lat="44.03526" lon="0.40714">
        <ele>114.5</ele>
        <time>2022-09-24T09:14:04Z</time>
      </trkpt>
      <trkpt lat="44.03529" lon="0.40708">
        <ele>114.6</ele>
        <time>2022-09-24T09:14:09Z</time>
      </trkpt>
      <trkpt lat="44.03532" lon="0.40703">
        <ele>114.4</ele>
        <time>2022-09-24T09:14:15Z</time>
      </trkpt>
      <trkpt lat="44.03534" lon="0.40696">
        <ele>114</ele>
        <time>2022-09-24T09:14:21Z</time>
      </trkpt>
      <trkpt lat="44.03538" lon="0.40691">
        <ele>113.3</ele>
        <time>2022-09-24T09:14:26Z</time>
      </trkpt>
      <trkpt lat="44.03541" lon="0.40686">
        <ele>112.9</ele>
        <time>2022-09-24T09:14:30Z</time>
      </trkpt>
      <trkpt lat="44.03545" lon="0.4068">
        <ele>112.1</ele>
        <time>2022-09-24T09:14:34Z</time>
      </trkpt>
      <trkpt lat="44.03547" lon="0.40675">
        <ele>111.5</ele>
        <time>2022-09-24T09:14:38Z</time>
      </trkpt>
      <trkpt lat="44.03551" lon="0.40669">
        <ele>110.6</ele>
        <time>2022-09-24T09:14:43Z</time>
      </trkpt>
      <trkpt lat="44.03554" lon="0.40664">
        <ele>109.8</ele>
        <time>2022-09-24T09:14:47Z</time>
      </trkpt>
      <trkpt lat="44.03557" lon="0.40658">
        <ele>109</ele>
        <time>2022-09-24T09:14:51Z</time>
      </trkpt>
      <trkpt lat="44.03559" lon="0.40652">
        <ele>109.3</ele>
        <time>2022-09-24T09:14:57Z</time>
      </trkpt>
      <trkpt lat="44.03563" lon="0.40648">
        <ele>109.4</ele>
        <time>2022-09-24T09:15:02Z</time>
      </trkpt>
      <trkpt lat="44.03563" lon="0.4064">
        <ele>108.5</ele>
        <time>2022-09-24T09:15:07Z</time>
      </trkpt>
      <trkpt lat="44.03564" lon="0.40634">
        <ele>107.7</ele>
        <time>2022-09-24T09:15:12Z</time>
      </trkpt>
      <trkpt lat="44.03563" lon="0.40627">
        <ele>106.7</ele>
        <time>2022-09-24T09:15:16Z</time>
      </trkpt>
      <trkpt lat="44.03562" lon="0.4062">
        <ele>105.8</ele>
        <time>2022-09-24T09:15:20Z</time>
      </trkpt>
      <trkpt lat="44.0356" lon="0.40613">
        <ele>105.2</ele>
        <time>2022-09-24T09:15:25Z</time>
      </trkpt>
      <trkpt lat="44.03559" lon="0.40607">
        <ele>104.9</ele>
        <time>2022-09-24T09:15:29Z</time>
      </trkpt>
      <trkpt lat="44.03557" lon="0.406">
        <ele>104.4</ele>
        <time>2022-09-24T09:15:32Z</time>
      </trkpt>
      <trkpt lat="44.03557" lon="0.40594">
        <ele>104.1</ele>
        <time>2022-09-24T09:15:36Z</time>
      </trkpt>
      <trkpt lat="44.03555" lon="0.40586">
        <ele>104.2</ele>
        <time>2022-09-24T09:15:41Z</time>
      </trkpt>
      <trkpt lat="44.03553" lon="0.4058">
        <ele>103.7</ele>
        <time>2022-09-24T09:15:45Z</time>
      </trkpt>
      <trkpt lat="44.03548" lon="0.40575">
        <ele>102.5</ele>
        <time>2022-09-24T09:15:50Z</time>
      </trkpt>
      <trkpt lat="44.03546" lon="0.4057">
        <ele>101.9</ele>
        <time>2022-09-24T09:15:53Z</time>
      </trkpt>
      <trkpt lat="44.03542" lon="0.40564">
        <ele>101.7</ele>
        <time>2022-09-24T09:15:57Z</time>
      </trkpt>
      <trkpt lat="44.03538" lon="0.40559">
        <ele>101.5</ele>
        <time>2022-09-24T09:16:01Z</time>
      </trkpt>
      <trkpt lat="44.03534" lon="0.40555">
        <ele>101.7</ele>
        <time>2022-09-24T09:16:05Z</time>
      </trkpt>
      <trkpt lat="44.0353" lon="0.4055">
        <ele>102.1</ele>
        <time>2022-09-24T09:16:10Z</time>
      </trkpt>
      <trkpt lat="44.03527" lon="0.40545">
        <ele>102.3</ele>
        <time>2022-09-24T09:16:15Z</time>
      </trkpt>
      <trkpt lat="44.03525" lon="0.40539">
        <ele>102.7</ele>
        <time>2022-09-24T09:16:19Z</time>
      </trkpt>
      <trkpt lat="44.03523" lon="0.40532">
        <ele>102.5</ele>
        <time>2022-09-24T09:16:23Z</time>
      </trkpt>
      <trkpt lat="44.0352" lon="0.40526">
        <ele>101.9</ele>
        <time>2022-09-24T09:16:27Z</time>
      </trkpt>
      <trkpt lat="44.03517" lon="0.4052">
        <ele>101.9</ele>
        <time>2022-09-24T09:16:32Z</time>
      </trkpt>
      <trkpt lat="44.03513" lon="0.40515">
        <ele>102.5</ele>
        <time>2022-09-24T09:16:37Z</time>
      </trkpt>
      <trkpt lat="44.03509" lon="0.4051">
        <ele>102.4</ele>
        <time>2022-09-24T09:16:42Z</time>
      </trkpt>
      <trkpt lat="44.03505" lon="0.40506">
        <ele>102.2</ele>
        <time>2022-09-24T09:16:47Z</time>
      </trkpt>
      <trkpt lat="44.03501" lon="0.40502">
        <ele>102.1</ele>
        <time>2022-09-24T09:16:51Z</time>
      </trkpt>
      <trkpt lat="44.03498" lon="0.40496">
        <ele>102</ele>
        <time>2022-09-24T09:16:56Z</time>
      </trkpt>
      <trkpt lat="44.03496" lon="0.4049">
        <ele>101.6</ele>
        <time>2022-09-24T09:17:01Z</time>
      </trkpt>
      <trkpt lat="44.03493" lon="0.40485">
        <ele>101.1</ele>
        <time>2022-09-24T09:17:05Z</time>
      </trkpt>
      <trkpt lat="44.03489" lon="0.4048">
        <ele>100.6</ele>
        <time>2022-09-24T09:17:09Z</time>
      </trkpt>
      <trkpt lat="44.03485" lon="0.40475">
        <ele>99.9</ele>
        <time>2022-09-24T09:17:13Z</time>
      </trkpt>
      <trkpt lat="44.03481" lon="0.4047">
        <ele>98.9</ele>
        <time>2022-09-24T09:17:18Z</time>
      </trkpt>
      <trkpt lat="44.03479" lon="0.40464">
        <ele>97.7</ele>
        <time>2022-09-24T09:17:23Z</time>
      </trkpt>
      <trkpt lat="44.03475" lon="0.40461">
        <ele>96.1</ele>
        <time>2022-09-24T09:17:29Z</time>
      </trkpt>
      <trkpt lat="44.0347" lon="0.4046">
        <ele>95.4</ele>
        <time>2022-09-24T09:17:36Z</time>
      </trkpt>
      <trkpt lat="44.03466" lon="0.40457">
        <ele>95.8</ele>
        <time>2022-09-24T09:17:41Z</time>
      </trkpt>
      <trkpt lat="44.03463" lon="0.4045">
        <ele>96.8</ele>
        <time>2022-09-24T09:17:48Z</time>
      </trkpt>
      <trkpt lat="44.0346" lon="0.40446">
        <ele>96.7</ele>
        <time>2022-09-24T09:17:53Z</time>
      </trkpt>
      <trkpt lat="44.03455" lon="0.40442">
        <ele>96.3</ele>
        <time>2022-09-24T09:17:58Z</time>
      </trkpt>
      <trkpt lat="44.03451" lon="0.40437">
        <ele>96.4</ele>
        <time>2022-09-24T09:18:03Z</time>
      </trkpt>
      <trkpt lat="44.03446" lon="0.40435">
        <ele>95.8</ele>
        <time>2022-09-24T09:18:08Z</time>
      </trkpt>
      <trkpt lat="44.03441" lon="0.40434">
        <ele>95</ele>
        <time>2022-09-24T09:18:13Z</time>
      </trkpt>
      <trkpt lat="44.03436" lon="0.40433">
        <ele>94.6</ele>
        <time>2022-09-24T09:18:17Z</time>
      </trkpt>
      <trkpt lat="44.03431" lon="0.40431">
        <ele>94.4</ele>
        <time>2022-09-24T09:18:21Z</time>
      </trkpt>
      <trkpt lat="44.03426" lon="0.40431">
        <ele>94.5</ele>
        <time>2022-09-24T09:18:25Z</time>
      </trkpt>
      <trkpt lat="44.03421" lon="0.40433">
        <ele>95.2</ele>
        <time>2022-09-24T09:18:29Z</time>
      </trkpt>
      <trkpt lat="44.03416" lon="0.40431">
        <ele>95.3</ele>
        <time>2022-09-24T09:18:34Z</time>
      </trkpt>
      <trkpt lat="44.03411" lon="0.40429">
        <ele>95.1</ele>
        <time>2022-09-24T09:18:39Z</time>
      </trkpt>
      <trkpt lat="44.03406" lon="0.40428">
        <ele>94.3</ele>
        <time>2022-09-24T09:18:43Z</time>
      </trkpt>
      <trkpt lat="44.03401" lon="0.40427">
        <ele>93.2</ele>
        <time>2022-09-24T09:18:47Z</time>
      </trkpt>
      <trkpt lat="44.034" lon="0.40434">
        <ele>91.8</ele>
        <time>2022-09-24T09:18:55Z</time>
      </trkpt>
      <trkpt lat="44.03405" lon="0.40436">
        <ele>91.9</ele>
        <time>2022-09-24T09:19:01Z</time>
      </trkpt>
      <trkpt lat="44.0341" lon="0.40436">
        <ele>92</ele>
        <time>2022-09-24T09:19:04Z</time>
      </trkpt>
      <trkpt lat="44.03414" lon="0.40432">
        <ele>91.7</ele>
        <time>2022-09-24T09:19:08Z</time>
      </trkpt>
      <trkpt lat="44.0341" lon="0.40437">
        <ele>86.8</ele>
        <time>2022-09-24T09:19:20Z</time>
      </trkpt>
      <trkpt lat="44.03405" lon="0.40438">
        <ele>88.6</ele>
        <time>2022-09-24T09:19:48Z</time>
      </trkpt>
      <trkpt lat="44.03401" lon="0.40435">
        <ele>88.5</ele>
        <time>2022-09-24T09:19:54Z</time>
      </trkpt>
      <trkpt lat="44.03398" lon="0.4043">
        <ele>87.4</ele>
        <time>2022-09-24T09:20:02Z</time>
      </trkpt>
      <trkpt lat="44.03397" lon="0.40423">
        <ele>86.9</ele>
        <time>2022-09-24T09:20:10Z</time>
      </trkpt>
      <trkpt lat="44.03393" lon="0.40428">
        <ele>86.1</ele>
        <time>2022-09-24T09:20:40Z</time>
      </trkpt>
      <trkpt lat="44.0339" lon="0.40421">
        <ele>85.8</ele>
        <time>2022-09-24T09:21:12Z</time>
      </trkpt>
      <trkpt lat="44.03386" lon="0.40417">
        <ele>87.4</ele>
        <time>2022-09-24T09:21:57Z</time>
      </trkpt>
      <trkpt lat="44.03391" lon="0.40415">
        <ele>92.5</ele>
        <time>2022-09-24T09:22:09Z</time>
      </trkpt>
      <trkpt lat="44.03396" lon="0.40416">
        <ele>92.9</ele>
        <time>2022-09-24T09:22:19Z</time>
      </trkpt>
      <trkpt lat="44.03391" lon="0.40419">
        <ele>94.4</ele>
        <time>2022-09-24T09:23:11Z</time>
      </trkpt>
      <trkpt lat="44.03387" lon="0.40419">
        <ele>93.3</ele>
        <time>2022-09-24T09:23:18Z</time>
      </trkpt>
      <trkpt lat="44.03392" lon="0.40418">
        <ele>90.6</ele>
        <time>2022-09-24T09:23:42Z</time>
      </trkpt>
      <trkpt lat="44.03395" lon="0.40422">
        <ele>93.2</ele>
        <time>2022-09-24T09:23:56Z</time>
      </trkpt>
      <trkpt lat="44.03394" lon="0.40428">
        <ele>93.8</ele>
        <time>2022-09-24T09:24:03Z</time>
      </trkpt>
      <trkpt lat="44.03389" lon="0.40427">
        <ele>92.9</ele>
        <time>2022-09-24T09:24:14Z</time>
      </trkpt>
      <trkpt lat="44.03393" lon="0.4042">
        <ele>94.5</ele>
        <time>2022-09-24T09:27:37Z</time>
      </trkpt>
      <trkpt lat="44.03397" lon="0.40416">
        <ele>95.1</ele>
        <time>2022-09-24T09:27:42Z</time>
      </trkpt>
      <trkpt lat="44.03399" lon="0.4041">
        <ele>95.5</ele>
        <time>2022-09-24T09:27:47Z</time>
      </trkpt>
      <trkpt lat="44.03399" lon="0.40402">
        <ele>95.3</ele>
        <time>2022-09-24T09:27:52Z</time>
      </trkpt>
      <trkpt lat="44.03399" lon="0.40395">
        <ele>95</ele>
        <time>2022-09-24T09:27:56Z</time>
      </trkpt>
      <trkpt lat="44.03401" lon="0.40389">
        <ele>93.8</ele>
        <time>2022-09-24T09:28:04Z</time>
      </trkpt>
      <trkpt lat="44.03402" lon="0.40382">
        <ele>94.1</ele>
        <time>2022-09-24T09:28:10Z</time>
      </trkpt>
      <trkpt lat="44.03404" lon="0.40376">
        <ele>94.1</ele>
        <time>2022-09-24T09:28:15Z</time>
      </trkpt>
      <trkpt lat="44.03405" lon="0.40368">
        <ele>94.3</ele>
        <time>2022-09-24T09:28:19Z</time>
      </trkpt>
      <trkpt lat="44.03405" lon="0.4036">
        <ele>94.5</ele>
        <time>2022-09-24T09:28:23Z</time>
      </trkpt>
      <trkpt lat="44.03405" lon="0.40353">
        <ele>94.7</ele>
        <time>2022-09-24T09:28:28Z</time>
      </trkpt>
      <trkpt lat="44.03406" lon="0.40346">
        <ele>93.7</ele>
        <time>2022-09-24T09:28:34Z</time>
      </trkpt>
      <trkpt lat="44.03407" lon="0.4034">
        <ele>92.8</ele>
        <time>2022-09-24T09:28:39Z</time>
      </trkpt>
      <trkpt lat="44.03407" lon="0.40333">
        <ele>92.2</ele>
        <time>2022-09-24T09:28:44Z</time>
      </trkpt>
      <trkpt lat="44.03407" lon="0.40325">
        <ele>91.9</ele>
        <time>2022-09-24T09:28:49Z</time>
      </trkpt>
      <trkpt lat="44.03407" lon="0.40318">
        <ele>91.7</ele>
        <time>2022-09-24T09:28:54Z</time>
      </trkpt>
      <trkpt lat="44.03408" lon="0.4031">
        <ele>90.9</ele>
        <time>2022-09-24T09:28:59Z</time>
      </trkpt>
      <trkpt lat="44.03409" lon="0.40303">
        <ele>90</ele>
        <time>2022-09-24T09:29:04Z</time>
      </trkpt>
      <trkpt lat="44.0341" lon="0.40296">
        <ele>89.2</ele>
        <time>2022-09-24T09:29:09Z</time>
      </trkpt>
      <trkpt lat="44.03411" lon="0.4029">
        <ele>88.8</ele>
        <time>2022-09-24T09:29:13Z</time>
      </trkpt>
      <trkpt lat="44.03412" lon="0.40282">
        <ele>88.7</ele>
        <time>2022-09-24T09:29:18Z</time>
      </trkpt>
      <trkpt lat="44.03413" lon="0.40276">
        <ele>88.9</ele>
        <time>2022-09-24T09:29:22Z</time>
      </trkpt>
      <trkpt lat="44.03414" lon="0.4027">
        <ele>89.3</ele>
        <time>2022-09-24T09:29:25Z</time>
      </trkpt>
      <trkpt lat="44.03415" lon="0.40262">
        <ele>90</ele>
        <time>2022-09-24T09:29:29Z</time>
      </trkpt>
      <trkpt lat="44.03415" lon="0.40256">
        <ele>90.5</ele>
        <time>2022-09-24T09:29:33Z</time>
      </trkpt>
      <trkpt lat="44.03416" lon="0.40249">
        <ele>90.9</ele>
        <time>2022-09-24T09:29:37Z</time>
      </trkpt>
      <trkpt lat="44.03416" lon="0.40242">
        <ele>90.9</ele>
        <time>2022-09-24T09:29:41Z</time>
      </trkpt>
      <trkpt lat="44.03415" lon="0.40234">
        <ele>90.3</ele>
        <time>2022-09-24T09:29:46Z</time>
      </trkpt>
      <trkpt lat="44.03417" lon="0.40227">
        <ele>88.3</ele>
        <time>2022-09-24T09:29:52Z</time>
      </trkpt>
      <trkpt lat="44.03417" lon="0.4022">
        <ele>87.2</ele>
        <time>2022-09-24T09:29:56Z</time>
      </trkpt>
      <trkpt lat="44.03416" lon="0.40214">
        <ele>86.6</ele>
        <time>2022-09-24T09:30:00Z</time>
      </trkpt>
      <trkpt lat="44.03415" lon="0.40207">
        <ele>86.3</ele>
        <time>2022-09-24T09:30:04Z</time>
      </trkpt>
      <trkpt lat="44.03414" lon="0.40201">
        <ele>86.3</ele>
        <time>2022-09-24T09:30:07Z</time>
      </trkpt>
      <trkpt lat="44.03414" lon="0.40194">
        <ele>86.7</ele>
        <time>2022-09-24T09:30:10Z</time>
      </trkpt>
      <trkpt lat="44.03413" lon="0.40187">
        <ele>87.1</ele>
        <time>2022-09-24T09:30:13Z</time>
      </trkpt>
      <trkpt lat="44.03412" lon="0.4018">
        <ele>88</ele>
        <time>2022-09-24T09:30:17Z</time>
      </trkpt>
      <trkpt lat="44.03411" lon="0.40173">
        <ele>89</ele>
        <time>2022-09-24T09:30:21Z</time>
      </trkpt>
      <trkpt lat="44.03411" lon="0.40166">
        <ele>88.9</ele>
        <time>2022-09-24T09:30:26Z</time>
      </trkpt>
      <trkpt lat="44.0341" lon="0.40159">
        <ele>88.7</ele>
        <time>2022-09-24T09:30:31Z</time>
      </trkpt>
      <trkpt lat="44.0341" lon="0.40152">
        <ele>89</ele>
        <time>2022-09-24T09:30:36Z</time>
      </trkpt>
      <trkpt lat="44.03409" lon="0.40146">
        <ele>89.4</ele>
        <time>2022-09-24T09:30:40Z</time>
      </trkpt>
      <trkpt lat="44.03407" lon="0.40139">
        <ele>89.7</ele>
        <time>2022-09-24T09:30:44Z</time>
      </trkpt>
      <trkpt lat="44.03406" lon="0.40133">
        <ele>90.3</ele>
        <time>2022-09-24T09:30:48Z</time>
      </trkpt>
      <trkpt lat="44.03405" lon="0.40127">
        <ele>90.6</ele>
        <time>2022-09-24T09:30:52Z</time>
      </trkpt>
      <trkpt lat="44.03405" lon="0.40119">
        <ele>90.7</ele>
        <time>2022-09-24T09:30:56Z</time>
      </trkpt>
      <trkpt lat="44.03404" lon="0.40112">
        <ele>91.1</ele>
        <time>2022-09-24T09:31:00Z</time>
      </trkpt>
      <trkpt lat="44.03404" lon="0.40106">
        <ele>91.7</ele>
        <time>2022-09-24T09:31:04Z</time>
      </trkpt>
      <trkpt lat="44.03404" lon="0.40099">
        <ele>92.4</ele>
        <time>2022-09-24T09:31:08Z</time>
      </trkpt>
      <trkpt lat="44.03404" lon="0.40091">
        <ele>93.1</ele>
        <time>2022-09-24T09:31:12Z</time>
      </trkpt>
      <trkpt lat="44.03404" lon="0.40085">
        <ele>94.1</ele>
        <time>2022-09-24T09:31:16Z</time>
      </trkpt>
      <trkpt lat="44.03403" lon="0.40078">
        <ele>94.4</ele>
        <time>2022-09-24T09:31:20Z</time>
      </trkpt>
      <trkpt lat="44.03402" lon="0.40071">
        <ele>94.5</ele>
        <time>2022-09-24T09:31:24Z</time>
      </trkpt>
      <trkpt lat="44.03399" lon="0.40064">
        <ele>94.5</ele>
        <time>2022-09-24T09:31:29Z</time>
      </trkpt>
      <trkpt lat="44.03397" lon="0.40058">
        <ele>94.8</ele>
        <time>2022-09-24T09:31:33Z</time>
      </trkpt>
      <trkpt lat="44.03396" lon="0.40052">
        <ele>94.8</ele>
        <time>2022-09-24T09:31:37Z</time>
      </trkpt>
      <trkpt lat="44.03396" lon="0.40045">
        <ele>94.2</ele>
        <time>2022-09-24T09:31:41Z</time>
      </trkpt>
      <trkpt lat="44.03395" lon="0.40038">
        <ele>93.9</ele>
        <time>2022-09-24T09:31:45Z</time>
      </trkpt>
      <trkpt lat="44.03394" lon="0.40032">
        <ele>93.3</ele>
        <time>2022-09-24T09:31:50Z</time>
      </trkpt>
      <trkpt lat="44.03393" lon="0.40025">
        <ele>93.1</ele>
        <time>2022-09-24T09:31:54Z</time>
      </trkpt>
      <trkpt lat="44.03392" lon="0.40017">
        <ele>93.1</ele>
        <time>2022-09-24T09:31:58Z</time>
      </trkpt>
      <trkpt lat="44.03391" lon="0.4001">
        <ele>93.1</ele>
        <time>2022-09-24T09:32:03Z</time>
      </trkpt>
      <trkpt lat="44.03391" lon="0.40004">
        <ele>92.6</ele>
        <time>2022-09-24T09:32:08Z</time>
      </trkpt>
      <trkpt lat="44.03391" lon="0.39997">
        <ele>91.7</ele>
        <time>2022-09-24T09:32:13Z</time>
      </trkpt>
      <trkpt lat="44.03391" lon="0.39989">
        <ele>91.3</ele>
        <time>2022-09-24T09:32:18Z</time>
      </trkpt>
      <trkpt lat="44.03391" lon="0.39982">
        <ele>92.1</ele>
        <time>2022-09-24T09:32:23Z</time>
      </trkpt>
      <trkpt lat="44.03391" lon="0.39976">
        <ele>92.5</ele>
        <time>2022-09-24T09:32:27Z</time>
      </trkpt>
      <trkpt lat="44.03392" lon="0.39968">
        <ele>92.9</ele>
        <time>2022-09-24T09:32:31Z</time>
      </trkpt>
      <trkpt lat="44.03392" lon="0.39961">
        <ele>93.1</ele>
        <time>2022-09-24T09:32:35Z</time>
      </trkpt>
      <trkpt lat="44.03394" lon="0.39953">
        <ele>92.5</ele>
        <time>2022-09-24T09:32:40Z</time>
      </trkpt>
      <trkpt lat="44.03395" lon="0.39947">
        <ele>92.2</ele>
        <time>2022-09-24T09:32:44Z</time>
      </trkpt>
      <trkpt lat="44.03395" lon="0.39939">
        <ele>92.4</ele>
        <time>2022-09-24T09:32:50Z</time>
      </trkpt>
      <trkpt lat="44.03395" lon="0.39932">
        <ele>92.8</ele>
        <time>2022-09-24T09:32:54Z</time>
      </trkpt>
      <trkpt lat="44.03396" lon="0.39926">
        <ele>93.4</ele>
        <time>2022-09-24T09:32:58Z</time>
      </trkpt>
      <trkpt lat="44.03396" lon="0.39918">
        <ele>93.9</ele>
        <time>2022-09-24T09:33:03Z</time>
      </trkpt>
      <trkpt lat="44.03396" lon="0.39911">
        <ele>94.1</ele>
        <time>2022-09-24T09:33:07Z</time>
      </trkpt>
      <trkpt lat="44.03397" lon="0.39904">
        <ele>93.9</ele>
        <time>2022-09-24T09:33:11Z</time>
      </trkpt>
      <trkpt lat="44.03398" lon="0.39897">
        <ele>94</ele>
        <time>2022-09-24T09:33:15Z</time>
      </trkpt>
      <trkpt lat="44.03399" lon="0.39891">
        <ele>94.1</ele>
        <time>2022-09-24T09:33:19Z</time>
      </trkpt>
      <trkpt lat="44.03399" lon="0.39883">
        <ele>94.5</ele>
        <time>2022-09-24T09:33:24Z</time>
      </trkpt>
      <trkpt lat="44.034" lon="0.39877">
        <ele>94.6</ele>
        <time>2022-09-24T09:33:28Z</time>
      </trkpt>
      <trkpt lat="44.03401" lon="0.3987">
        <ele>94.5</ele>
        <time>2022-09-24T09:33:32Z</time>
      </trkpt>
      <trkpt lat="44.034" lon="0.39863">
        <ele>94.7</ele>
        <time>2022-09-24T09:33:36Z</time>
      </trkpt>
      <trkpt lat="44.03401" lon="0.39856">
        <ele>95.4</ele>
        <time>2022-09-24T09:33:40Z</time>
      </trkpt>
      <trkpt lat="44.03401" lon="0.39848">
        <ele>95.8</ele>
        <time>2022-09-24T09:33:44Z</time>
      </trkpt>
      <trkpt lat="44.03402" lon="0.39841">
        <ele>95.6</ele>
        <time>2022-09-24T09:33:49Z</time>
      </trkpt>
      <trkpt lat="44.03403" lon="0.39833">
        <ele>95.3</ele>
        <time>2022-09-24T09:33:54Z</time>
      </trkpt>
      <trkpt lat="44.03403" lon="0.39827">
        <ele>94.7</ele>
        <time>2022-09-24T09:33:58Z</time>
      </trkpt>
      <trkpt lat="44.03404" lon="0.3982">
        <ele>94.4</ele>
        <time>2022-09-24T09:34:02Z</time>
      </trkpt>
      <trkpt lat="44.03404" lon="0.39813">
        <ele>94.3</ele>
        <time>2022-09-24T09:34:06Z</time>
      </trkpt>
      <trkpt lat="44.03404" lon="0.39805">
        <ele>94.5</ele>
        <time>2022-09-24T09:34:10Z</time>
      </trkpt>
      <trkpt lat="44.03405" lon="0.39798">
        <ele>94.8</ele>
        <time>2022-09-24T09:34:14Z</time>
      </trkpt>
      <trkpt lat="44.03405" lon="0.39791">
        <ele>94.9</ele>
        <time>2022-09-24T09:34:18Z</time>
      </trkpt>
      <trkpt lat="44.03406" lon="0.39785">
        <ele>94.8</ele>
        <time>2022-09-24T09:34:23Z</time>
      </trkpt>
      <trkpt lat="44.03407" lon="0.39779">
        <ele>94.1</ele>
        <time>2022-09-24T09:34:27Z</time>
      </trkpt>
      <trkpt lat="44.03408" lon="0.39771">
        <ele>93.5</ele>
        <time>2022-09-24T09:34:31Z</time>
      </trkpt>
      <trkpt lat="44.03408" lon="0.39763">
        <ele>93.2</ele>
        <time>2022-09-24T09:34:35Z</time>
      </trkpt>
      <trkpt lat="44.03409" lon="0.39757">
        <ele>93</ele>
        <time>2022-09-24T09:34:38Z</time>
      </trkpt>
      <trkpt lat="44.0341" lon="0.39749">
        <ele>92.7</ele>
        <time>2022-09-24T09:34:42Z</time>
      </trkpt>
      <trkpt lat="44.0341" lon="0.39741">
        <ele>92.6</ele>
        <time>2022-09-24T09:34:46Z</time>
      </trkpt>
      <trkpt lat="44.03409" lon="0.39735">
        <ele>93</ele>
        <time>2022-09-24T09:34:50Z</time>
      </trkpt>
      <trkpt lat="44.0341" lon="0.39728">
        <ele>93.3</ele>
        <time>2022-09-24T09:34:54Z</time>
      </trkpt>
      <trkpt lat="44.03411" lon="0.3972">
        <ele>93.4</ele>
        <time>2022-09-24T09:34:58Z</time>
      </trkpt>
      <trkpt lat="44.03412" lon="0.39713">
        <ele>93.6</ele>
        <time>2022-09-24T09:35:02Z</time>
      </trkpt>
      <trkpt lat="44.03412" lon="0.39707">
        <ele>93.6</ele>
        <time>2022-09-24T09:35:06Z</time>
      </trkpt>
      <trkpt lat="44.03413" lon="0.397">
        <ele>93.7</ele>
        <time>2022-09-24T09:35:10Z</time>
      </trkpt>
      <trkpt lat="44.03413" lon="0.39693">
        <ele>93.8</ele>
        <time>2022-09-24T09:35:14Z</time>
      </trkpt>
      <trkpt lat="44.03414" lon="0.39686">
        <ele>93.9</ele>
        <time>2022-09-24T09:35:18Z</time>
      </trkpt>
      <trkpt lat="44.03415" lon="0.39679">
        <ele>93.8</ele>
        <time>2022-09-24T09:35:22Z</time>
      </trkpt>
      <trkpt lat="44.03415" lon="0.39671">
        <ele>93.7</ele>
        <time>2022-09-24T09:35:26Z</time>
      </trkpt>
      <trkpt lat="44.03415" lon="0.39664">
        <ele>93.4</ele>
        <time>2022-09-24T09:35:30Z</time>
      </trkpt>
      <trkpt lat="44.03416" lon="0.39658">
        <ele>92.5</ele>
        <time>2022-09-24T09:35:34Z</time>
      </trkpt>
      <trkpt lat="44.03416" lon="0.39651">
        <ele>91.8</ele>
        <time>2022-09-24T09:35:38Z</time>
      </trkpt>
      <trkpt lat="44.03417" lon="0.39645">
        <ele>91.2</ele>
        <time>2022-09-24T09:35:42Z</time>
      </trkpt>
      <trkpt lat="44.03417" lon="0.39636">
        <ele>90.7</ele>
        <time>2022-09-24T09:35:46Z</time>
      </trkpt>
      <trkpt lat="44.03417" lon="0.3963">
        <ele>90.6</ele>
        <time>2022-09-24T09:35:49Z</time>
      </trkpt>
      <trkpt lat="44.03418" lon="0.39623">
        <ele>90.7</ele>
        <time>2022-09-24T09:35:53Z</time>
      </trkpt>
      <trkpt lat="44.03418" lon="0.39616">
        <ele>90.8</ele>
        <time>2022-09-24T09:35:56Z</time>
      </trkpt>
      <trkpt lat="44.03419" lon="0.39609">
        <ele>91.3</ele>
        <time>2022-09-24T09:36:00Z</time>
      </trkpt>
      <trkpt lat="44.03419" lon="0.39603">
        <ele>91.8</ele>
        <time>2022-09-24T09:36:04Z</time>
      </trkpt>
      <trkpt lat="44.0342" lon="0.39595">
        <ele>92.2</ele>
        <time>2022-09-24T09:36:08Z</time>
      </trkpt>
      <trkpt lat="44.0342" lon="0.39588">
        <ele>92.2</ele>
        <time>2022-09-24T09:36:13Z</time>
      </trkpt>
      <trkpt lat="44.03422" lon="0.39581">
        <ele>92</ele>
        <time>2022-09-24T09:36:18Z</time>
      </trkpt>
      <trkpt lat="44.03423" lon="0.39575">
        <ele>91.9</ele>
        <time>2022-09-24T09:36:22Z</time>
      </trkpt>
      <trkpt lat="44.03424" lon="0.39567">
        <ele>92.1</ele>
        <time>2022-09-24T09:36:26Z</time>
      </trkpt>
      <trkpt lat="44.03425" lon="0.39561">
        <ele>92.2</ele>
        <time>2022-09-24T09:36:30Z</time>
      </trkpt>
      <trkpt lat="44.03426" lon="0.39553">
        <ele>92.5</ele>
        <time>2022-09-24T09:36:34Z</time>
      </trkpt>
      <trkpt lat="44.03426" lon="0.39547">
        <ele>92.9</ele>
        <time>2022-09-24T09:36:38Z</time>
      </trkpt>
      <trkpt lat="44.03426" lon="0.3954">
        <ele>93.1</ele>
        <time>2022-09-24T09:36:42Z</time>
      </trkpt>
      <trkpt lat="44.03426" lon="0.39533">
        <ele>93.1</ele>
        <time>2022-09-24T09:36:46Z</time>
      </trkpt>
      <trkpt lat="44.03426" lon="0.39527">
        <ele>92.9</ele>
        <time>2022-09-24T09:36:50Z</time>
      </trkpt>
      <trkpt lat="44.03427" lon="0.3952">
        <ele>92.8</ele>
        <time>2022-09-24T09:36:54Z</time>
      </trkpt>
      <trkpt lat="44.03427" lon="0.39513">
        <ele>92.4</ele>
        <time>2022-09-24T09:36:58Z</time>
      </trkpt>
      <trkpt lat="44.03428" lon="0.39506">
        <ele>91.8</ele>
        <time>2022-09-24T09:37:02Z</time>
      </trkpt>
      <trkpt lat="44.03428" lon="0.39499">
        <ele>91.1</ele>
        <time>2022-09-24T09:37:06Z</time>
      </trkpt>
      <trkpt lat="44.0343" lon="0.39492">
        <ele>90.5</ele>
        <time>2022-09-24T09:37:11Z</time>
      </trkpt>
      <trkpt lat="44.0343" lon="0.39484">
        <ele>90.4</ele>
        <time>2022-09-24T09:37:15Z</time>
      </trkpt>
      <trkpt lat="44.0343" lon="0.39476">
        <ele>90.4</ele>
        <time>2022-09-24T09:37:19Z</time>
      </trkpt>
      <trkpt lat="44.03431" lon="0.3947">
        <ele>90.1</ele>
        <time>2022-09-24T09:37:23Z</time>
      </trkpt>
      <trkpt lat="44.03431" lon="0.39462">
        <ele>89.6</ele>
        <time>2022-09-24T09:37:28Z</time>
      </trkpt>
      <trkpt lat="44.03432" lon="0.39455">
        <ele>89.2</ele>
        <time>2022-09-24T09:37:32Z</time>
      </trkpt>
      <trkpt lat="44.03433" lon="0.39448">
        <ele>88.7</ele>
        <time>2022-09-24T09:37:36Z</time>
      </trkpt>
      <trkpt lat="44.03433" lon="0.39441">
        <ele>88.6</ele>
        <time>2022-09-24T09:37:40Z</time>
      </trkpt>
      <trkpt lat="44.03433" lon="0.39434">
        <ele>88.6</ele>
        <time>2022-09-24T09:37:44Z</time>
      </trkpt>
      <trkpt lat="44.03435" lon="0.39427">
        <ele>88</ele>
        <time>2022-09-24T09:37:49Z</time>
      </trkpt>
      <trkpt lat="44.03436" lon="0.3942">
        <ele>87.1</ele>
        <time>2022-09-24T09:37:54Z</time>
      </trkpt>
      <trkpt lat="44.03436" lon="0.39413">
        <ele>86.3</ele>
        <time>2022-09-24T09:37:58Z</time>
      </trkpt>
      <trkpt lat="44.03437" lon="0.39407">
        <ele>85.2</ele>
        <time>2022-09-24T09:38:02Z</time>
      </trkpt>
      <trkpt lat="44.03437" lon="0.39398">
        <ele>84.4</ele>
        <time>2022-09-24T09:38:06Z</time>
      </trkpt>
      <trkpt lat="44.03439" lon="0.39391">
        <ele>84.6</ele>
        <time>2022-09-24T09:38:10Z</time>
      </trkpt>
      <trkpt lat="44.03439" lon="0.39384">
        <ele>84.9</ele>
        <time>2022-09-24T09:38:14Z</time>
      </trkpt>
      <trkpt lat="44.0344" lon="0.39376">
        <ele>85.4</ele>
        <time>2022-09-24T09:38:18Z</time>
      </trkpt>
      <trkpt lat="44.03441" lon="0.39368">
        <ele>85.9</ele>
        <time>2022-09-24T09:38:22Z</time>
      </trkpt>
      <trkpt lat="44.03441" lon="0.3936">
        <ele>86.4</ele>
        <time>2022-09-24T09:38:26Z</time>
      </trkpt>
      <trkpt lat="44.03441" lon="0.39354">
        <ele>86.6</ele>
        <time>2022-09-24T09:38:30Z</time>
      </trkpt>
      <trkpt lat="44.03442" lon="0.39346">
        <ele>86.7</ele>
        <time>2022-09-24T09:38:35Z</time>
      </trkpt>
      <trkpt lat="44.03443" lon="0.39339">
        <ele>86.6</ele>
        <time>2022-09-24T09:38:40Z</time>
      </trkpt>
      <trkpt lat="44.03445" lon="0.39333">
        <ele>86.4</ele>
        <time>2022-09-24T09:38:44Z</time>
      </trkpt>
      <trkpt lat="44.03446" lon="0.39326">
        <ele>85.5</ele>
        <time>2022-09-24T09:38:49Z</time>
      </trkpt>
      <trkpt lat="44.03446" lon="0.39319">
        <ele>84.7</ele>
        <time>2022-09-24T09:38:54Z</time>
      </trkpt>
      <trkpt lat="44.03444" lon="0.39313">
        <ele>84</ele>
        <time>2022-09-24T09:39:02Z</time>
      </trkpt>
      <trkpt lat="44.03446" lon="0.39307">
        <ele>81.5</ele>
        <time>2022-09-24T09:39:44Z</time>
      </trkpt>
      <trkpt lat="44.03445" lon="0.39301">
        <ele>81.5</ele>
        <time>2022-09-24T09:39:59Z</time>
      </trkpt>
      <trkpt lat="44.03446" lon="0.39294">
        <ele>81</ele>
        <time>2022-09-24T09:40:07Z</time>
      </trkpt>
      <trkpt lat="44.03446" lon="0.39288">
        <ele>80.9</ele>
        <time>2022-09-24T09:40:10Z</time>
      </trkpt>
      <trkpt lat="44.03447" lon="0.39281">
        <ele>80.8</ele>
        <time>2022-09-24T09:40:13Z</time>
      </trkpt>
      <trkpt lat="44.03447" lon="0.39275">
        <ele>81</ele>
        <time>2022-09-24T09:40:16Z</time>
      </trkpt>
      <trkpt lat="44.03448" lon="0.39267">
        <ele>81.1</ele>
        <time>2022-09-24T09:40:20Z</time>
      </trkpt>
      <trkpt lat="44.03448" lon="0.3926">
        <ele>81.3</ele>
        <time>2022-09-24T09:40:24Z</time>
      </trkpt>
      <trkpt lat="44.03448" lon="0.39253">
        <ele>81.3</ele>
        <time>2022-09-24T09:40:29Z</time>
      </trkpt>
      <trkpt lat="44.03448" lon="0.39246">
        <ele>81.3</ele>
        <time>2022-09-24T09:40:34Z</time>
      </trkpt>
      <trkpt lat="44.03448" lon="0.39239">
        <ele>80.9</ele>
        <time>2022-09-24T09:40:39Z</time>
      </trkpt>
      <trkpt lat="44.03448" lon="0.39232">
        <ele>79.6</ele>
        <time>2022-09-24T09:40:43Z</time>
      </trkpt>
      <trkpt lat="44.03447" lon="0.39226">
        <ele>78.8</ele>
        <time>2022-09-24T09:40:46Z</time>
      </trkpt>
      <trkpt lat="44.03447" lon="0.39219">
        <ele>77.6</ele>
        <time>2022-09-24T09:40:50Z</time>
      </trkpt>
      <trkpt lat="44.03446" lon="0.39211">
        <ele>76.7</ele>
        <time>2022-09-24T09:40:54Z</time>
      </trkpt>
      <trkpt lat="44.03444" lon="0.39203">
        <ele>76.4</ele>
        <time>2022-09-24T09:40:58Z</time>
      </trkpt>
      <trkpt lat="44.03443" lon="0.39196">
        <ele>76.3</ele>
        <time>2022-09-24T09:41:02Z</time>
      </trkpt>
      <trkpt lat="44.03441" lon="0.39189">
        <ele>76.3</ele>
        <time>2022-09-24T09:41:05Z</time>
      </trkpt>
      <trkpt lat="44.03439" lon="0.39183">
        <ele>76.3</ele>
        <time>2022-09-24T09:41:08Z</time>
      </trkpt>
      <trkpt lat="44.03438" lon="0.39176">
        <ele>76.4</ele>
        <time>2022-09-24T09:41:12Z</time>
      </trkpt>
      <trkpt lat="44.03436" lon="0.39169">
        <ele>76.8</ele>
        <time>2022-09-24T09:41:16Z</time>
      </trkpt>
      <trkpt lat="44.03436" lon="0.39163">
        <ele>77.1</ele>
        <time>2022-09-24T09:41:20Z</time>
      </trkpt>
      <trkpt lat="44.03435" lon="0.39157">
        <ele>77.2</ele>
        <time>2022-09-24T09:41:24Z</time>
      </trkpt>
      <trkpt lat="44.03433" lon="0.3915">
        <ele>76.9</ele>
        <time>2022-09-24T09:41:29Z</time>
      </trkpt>
      <trkpt lat="44.03433" lon="0.39144">
        <ele>76.9</ele>
        <time>2022-09-24T09:41:33Z</time>
      </trkpt>
      <trkpt lat="44.03436" lon="0.39148">
        <ele>77.4</ele>
        <time>2022-09-24T09:42:01Z</time>
      </trkpt>
      <trkpt lat="44.03433" lon="0.39143">
        <ele>76.9</ele>
        <time>2022-09-24T09:42:25Z</time>
      </trkpt>
      <trkpt lat="44.03429" lon="0.39148">
        <ele>75.4</ele>
        <time>2022-09-24T09:46:40Z</time>
      </trkpt>
      <trkpt lat="44.03426" lon="0.39152">
        <ele>75.7</ele>
        <time>2022-09-24T09:46:44Z</time>
      </trkpt>
      <trkpt lat="44.03421" lon="0.39153">
        <ele>75.7</ele>
        <time>2022-09-24T09:46:50Z</time>
      </trkpt>
      <trkpt lat="44.03417" lon="0.39155">
        <ele>75.5</ele>
        <time>2022-09-24T09:46:55Z</time>
      </trkpt>
      <trkpt lat="44.03412" lon="0.39156">
        <ele>74.9</ele>
        <time>2022-09-24T09:47:00Z</time>
      </trkpt>
      <trkpt lat="44.03406" lon="0.39157">
        <ele>73.9</ele>
        <time>2022-09-24T09:47:06Z</time>
      </trkpt>
      <trkpt lat="44.03402" lon="0.39157">
        <ele>73</ele>
        <time>2022-09-24T09:47:11Z</time>
      </trkpt>
      <trkpt lat="44.03396" lon="0.39158">
        <ele>72.3</ele>
        <time>2022-09-24T09:47:16Z</time>
      </trkpt>
      <trkpt lat="44.03391" lon="0.39159">
        <ele>71.2</ele>
        <time>2022-09-24T09:47:21Z</time>
      </trkpt>
      <trkpt lat="44.03385" lon="0.39159">
        <ele>70.6</ele>
        <time>2022-09-24T09:47:26Z</time>
      </trkpt>
      <trkpt lat="44.03381" lon="0.3916">
        <ele>70.7</ele>
        <time>2022-09-24T09:47:30Z</time>
      </trkpt>
      <trkpt lat="44.03376" lon="0.39161">
        <ele>70.8</ele>
        <time>2022-09-24T09:47:34Z</time>
      </trkpt>
      <trkpt lat="44.03371" lon="0.39163">
        <ele>71.3</ele>
        <time>2022-09-24T09:47:38Z</time>
      </trkpt>
      <trkpt lat="44.03366" lon="0.39166">
        <ele>72.4</ele>
        <time>2022-09-24T09:47:42Z</time>
      </trkpt>
      <trkpt lat="44.03361" lon="0.39169">
        <ele>73.9</ele>
        <time>2022-09-24T09:47:46Z</time>
      </trkpt>
      <trkpt lat="44.03356" lon="0.39173">
        <ele>75.1</ele>
        <time>2022-09-24T09:47:50Z</time>
      </trkpt>
      <trkpt lat="44.03352" lon="0.39175">
        <ele>76</ele>
        <time>2022-09-24T09:47:54Z</time>
      </trkpt>
      <trkpt lat="44.03348" lon="0.39176">
        <ele>76.4</ele>
        <time>2022-09-24T09:47:59Z</time>
      </trkpt>
      <trkpt lat="44.03342" lon="0.39178">
        <ele>76.2</ele>
        <time>2022-09-24T09:48:04Z</time>
      </trkpt>
      <trkpt lat="44.03337" lon="0.3918">
        <ele>76.1</ele>
        <time>2022-09-24T09:48:08Z</time>
      </trkpt>
      <trkpt lat="44.03332" lon="0.39182">
        <ele>76</ele>
        <time>2022-09-24T09:48:12Z</time>
      </trkpt>
      <trkpt lat="44.03327" lon="0.39184">
        <ele>76</ele>
        <time>2022-09-24T09:48:16Z</time>
      </trkpt>
      <trkpt lat="44.03322" lon="0.39185">
        <ele>76.4</ele>
        <time>2022-09-24T09:48:20Z</time>
      </trkpt>
      <trkpt lat="44.03317" lon="0.39187">
        <ele>77</ele>
        <time>2022-09-24T09:48:24Z</time>
      </trkpt>
      <trkpt lat="44.03313" lon="0.39188">
        <ele>77.4</ele>
        <time>2022-09-24T09:48:29Z</time>
      </trkpt>
      <trkpt lat="44.03308" lon="0.3919">
        <ele>77.4</ele>
        <time>2022-09-24T09:48:34Z</time>
      </trkpt>
      <trkpt lat="44.03303" lon="0.39191">
        <ele>76.8</ele>
        <time>2022-09-24T09:48:39Z</time>
      </trkpt>
      <trkpt lat="44.03298" lon="0.39192">
        <ele>76</ele>
        <time>2022-09-24T09:48:45Z</time>
      </trkpt>
      <trkpt lat="44.03293" lon="0.39196">
        <ele>75.3</ele>
        <time>2022-09-24T09:48:49Z</time>
      </trkpt>
      <trkpt lat="44.03289" lon="0.39199">
        <ele>74.9</ele>
        <time>2022-09-24T09:48:52Z</time>
      </trkpt>
      <trkpt lat="44.03285" lon="0.39202">
        <ele>74.6</ele>
        <time>2022-09-24T09:48:55Z</time>
      </trkpt>
      <trkpt lat="44.03281" lon="0.39205">
        <ele>74.3</ele>
        <time>2022-09-24T09:48:58Z</time>
      </trkpt>
      <trkpt lat="44.03277" lon="0.39209">
        <ele>74.3</ele>
        <time>2022-09-24T09:49:01Z</time>
      </trkpt>
      <trkpt lat="44.03273" lon="0.39213">
        <ele>74.4</ele>
        <time>2022-09-24T09:49:05Z</time>
      </trkpt>
      <trkpt lat="44.03269" lon="0.39217">
        <ele>74.5</ele>
        <time>2022-09-24T09:49:09Z</time>
      </trkpt>
      <trkpt lat="44.03265" lon="0.39222">
        <ele>74.5</ele>
        <time>2022-09-24T09:49:12Z</time>
      </trkpt>
      <trkpt lat="44.03262" lon="0.39227">
        <ele>74.6</ele>
        <time>2022-09-24T09:49:15Z</time>
      </trkpt>
      <trkpt lat="44.03258" lon="0.39232">
        <ele>74.8</ele>
        <time>2022-09-24T09:49:20Z</time>
      </trkpt>
      <trkpt lat="44.03254" lon="0.39237">
        <ele>74.6</ele>
        <time>2022-09-24T09:49:26Z</time>
      </trkpt>
      <trkpt lat="44.03251" lon="0.39242">
        <ele>74.5</ele>
        <time>2022-09-24T09:49:30Z</time>
      </trkpt>
      <trkpt lat="44.03248" lon="0.39247">
        <ele>74.3</ele>
        <time>2022-09-24T09:49:34Z</time>
      </trkpt>
      <trkpt lat="44.03244" lon="0.39252">
        <ele>74.4</ele>
        <time>2022-09-24T09:49:38Z</time>
      </trkpt>
      <trkpt lat="44.03241" lon="0.39257">
        <ele>74.6</ele>
        <time>2022-09-24T09:49:42Z</time>
      </trkpt>
      <trkpt lat="44.03238" lon="0.39262">
        <ele>75.2</ele>
        <time>2022-09-24T09:49:46Z</time>
      </trkpt>
      <trkpt lat="44.03234" lon="0.39267">
        <ele>75.6</ele>
        <time>2022-09-24T09:49:50Z</time>
      </trkpt>
      <trkpt lat="44.0323" lon="0.39273">
        <ele>75.9</ele>
        <time>2022-09-24T09:49:54Z</time>
      </trkpt>
      <trkpt lat="44.03227" lon="0.39278">
        <ele>76.3</ele>
        <time>2022-09-24T09:49:57Z</time>
      </trkpt>
      <trkpt lat="44.03223" lon="0.39283">
        <ele>77.1</ele>
        <time>2022-09-24T09:50:00Z</time>
      </trkpt>
      <trkpt lat="44.0322" lon="0.39288">
        <ele>78</ele>
        <time>2022-09-24T09:50:04Z</time>
      </trkpt>
      <trkpt lat="44.03216" lon="0.39293">
        <ele>78.7</ele>
        <time>2022-09-24T09:50:08Z</time>
      </trkpt>
      <trkpt lat="44.03212" lon="0.39298">
        <ele>78.8</ele>
        <time>2022-09-24T09:50:12Z</time>
      </trkpt>
      <trkpt lat="44.03208" lon="0.39301">
        <ele>78.6</ele>
        <time>2022-09-24T09:50:16Z</time>
      </trkpt>
      <trkpt lat="44.03204" lon="0.39305">
        <ele>78.4</ele>
        <time>2022-09-24T09:50:21Z</time>
      </trkpt>
      <trkpt lat="44.03201" lon="0.3931">
        <ele>78.4</ele>
        <time>2022-09-24T09:50:25Z</time>
      </trkpt>
      <trkpt lat="44.03197" lon="0.39315">
        <ele>78.5</ele>
        <time>2022-09-24T09:50:30Z</time>
      </trkpt>
      <trkpt lat="44.03193" lon="0.39318">
        <ele>78.5</ele>
        <time>2022-09-24T09:50:34Z</time>
      </trkpt>
      <trkpt lat="44.03188" lon="0.39322">
        <ele>78.7</ele>
        <time>2022-09-24T09:50:38Z</time>
      </trkpt>
      <trkpt lat="44.03184" lon="0.39326">
        <ele>78.8</ele>
        <time>2022-09-24T09:50:43Z</time>
      </trkpt>
      <trkpt lat="44.03179" lon="0.39329">
        <ele>78.4</ele>
        <time>2022-09-24T09:50:48Z</time>
      </trkpt>
      <trkpt lat="44.03175" lon="0.39333">
        <ele>78</ele>
        <time>2022-09-24T09:50:52Z</time>
      </trkpt>
      <trkpt lat="44.03172" lon="0.39338">
        <ele>77.7</ele>
        <time>2022-09-24T09:50:56Z</time>
      </trkpt>
      <trkpt lat="44.03167" lon="0.39342">
        <ele>77.3</ele>
        <time>2022-09-24T09:51:00Z</time>
      </trkpt>
      <trkpt lat="44.03163" lon="0.39346">
        <ele>77.1</ele>
        <time>2022-09-24T09:51:04Z</time>
      </trkpt>
      <trkpt lat="44.03159" lon="0.39349">
        <ele>77.2</ele>
        <time>2022-09-24T09:51:08Z</time>
      </trkpt>
      <trkpt lat="44.03154" lon="0.39353">
        <ele>77</ele>
        <time>2022-09-24T09:51:12Z</time>
      </trkpt>
      <trkpt lat="44.0315" lon="0.39356">
        <ele>76.9</ele>
        <time>2022-09-24T09:51:17Z</time>
      </trkpt>
      <trkpt lat="44.03145" lon="0.39361">
        <ele>76.7</ele>
        <time>2022-09-24T09:51:22Z</time>
      </trkpt>
      <trkpt lat="44.03141" lon="0.39366">
        <ele>76.7</ele>
        <time>2022-09-24T09:51:26Z</time>
      </trkpt>
      <trkpt lat="44.03137" lon="0.3937">
        <ele>77.2</ele>
        <time>2022-09-24T09:51:31Z</time>
      </trkpt>
      <trkpt lat="44.03133" lon="0.39373">
        <ele>77.6</ele>
        <time>2022-09-24T09:51:36Z</time>
      </trkpt>
      <trkpt lat="44.03128" lon="0.39377">
        <ele>78.1</ele>
        <time>2022-09-24T09:51:40Z</time>
      </trkpt>
      <trkpt lat="44.03124" lon="0.39382">
        <ele>78.5</ele>
        <time>2022-09-24T09:51:44Z</time>
      </trkpt>
      <trkpt lat="44.0312" lon="0.39385">
        <ele>78.8</ele>
        <time>2022-09-24T09:51:48Z</time>
      </trkpt>
      <trkpt lat="44.03115" lon="0.39388">
        <ele>79.1</ele>
        <time>2022-09-24T09:51:52Z</time>
      </trkpt>
      <trkpt lat="44.03111" lon="0.39392">
        <ele>79.3</ele>
        <time>2022-09-24T09:51:56Z</time>
      </trkpt>
      <trkpt lat="44.03106" lon="0.39395">
        <ele>79.2</ele>
        <time>2022-09-24T09:52:00Z</time>
      </trkpt>
      <trkpt lat="44.03101" lon="0.39397">
        <ele>79.1</ele>
        <time>2022-09-24T09:52:04Z</time>
      </trkpt>
      <trkpt lat="44.03097" lon="0.39399">
        <ele>79.4</ele>
        <time>2022-09-24T09:52:08Z</time>
      </trkpt>
      <trkpt lat="44.03092" lon="0.39402">
        <ele>80.1</ele>
        <time>2022-09-24T09:52:12Z</time>
      </trkpt>
      <trkpt lat="44.03087" lon="0.39403">
        <ele>80.6</ele>
        <time>2022-09-24T09:52:16Z</time>
      </trkpt>
      <trkpt lat="44.03083" lon="0.39405">
        <ele>81.6</ele>
        <time>2022-09-24T09:52:20Z</time>
      </trkpt>
      <trkpt lat="44.03078" lon="0.39406">
        <ele>82.5</ele>
        <time>2022-09-24T09:52:24Z</time>
      </trkpt>
      <trkpt lat="44.03073" lon="0.39407">
        <ele>83.1</ele>
        <time>2022-09-24T09:52:28Z</time>
      </trkpt>
      <trkpt lat="44.03068" lon="0.39409">
        <ele>83.4</ele>
        <time>2022-09-24T09:52:32Z</time>
      </trkpt>
      <trkpt lat="44.03063" lon="0.39411">
        <ele>83.6</ele>
        <time>2022-09-24T09:52:36Z</time>
      </trkpt>
      <trkpt lat="44.03058" lon="0.39412">
        <ele>83.4</ele>
        <time>2022-09-24T09:52:40Z</time>
      </trkpt>
      <trkpt lat="44.03054" lon="0.39413">
        <ele>82.9</ele>
        <time>2022-09-24T09:52:44Z</time>
      </trkpt>
      <trkpt lat="44.03048" lon="0.39415">
        <ele>82.3</ele>
        <time>2022-09-24T09:52:49Z</time>
      </trkpt>
      <trkpt lat="44.03043" lon="0.39418">
        <ele>82.1</ele>
        <time>2022-09-24T09:52:53Z</time>
      </trkpt>
      <trkpt lat="44.03038" lon="0.39418">
        <ele>82</ele>
        <time>2022-09-24T09:52:57Z</time>
      </trkpt>
      <trkpt lat="44.03033" lon="0.39419">
        <ele>81.7</ele>
        <time>2022-09-24T09:53:02Z</time>
      </trkpt>
      <trkpt lat="44.03028" lon="0.39421">
        <ele>81.1</ele>
        <time>2022-09-24T09:53:06Z</time>
      </trkpt>
      <trkpt lat="44.03024" lon="0.39425">
        <ele>80.3</ele>
        <time>2022-09-24T09:53:09Z</time>
      </trkpt>
      <trkpt lat="44.03019" lon="0.39427">
        <ele>79.6</ele>
        <time>2022-09-24T09:53:13Z</time>
      </trkpt>
      <trkpt lat="44.03013" lon="0.39428">
        <ele>79.6</ele>
        <time>2022-09-24T09:53:17Z</time>
      </trkpt>
      <trkpt lat="44.03008" lon="0.3943">
        <ele>80.4</ele>
        <time>2022-09-24T09:53:21Z</time>
      </trkpt>
      <trkpt lat="44.03003" lon="0.3943">
        <ele>80.8</ele>
        <time>2022-09-24T09:53:25Z</time>
      </trkpt>
      <trkpt lat="44.02999" lon="0.39432">
        <ele>81.2</ele>
        <time>2022-09-24T09:53:29Z</time>
      </trkpt>
      <trkpt lat="44.02994" lon="0.39434">
        <ele>81.7</ele>
        <time>2022-09-24T09:53:34Z</time>
      </trkpt>
      <trkpt lat="44.02989" lon="0.39434">
        <ele>81.7</ele>
        <time>2022-09-24T09:53:38Z</time>
      </trkpt>
      <trkpt lat="44.02985" lon="0.39435">
        <ele>81.7</ele>
        <time>2022-09-24T09:53:42Z</time>
      </trkpt>
      <trkpt lat="44.02979" lon="0.39436">
        <ele>81.8</ele>
        <time>2022-09-24T09:53:46Z</time>
      </trkpt>
      <trkpt lat="44.02974" lon="0.39438">
        <ele>81.8</ele>
        <time>2022-09-24T09:53:50Z</time>
      </trkpt>
      <trkpt lat="44.02969" lon="0.3944">
        <ele>82.1</ele>
        <time>2022-09-24T09:53:54Z</time>
      </trkpt>
      <trkpt lat="44.02964" lon="0.39442">
        <ele>82.5</ele>
        <time>2022-09-24T09:53:59Z</time>
      </trkpt>
      <trkpt lat="44.02959" lon="0.39444">
        <ele>82.4</ele>
        <time>2022-09-24T09:54:03Z</time>
      </trkpt>
      <trkpt lat="44.02955" lon="0.39447">
        <ele>82.2</ele>
        <time>2022-09-24T09:54:06Z</time>
      </trkpt>
      <trkpt lat="44.02951" lon="0.3945">
        <ele>82.1</ele>
        <time>2022-09-24T09:54:10Z</time>
      </trkpt>
      <trkpt lat="44.02946" lon="0.39453">
        <ele>81.9</ele>
        <time>2022-09-24T09:54:15Z</time>
      </trkpt>
      <trkpt lat="44.02941" lon="0.39456">
        <ele>81.3</ele>
        <time>2022-09-24T09:54:20Z</time>
      </trkpt>
      <trkpt lat="44.02935" lon="0.39455">
        <ele>81.2</ele>
        <time>2022-09-24T09:54:24Z</time>
      </trkpt>
      <trkpt lat="44.0293" lon="0.39455">
        <ele>81.4</ele>
        <time>2022-09-24T09:54:28Z</time>
      </trkpt>
      <trkpt lat="44.02925" lon="0.39458">
        <ele>81.7</ele>
        <time>2022-09-24T09:54:33Z</time>
      </trkpt>
      <trkpt lat="44.0292" lon="0.39459">
        <ele>81.3</ele>
        <time>2022-09-24T09:54:37Z</time>
      </trkpt>
      <trkpt lat="44.02915" lon="0.3946">
        <ele>80.6</ele>
        <time>2022-09-24T09:54:41Z</time>
      </trkpt>
      <trkpt lat="44.02909" lon="0.39462">
        <ele>80.2</ele>
        <time>2022-09-24T09:54:45Z</time>
      </trkpt>
      <trkpt lat="44.02904" lon="0.39465">
        <ele>79.9</ele>
        <time>2022-09-24T09:54:49Z</time>
      </trkpt>
      <trkpt lat="44.02899" lon="0.39467">
        <ele>80.1</ele>
        <time>2022-09-24T09:54:53Z</time>
      </trkpt>
      <trkpt lat="44.02894" lon="0.39468">
        <ele>79.9</ele>
        <time>2022-09-24T09:54:58Z</time>
      </trkpt>
      <trkpt lat="44.02889" lon="0.39471">
        <ele>79.8</ele>
        <time>2022-09-24T09:55:03Z</time>
      </trkpt>
      <trkpt lat="44.02884" lon="0.39472">
        <ele>80</ele>
        <time>2022-09-24T09:55:08Z</time>
      </trkpt>
      <trkpt lat="44.02879" lon="0.39473">
        <ele>79.8</ele>
        <time>2022-09-24T09:55:12Z</time>
      </trkpt>
      <trkpt lat="44.02875" lon="0.39472">
        <ele>79.5</ele>
        <time>2022-09-24T09:55:15Z</time>
      </trkpt>
      <trkpt lat="44.02869" lon="0.39472">
        <ele>79.2</ele>
        <time>2022-09-24T09:55:19Z</time>
      </trkpt>
      <trkpt lat="44.02865" lon="0.39469">
        <ele>79.2</ele>
        <time>2022-09-24T09:55:23Z</time>
      </trkpt>
      <trkpt lat="44.02862" lon="0.39464">
        <ele>79.2</ele>
        <time>2022-09-24T09:55:27Z</time>
      </trkpt>
      <trkpt lat="44.02859" lon="0.39458">
        <ele>79.4</ele>
        <time>2022-09-24T09:55:32Z</time>
      </trkpt>
      <trkpt lat="44.02856" lon="0.39452">
        <ele>79.7</ele>
        <time>2022-09-24T09:55:36Z</time>
      </trkpt>
      <trkpt lat="44.02854" lon="0.39446">
        <ele>80.5</ele>
        <time>2022-09-24T09:55:39Z</time>
      </trkpt>
      <trkpt lat="44.02852" lon="0.39439">
        <ele>82.3</ele>
        <time>2022-09-24T09:55:44Z</time>
      </trkpt>
      <trkpt lat="44.0285" lon="0.39433">
        <ele>83.1</ele>
        <time>2022-09-24T09:55:48Z</time>
      </trkpt>
      <trkpt lat="44.02848" lon="0.39427">
        <ele>83.9</ele>
        <time>2022-09-24T09:55:53Z</time>
      </trkpt>
      <trkpt lat="44.02847" lon="0.39421">
        <ele>84.7</ele>
        <time>2022-09-24T09:55:58Z</time>
      </trkpt>
      <trkpt lat="44.02847" lon="0.39413">
        <ele>85</ele>
        <time>2022-09-24T09:56:04Z</time>
      </trkpt>
      <trkpt lat="44.02846" lon="0.39406">
        <ele>85</ele>
        <time>2022-09-24T09:56:09Z</time>
      </trkpt>
      <trkpt lat="44.02844" lon="0.394">
        <ele>84.6</ele>
        <time>2022-09-24T09:56:14Z</time>
      </trkpt>
      <trkpt lat="44.02843" lon="0.39394">
        <ele>84.9</ele>
        <time>2022-09-24T09:56:19Z</time>
      </trkpt>
      <trkpt lat="44.02841" lon="0.39388">
        <ele>85.5</ele>
        <time>2022-09-24T09:56:25Z</time>
      </trkpt>
      <trkpt lat="44.0284" lon="0.39381">
        <ele>86.4</ele>
        <time>2022-09-24T09:56:30Z</time>
      </trkpt>
      <trkpt lat="44.02841" lon="0.39374">
        <ele>87.5</ele>
        <time>2022-09-24T09:56:35Z</time>
      </trkpt>
      <trkpt lat="44.02842" lon="0.39367">
        <ele>88.1</ele>
        <time>2022-09-24T09:56:40Z</time>
      </trkpt>
      <trkpt lat="44.02846" lon="0.39362">
        <ele>88.6</ele>
        <time>2022-09-24T09:56:45Z</time>
      </trkpt>
      <trkpt lat="44.02849" lon="0.39358">
        <ele>89</ele>
        <time>2022-09-24T09:56:49Z</time>
      </trkpt>
      <trkpt lat="44.02853" lon="0.39354">
        <ele>89.7</ele>
        <time>2022-09-24T09:56:53Z</time>
      </trkpt>
      <trkpt lat="44.02856" lon="0.39349">
        <ele>91</ele>
        <time>2022-09-24T09:56:57Z</time>
      </trkpt>
      <trkpt lat="44.0286" lon="0.39344">
        <ele>92</ele>
        <time>2022-09-24T09:57:00Z</time>
      </trkpt>
      <trkpt lat="44.02863" lon="0.3934">
        <ele>93.2</ele>
        <time>2022-09-24T09:57:04Z</time>
      </trkpt>
      <trkpt lat="44.02866" lon="0.39335">
        <ele>94.3</ele>
        <time>2022-09-24T09:57:09Z</time>
      </trkpt>
      <trkpt lat="44.0287" lon="0.39331">
        <ele>94.9</ele>
        <time>2022-09-24T09:57:15Z</time>
      </trkpt>
      <trkpt lat="44.02873" lon="0.39327">
        <ele>95.2</ele>
        <time>2022-09-24T09:57:21Z</time>
      </trkpt>
      <trkpt lat="44.02877" lon="0.39322">
        <ele>95.1</ele>
        <time>2022-09-24T09:57:27Z</time>
      </trkpt>
      <trkpt lat="44.02879" lon="0.39316">
        <ele>94.9</ele>
        <time>2022-09-24T09:57:32Z</time>
      </trkpt>
      <trkpt lat="44.02883" lon="0.39311">
        <ele>94.9</ele>
        <time>2022-09-24T09:57:37Z</time>
      </trkpt>
      <trkpt lat="44.02885" lon="0.39305">
        <ele>95</ele>
        <time>2022-09-24T09:57:42Z</time>
      </trkpt>
      <trkpt lat="44.02888" lon="0.39299">
        <ele>94.4</ele>
        <time>2022-09-24T09:57:48Z</time>
      </trkpt>
      <trkpt lat="44.0289" lon="0.39293">
        <ele>93.7</ele>
        <time>2022-09-24T09:57:53Z</time>
      </trkpt>
      <trkpt lat="44.02892" lon="0.39285">
        <ele>93.2</ele>
        <time>2022-09-24T09:57:59Z</time>
      </trkpt>
      <trkpt lat="44.02895" lon="0.39279">
        <ele>93.9</ele>
        <time>2022-09-24T09:58:04Z</time>
      </trkpt>
      <trkpt lat="44.02899" lon="0.39274">
        <ele>95.5</ele>
        <time>2022-09-24T09:58:08Z</time>
      </trkpt>
      <trkpt lat="44.02902" lon="0.39269">
        <ele>97.1</ele>
        <time>2022-09-24T09:58:12Z</time>
      </trkpt>
      <trkpt lat="44.02905" lon="0.39263">
        <ele>98.5</ele>
        <time>2022-09-24T09:58:17Z</time>
      </trkpt>
      <trkpt lat="44.02908" lon="0.39257">
        <ele>99.5</ele>
        <time>2022-09-24T09:58:22Z</time>
      </trkpt>
      <trkpt lat="44.0291" lon="0.39252">
        <ele>100</ele>
        <time>2022-09-24T09:58:26Z</time>
      </trkpt>
      <trkpt lat="44.02913" lon="0.39246">
        <ele>100.7</ele>
        <time>2022-09-24T09:58:30Z</time>
      </trkpt>
      <trkpt lat="44.02916" lon="0.39241">
        <ele>101.7</ele>
        <time>2022-09-24T09:58:34Z</time>
      </trkpt>
      <trkpt lat="44.02918" lon="0.39235">
        <ele>103</ele>
        <time>2022-09-24T09:58:38Z</time>
      </trkpt>
      <trkpt lat="44.0292" lon="0.3923">
        <ele>103.9</ele>
        <time>2022-09-24T09:58:42Z</time>
      </trkpt>
      <trkpt lat="44.02923" lon="0.39225">
        <ele>104.3</ele>
        <time>2022-09-24T09:58:46Z</time>
      </trkpt>
      <trkpt lat="44.02926" lon="0.39219">
        <ele>104.5</ele>
        <time>2022-09-24T09:58:51Z</time>
      </trkpt>
      <trkpt lat="44.0293" lon="0.39215">
        <ele>104</ele>
        <time>2022-09-24T09:58:56Z</time>
      </trkpt>
      <trkpt lat="44.02932" lon="0.3921">
        <ele>100.9</ele>
        <time>2022-09-24T09:59:11Z</time>
      </trkpt>
      <trkpt lat="44.02928" lon="0.39212">
        <ele>100.3</ele>
        <time>2022-09-24T09:59:52Z</time>
      </trkpt>
      <trkpt lat="44.02924" lon="0.39216">
        <ele>100.9</ele>
        <time>2022-09-24T09:59:56Z</time>
      </trkpt>
      <trkpt lat="44.02921" lon="0.39221">
        <ele>105.6</ele>
        <time>2022-09-24T10:02:25Z</time>
      </trkpt>
      <trkpt lat="44.02926" lon="0.39217">
        <ele>106.3</ele>
        <time>2022-09-24T10:02:29Z</time>
      </trkpt>
      <trkpt lat="44.02925" lon="0.39229">
        <ele>119.4</ele>
        <time>2022-09-24T10:02:57Z</time>
      </trkpt>
      <trkpt lat="44.02927" lon="0.3922">
        <ele>113.1</ele>
        <time>2022-09-24T10:03:00Z</time>
      </trkpt>
      <trkpt lat="44.02927" lon="0.39213">
        <ele>104.1</ele>
        <time>2022-09-24T10:03:07Z</time>
      </trkpt>
      <trkpt lat="44.0293" lon="0.39207">
        <ele>101.8</ele>
        <time>2022-09-24T10:03:13Z</time>
      </trkpt>
      <trkpt lat="44.02933" lon="0.39201">
        <ele>98.9</ele>
        <time>2022-09-24T10:03:38Z</time>
      </trkpt>
      <trkpt lat="44.02937" lon="0.39195">
        <ele>98.5</ele>
        <time>2022-09-24T10:03:42Z</time>
      </trkpt>
      <trkpt lat="44.0294" lon="0.39189">
        <ele>98.6</ele>
        <time>2022-09-24T10:03:46Z</time>
      </trkpt>
      <trkpt lat="44.02943" lon="0.39183">
        <ele>98.9</ele>
        <time>2022-09-24T10:03:50Z</time>
      </trkpt>
      <trkpt lat="44.02946" lon="0.39178">
        <ele>99.5</ele>
        <time>2022-09-24T10:03:55Z</time>
      </trkpt>
      <trkpt lat="44.02949" lon="0.39172">
        <ele>99.4</ele>
        <time>2022-09-24T10:04:00Z</time>
      </trkpt>
      <trkpt lat="44.02951" lon="0.39165">
        <ele>99.2</ele>
        <time>2022-09-24T10:04:03Z</time>
      </trkpt>
      <trkpt lat="44.02954" lon="0.39159">
        <ele>98.9</ele>
        <time>2022-09-24T10:04:06Z</time>
      </trkpt>
      <trkpt lat="44.02958" lon="0.39152">
        <ele>98.6</ele>
        <time>2022-09-24T10:04:09Z</time>
      </trkpt>
      <trkpt lat="44.0296" lon="0.39147">
        <ele>98.2</ele>
        <time>2022-09-24T10:04:14Z</time>
      </trkpt>
      <trkpt lat="44.02962" lon="0.3914">
        <ele>97.5</ele>
        <time>2022-09-24T10:04:21Z</time>
      </trkpt>
      <trkpt lat="44.02965" lon="0.39134">
        <ele>97.7</ele>
        <time>2022-09-24T10:04:25Z</time>
      </trkpt>
      <trkpt lat="44.02968" lon="0.39128">
        <ele>97.7</ele>
        <time>2022-09-24T10:04:29Z</time>
      </trkpt>
      <trkpt lat="44.02971" lon="0.39122">
        <ele>98.2</ele>
        <time>2022-09-24T10:04:33Z</time>
      </trkpt>
      <trkpt lat="44.02974" lon="0.39117">
        <ele>98.9</ele>
        <time>2022-09-24T10:04:37Z</time>
      </trkpt>
      <trkpt lat="44.02978" lon="0.39111">
        <ele>99.6</ele>
        <time>2022-09-24T10:04:41Z</time>
      </trkpt>
      <trkpt lat="44.02982" lon="0.39107">
        <ele>99.6</ele>
        <time>2022-09-24T10:04:45Z</time>
      </trkpt>
      <trkpt lat="44.02986" lon="0.39104">
        <ele>99.5</ele>
        <time>2022-09-24T10:04:49Z</time>
      </trkpt>
      <trkpt lat="44.02991" lon="0.39099">
        <ele>99.2</ele>
        <time>2022-09-24T10:04:54Z</time>
      </trkpt>
      <trkpt lat="44.02993" lon="0.39094">
        <ele>99.1</ele>
        <time>2022-09-24T10:04:58Z</time>
      </trkpt>
      <trkpt lat="44.02998" lon="0.39091">
        <ele>99.4</ele>
        <time>2022-09-24T10:05:02Z</time>
      </trkpt>
      <trkpt lat="44.03002" lon="0.39087">
        <ele>99.9</ele>
        <time>2022-09-24T10:05:06Z</time>
      </trkpt>
      <trkpt lat="44.03006" lon="0.39081">
        <ele>100.7</ele>
        <time>2022-09-24T10:05:11Z</time>
      </trkpt>
      <trkpt lat="44.0301" lon="0.39076">
        <ele>100.9</ele>
        <time>2022-09-24T10:05:16Z</time>
      </trkpt>
      <trkpt lat="44.03014" lon="0.39071">
        <ele>100.5</ele>
        <time>2022-09-24T10:05:21Z</time>
      </trkpt>
      <trkpt lat="44.03016" lon="0.39065">
        <ele>100.4</ele>
        <time>2022-09-24T10:05:26Z</time>
      </trkpt>
      <trkpt lat="44.03019" lon="0.39059">
        <ele>100.3</ele>
        <time>2022-09-24T10:05:32Z</time>
      </trkpt>
      <trkpt lat="44.03021" lon="0.39053">
        <ele>100.8</ele>
        <time>2022-09-24T10:05:36Z</time>
      </trkpt>
      <trkpt lat="44.03024" lon="0.39047">
        <ele>101.5</ele>
        <time>2022-09-24T10:05:41Z</time>
      </trkpt>
      <trkpt lat="44.03027" lon="0.39041">
        <ele>101.3</ele>
        <time>2022-09-24T10:05:46Z</time>
      </trkpt>
      <trkpt lat="44.03031" lon="0.39035">
        <ele>101.1</ele>
        <time>2022-09-24T10:05:51Z</time>
      </trkpt>
      <trkpt lat="44.03034" lon="0.39032">
        <ele>100.9</ele>
        <time>2022-09-24T10:05:56Z</time>
      </trkpt>
      <trkpt lat="44.03038" lon="0.39026">
        <ele>100.9</ele>
        <time>2022-09-24T10:06:01Z</time>
      </trkpt>
      <trkpt lat="44.03042" lon="0.39022">
        <ele>101</ele>
        <time>2022-09-24T10:06:05Z</time>
      </trkpt>
      <trkpt lat="44.03046" lon="0.39016">
        <ele>101.2</ele>
        <time>2022-09-24T10:06:09Z</time>
      </trkpt>
      <trkpt lat="44.0305" lon="0.39011">
        <ele>101.5</ele>
        <time>2022-09-24T10:06:13Z</time>
      </trkpt>
      <trkpt lat="44.03054" lon="0.39006">
        <ele>102</ele>
        <time>2022-09-24T10:06:17Z</time>
      </trkpt>
      <trkpt lat="44.03057" lon="0.39001">
        <ele>102.5</ele>
        <time>2022-09-24T10:06:21Z</time>
      </trkpt>
      <trkpt lat="44.0306" lon="0.38994">
        <ele>103.2</ele>
        <time>2022-09-24T10:06:26Z</time>
      </trkpt>
      <trkpt lat="44.03062" lon="0.38988">
        <ele>103.9</ele>
        <time>2022-09-24T10:06:30Z</time>
      </trkpt>
      <trkpt lat="44.03065" lon="0.38982">
        <ele>104.8</ele>
        <time>2022-09-24T10:06:34Z</time>
      </trkpt>
      <trkpt lat="44.03068" lon="0.38978">
        <ele>105.3</ele>
        <time>2022-09-24T10:06:38Z</time>
      </trkpt>
      <trkpt lat="44.0307" lon="0.38972">
        <ele>105.8</ele>
        <time>2022-09-24T10:06:42Z</time>
      </trkpt>
      <trkpt lat="44.03073" lon="0.38965">
        <ele>105.9</ele>
        <time>2022-09-24T10:06:47Z</time>
      </trkpt>
      <trkpt lat="44.03075" lon="0.38959">
        <ele>106.2</ele>
        <time>2022-09-24T10:06:52Z</time>
      </trkpt>
      <trkpt lat="44.03076" lon="0.38952">
        <ele>106.2</ele>
        <time>2022-09-24T10:06:57Z</time>
      </trkpt>
      <trkpt lat="44.03078" lon="0.38945">
        <ele>106</ele>
        <time>2022-09-24T10:07:02Z</time>
      </trkpt>
      <trkpt lat="44.03079" lon="0.38938">
        <ele>106.2</ele>
        <time>2022-09-24T10:07:07Z</time>
      </trkpt>
      <trkpt lat="44.03079" lon="0.38931">
        <ele>106.8</ele>
        <time>2022-09-24T10:07:12Z</time>
      </trkpt>
      <trkpt lat="44.03079" lon="0.38924">
        <ele>107.8</ele>
        <time>2022-09-24T10:07:17Z</time>
      </trkpt>
      <trkpt lat="44.03078" lon="0.38916">
        <ele>108.2</ele>
        <time>2022-09-24T10:07:22Z</time>
      </trkpt>
      <trkpt lat="44.03079" lon="0.3891">
        <ele>108.9</ele>
        <time>2022-09-24T10:07:27Z</time>
      </trkpt>
      <trkpt lat="44.03079" lon="0.38903">
        <ele>109.3</ele>
        <time>2022-09-24T10:07:31Z</time>
      </trkpt>
      <trkpt lat="44.03077" lon="0.38896">
        <ele>109.2</ele>
        <time>2022-09-24T10:07:36Z</time>
      </trkpt>
      <trkpt lat="44.03075" lon="0.3889">
        <ele>108.8</ele>
        <time>2022-09-24T10:07:42Z</time>
      </trkpt>
      <trkpt lat="44.03071" lon="0.38885">
        <ele>107.9</ele>
        <time>2022-09-24T10:07:47Z</time>
      </trkpt>
      <trkpt lat="44.03067" lon="0.38881">
        <ele>106.9</ele>
        <time>2022-09-24T10:07:52Z</time>
      </trkpt>
      <trkpt lat="44.03063" lon="0.38875">
        <ele>105.2</ele>
        <time>2022-09-24T10:07:58Z</time>
      </trkpt>
      <trkpt lat="44.03059" lon="0.38871">
        <ele>104.8</ele>
        <time>2022-09-24T10:08:02Z</time>
      </trkpt>
      <trkpt lat="44.03055" lon="0.38866">
        <ele>105.1</ele>
        <time>2022-09-24T10:08:07Z</time>
      </trkpt>
      <trkpt lat="44.03052" lon="0.38862">
        <ele>105</ele>
        <time>2022-09-24T10:08:11Z</time>
      </trkpt>
      <trkpt lat="44.03048" lon="0.38856">
        <ele>103.9</ele>
        <time>2022-09-24T10:08:15Z</time>
      </trkpt>
      <trkpt lat="44.03045" lon="0.38851">
        <ele>102.9</ele>
        <time>2022-09-24T10:08:19Z</time>
      </trkpt>
      <trkpt lat="44.03042" lon="0.38846">
        <ele>102.3</ele>
        <time>2022-09-24T10:08:23Z</time>
      </trkpt>
      <trkpt lat="44.03038" lon="0.38841">
        <ele>102</ele>
        <time>2022-09-24T10:08:28Z</time>
      </trkpt>
      <trkpt lat="44.03034" lon="0.38837">
        <ele>101.6</ele>
        <time>2022-09-24T10:08:34Z</time>
      </trkpt>
      <trkpt lat="44.0303" lon="0.38833">
        <ele>101.2</ele>
        <time>2022-09-24T10:08:39Z</time>
      </trkpt>
      <trkpt lat="44.03026" lon="0.38827">
        <ele>100.2</ele>
        <time>2022-09-24T10:08:44Z</time>
      </trkpt>
      <trkpt lat="44.03022" lon="0.38823">
        <ele>100</ele>
        <time>2022-09-24T10:08:49Z</time>
      </trkpt>
      <trkpt lat="44.03018" lon="0.38819">
        <ele>100.3</ele>
        <time>2022-09-24T10:08:55Z</time>
      </trkpt>
      <trkpt lat="44.03015" lon="0.38814">
        <ele>100.2</ele>
        <time>2022-09-24T10:08:59Z</time>
      </trkpt>
      <trkpt lat="44.03012" lon="0.3881">
        <ele>100.5</ele>
        <time>2022-09-24T10:09:03Z</time>
      </trkpt>
      <trkpt lat="44.03008" lon="0.38805">
        <ele>101.9</ele>
        <time>2022-09-24T10:09:08Z</time>
      </trkpt>
      <trkpt lat="44.03003" lon="0.38802">
        <ele>103.2</ele>
        <time>2022-09-24T10:09:13Z</time>
      </trkpt>
      <trkpt lat="44.02999" lon="0.38798">
        <ele>103.8</ele>
        <time>2022-09-24T10:09:17Z</time>
      </trkpt>
      <trkpt lat="44.02995" lon="0.38793">
        <ele>104.1</ele>
        <time>2022-09-24T10:09:22Z</time>
      </trkpt>
      <trkpt lat="44.02991" lon="0.38788">
        <ele>104.1</ele>
        <time>2022-09-24T10:09:27Z</time>
      </trkpt>
      <trkpt lat="44.02988" lon="0.38784">
        <ele>104.8</ele>
        <time>2022-09-24T10:09:32Z</time>
      </trkpt>
      <trkpt lat="44.02983" lon="0.38779">
        <ele>105.4</ele>
        <time>2022-09-24T10:09:37Z</time>
      </trkpt>
      <trkpt lat="44.0298" lon="0.38773">
        <ele>105.6</ele>
        <time>2022-09-24T10:09:42Z</time>
      </trkpt>
      <trkpt lat="44.02976" lon="0.38769">
        <ele>105.7</ele>
        <time>2022-09-24T10:09:46Z</time>
      </trkpt>
      <trkpt lat="44.02972" lon="0.38764">
        <ele>105.7</ele>
        <time>2022-09-24T10:09:51Z</time>
      </trkpt>
      <trkpt lat="44.02968" lon="0.3876">
        <ele>105.8</ele>
        <time>2022-09-24T10:09:56Z</time>
      </trkpt>
      <trkpt lat="44.02964" lon="0.38755">
        <ele>106</ele>
        <time>2022-09-24T10:10:01Z</time>
      </trkpt>
      <trkpt lat="44.02959" lon="0.3875">
        <ele>106.7</ele>
        <time>2022-09-24T10:10:07Z</time>
      </trkpt>
      <trkpt lat="44.02956" lon="0.38746">
        <ele>107.4</ele>
        <time>2022-09-24T10:10:12Z</time>
      </trkpt>
      <trkpt lat="44.02951" lon="0.38742">
        <ele>107.8</ele>
        <time>2022-09-24T10:10:19Z</time>
      </trkpt>
      <trkpt lat="44.02947" lon="0.38738">
        <ele>107.9</ele>
        <time>2022-09-24T10:10:23Z</time>
      </trkpt>
      <trkpt lat="44.02943" lon="0.38734">
        <ele>108.5</ele>
        <time>2022-09-24T10:10:30Z</time>
      </trkpt>
      <trkpt lat="44.0294" lon="0.38729">
        <ele>108.2</ele>
        <time>2022-09-24T10:10:35Z</time>
      </trkpt>
      <trkpt lat="44.02935" lon="0.38725">
        <ele>107.7</ele>
        <time>2022-09-24T10:10:40Z</time>
      </trkpt>
      <trkpt lat="44.02932" lon="0.38721">
        <ele>107.3</ele>
        <time>2022-09-24T10:10:44Z</time>
      </trkpt>
      <trkpt lat="44.02928" lon="0.38717">
        <ele>106.8</ele>
        <time>2022-09-24T10:10:49Z</time>
      </trkpt>
      <trkpt lat="44.02924" lon="0.38714">
        <ele>106.6</ele>
        <time>2022-09-24T10:10:54Z</time>
      </trkpt>
      <trkpt lat="44.0292" lon="0.38709">
        <ele>106.8</ele>
        <time>2022-09-24T10:11:00Z</time>
      </trkpt>
      <trkpt lat="44.02916" lon="0.38705">
        <ele>107.8</ele>
        <time>2022-09-24T10:11:06Z</time>
      </trkpt>
      <trkpt lat="44.02912" lon="0.387">
        <ele>108</ele>
        <time>2022-09-24T10:11:14Z</time>
      </trkpt>
      <trkpt lat="44.02908" lon="0.38695">
        <ele>107.9</ele>
        <time>2022-09-24T10:11:19Z</time>
      </trkpt>
      <trkpt lat="44.02904" lon="0.3869">
        <ele>108.1</ele>
        <time>2022-09-24T10:11:24Z</time>
      </trkpt>
      <trkpt lat="44.029" lon="0.38685">
        <ele>108.9</ele>
        <time>2022-09-24T10:11:29Z</time>
      </trkpt>
      <trkpt lat="44.02897" lon="0.38681">
        <ele>109.7</ele>
        <time>2022-09-24T10:11:33Z</time>
      </trkpt>
      <trkpt lat="44.02892" lon="0.38677">
        <ele>110.8</ele>
        <time>2022-09-24T10:11:39Z</time>
      </trkpt>
      <trkpt lat="44.02888" lon="0.38672">
        <ele>111.9</ele>
        <time>2022-09-24T10:11:44Z</time>
      </trkpt>
      <trkpt lat="44.02884" lon="0.38667">
        <ele>113.1</ele>
        <time>2022-09-24T10:11:49Z</time>
      </trkpt>
      <trkpt lat="44.0288" lon="0.38663">
        <ele>114.1</ele>
        <time>2022-09-24T10:11:53Z</time>
      </trkpt>
      <trkpt lat="44.02876" lon="0.38658">
        <ele>115</ele>
        <time>2022-09-24T10:11:58Z</time>
      </trkpt>
      <trkpt lat="44.02873" lon="0.38652">
        <ele>115.6</ele>
        <time>2022-09-24T10:12:03Z</time>
      </trkpt>
      <trkpt lat="44.0287" lon="0.38648">
        <ele>116.1</ele>
        <time>2022-09-24T10:12:07Z</time>
      </trkpt>
      <trkpt lat="44.02866" lon="0.38644">
        <ele>116.5</ele>
        <time>2022-09-24T10:12:11Z</time>
      </trkpt>
      <trkpt lat="44.02862" lon="0.38639">
        <ele>117.3</ele>
        <time>2022-09-24T10:12:16Z</time>
      </trkpt>
      <trkpt lat="44.02859" lon="0.38635">
        <ele>117.6</ele>
        <time>2022-09-24T10:12:21Z</time>
      </trkpt>
      <trkpt lat="44.02854" lon="0.3863">
        <ele>118.3</ele>
        <time>2022-09-24T10:12:27Z</time>
      </trkpt>
      <trkpt lat="44.02851" lon="0.38625">
        <ele>118.7</ele>
        <time>2022-09-24T10:12:32Z</time>
      </trkpt>
      <trkpt lat="44.02851" lon="0.38618">
        <ele>119.5</ele>
        <time>2022-09-24T10:12:38Z</time>
      </trkpt>
      <trkpt lat="44.02854" lon="0.38612">
        <ele>119.7</ele>
        <time>2022-09-24T10:12:45Z</time>
      </trkpt>
      <trkpt lat="44.02857" lon="0.38608">
        <ele>119.5</ele>
        <time>2022-09-24T10:12:49Z</time>
      </trkpt>
      <trkpt lat="44.02862" lon="0.38604">
        <ele>118.9</ele>
        <time>2022-09-24T10:12:53Z</time>
      </trkpt>
      <trkpt lat="44.02865" lon="0.38599">
        <ele>118.4</ele>
        <time>2022-09-24T10:12:57Z</time>
      </trkpt>
      <trkpt lat="44.02868" lon="0.38594">
        <ele>118.3</ele>
        <time>2022-09-24T10:13:02Z</time>
      </trkpt>
      <trkpt lat="44.02872" lon="0.38589">
        <ele>118.7</ele>
        <time>2022-09-24T10:13:06Z</time>
      </trkpt>
      <trkpt lat="44.02876" lon="0.38586">
        <ele>119.6</ele>
        <time>2022-09-24T10:13:11Z</time>
      </trkpt>
      <trkpt lat="44.0288" lon="0.38582">
        <ele>120.3</ele>
        <time>2022-09-24T10:13:15Z</time>
      </trkpt>
      <trkpt lat="44.02885" lon="0.38577">
        <ele>121</ele>
        <time>2022-09-24T10:13:19Z</time>
      </trkpt>
      <trkpt lat="44.02889" lon="0.38573">
        <ele>121.3</ele>
        <time>2022-09-24T10:13:24Z</time>
      </trkpt>
      <trkpt lat="44.02893" lon="0.38569">
        <ele>122</ele>
        <time>2022-09-24T10:13:30Z</time>
      </trkpt>
      <trkpt lat="44.02897" lon="0.38565">
        <ele>122.4</ele>
        <time>2022-09-24T10:13:35Z</time>
      </trkpt>
      <trkpt lat="44.02901" lon="0.38561">
        <ele>122.4</ele>
        <time>2022-09-24T10:13:40Z</time>
      </trkpt>
      <trkpt lat="44.02907" lon="0.38558">
        <ele>122.4</ele>
        <time>2022-09-24T10:13:44Z</time>
      </trkpt>
      <trkpt lat="44.02911" lon="0.38556">
        <ele>122</ele>
        <time>2022-09-24T10:13:47Z</time>
      </trkpt>
      <trkpt lat="44.02916" lon="0.38554">
        <ele>121.3</ele>
        <time>2022-09-24T10:13:51Z</time>
      </trkpt>
      <trkpt lat="44.02921" lon="0.38553">
        <ele>120.9</ele>
        <time>2022-09-24T10:13:55Z</time>
      </trkpt>
      <trkpt lat="44.02926" lon="0.38551">
        <ele>120.6</ele>
        <time>2022-09-24T10:13:59Z</time>
      </trkpt>
      <trkpt lat="44.02931" lon="0.38551">
        <ele>120.3</ele>
        <time>2022-09-24T10:14:04Z</time>
      </trkpt>
      <trkpt lat="44.02936" lon="0.38551">
        <ele>120</ele>
        <time>2022-09-24T10:14:09Z</time>
      </trkpt>
      <trkpt lat="44.02941" lon="0.38548">
        <ele>120.1</ele>
        <time>2022-09-24T10:14:13Z</time>
      </trkpt>
      <trkpt lat="44.02947" lon="0.38545">
        <ele>120.1</ele>
        <time>2022-09-24T10:14:17Z</time>
      </trkpt>
      <trkpt lat="44.02951" lon="0.38542">
        <ele>120.3</ele>
        <time>2022-09-24T10:14:22Z</time>
      </trkpt>
      <trkpt lat="44.02955" lon="0.38537">
        <ele>120.1</ele>
        <time>2022-09-24T10:14:27Z</time>
      </trkpt>
      <trkpt lat="44.02958" lon="0.38532">
        <ele>120</ele>
        <time>2022-09-24T10:14:30Z</time>
      </trkpt>
      <trkpt lat="44.02961" lon="0.38526">
        <ele>120.2</ele>
        <time>2022-09-24T10:14:34Z</time>
      </trkpt>
      <trkpt lat="44.02965" lon="0.38521">
        <ele>120.7</ele>
        <time>2022-09-24T10:14:39Z</time>
      </trkpt>
      <trkpt lat="44.02967" lon="0.38515">
        <ele>121.1</ele>
        <time>2022-09-24T10:14:44Z</time>
      </trkpt>
      <trkpt lat="44.0297" lon="0.3851">
        <ele>121.7</ele>
        <time>2022-09-24T10:14:50Z</time>
      </trkpt>
      <trkpt lat="44.02973" lon="0.38504">
        <ele>121.5</ele>
        <time>2022-09-24T10:14:54Z</time>
      </trkpt>
      <trkpt lat="44.02976" lon="0.38497">
        <ele>121.3</ele>
        <time>2022-09-24T10:14:58Z</time>
      </trkpt>
      <trkpt lat="44.02979" lon="0.38492">
        <ele>121.5</ele>
        <time>2022-09-24T10:15:03Z</time>
      </trkpt>
      <trkpt lat="44.02981" lon="0.38487">
        <ele>121.9</ele>
        <time>2022-09-24T10:15:07Z</time>
      </trkpt>
      <trkpt lat="44.02986" lon="0.38482">
        <ele>122.1</ele>
        <time>2022-09-24T10:15:12Z</time>
      </trkpt>
      <trkpt lat="44.02989" lon="0.38477">
        <ele>122.1</ele>
        <time>2022-09-24T10:15:17Z</time>
      </trkpt>
      <trkpt lat="44.02991" lon="0.3847">
        <ele>122.6</ele>
        <time>2022-09-24T10:15:22Z</time>
      </trkpt>
      <trkpt lat="44.02995" lon="0.38466">
        <ele>122.3</ele>
        <time>2022-09-24T10:15:29Z</time>
      </trkpt>
      <trkpt lat="44.02999" lon="0.38462">
        <ele>122.4</ele>
        <time>2022-09-24T10:15:36Z</time>
      </trkpt>
      <trkpt lat="44.03004" lon="0.38462">
        <ele>124.2</ele>
        <time>2022-09-24T10:15:46Z</time>
      </trkpt>
      <trkpt lat="44.03008" lon="0.38461">
        <ele>125.1</ele>
        <time>2022-09-24T10:15:51Z</time>
      </trkpt>
      <trkpt lat="44.03002" lon="0.38465">
        <ele>125.4</ele>
        <time>2022-09-24T10:16:09Z</time>
      </trkpt>
      <trkpt lat="44.02996" lon="0.38465">
        <ele>125.6</ele>
        <time>2022-09-24T10:16:14Z</time>
      </trkpt>
      <trkpt lat="44.02999" lon="0.38458">
        <ele>121.5</ele>
        <time>2022-09-24T10:18:52Z</time>
      </trkpt>
      <trkpt lat="44.03001" lon="0.38452">
        <ele>120.7</ele>
        <time>2022-09-24T10:18:57Z</time>
      </trkpt>
      <trkpt lat="44.03003" lon="0.38446">
        <ele>119.3</ele>
        <time>2022-09-24T10:19:03Z</time>
      </trkpt>
      <trkpt lat="44.03005" lon="0.38439">
        <ele>118.6</ele>
        <time>2022-09-24T10:19:07Z</time>
      </trkpt>
      <trkpt lat="44.03006" lon="0.38433">
        <ele>118.1</ele>
        <time>2022-09-24T10:19:11Z</time>
      </trkpt>
      <trkpt lat="44.03006" lon="0.38426">
        <ele>117.9</ele>
        <time>2022-09-24T10:19:17Z</time>
      </trkpt>
      <trkpt lat="44.03008" lon="0.3842">
        <ele>118.3</ele>
        <time>2022-09-24T10:19:23Z</time>
      </trkpt>
      <trkpt lat="44.0301" lon="0.38414">
        <ele>118.8</ele>
        <time>2022-09-24T10:19:28Z</time>
      </trkpt>
      <trkpt lat="44.03012" lon="0.38407">
        <ele>118.9</ele>
        <time>2022-09-24T10:19:32Z</time>
      </trkpt>
      <trkpt lat="44.03014" lon="0.38402">
        <ele>119</ele>
        <time>2022-09-24T10:19:36Z</time>
      </trkpt>
      <trkpt lat="44.03016" lon="0.38395">
        <ele>118.9</ele>
        <time>2022-09-24T10:19:40Z</time>
      </trkpt>
      <trkpt lat="44.03018" lon="0.38389">
        <ele>118.6</ele>
        <time>2022-09-24T10:19:44Z</time>
      </trkpt>
      <trkpt lat="44.0302" lon="0.38382">
        <ele>118.8</ele>
        <time>2022-09-24T10:19:48Z</time>
      </trkpt>
      <trkpt lat="44.03021" lon="0.38375">
        <ele>119.1</ele>
        <time>2022-09-24T10:19:52Z</time>
      </trkpt>
      <trkpt lat="44.03023" lon="0.38369">
        <ele>119.3</ele>
        <time>2022-09-24T10:19:57Z</time>
      </trkpt>
      <trkpt lat="44.03026" lon="0.38363">
        <ele>119.8</ele>
        <time>2022-09-24T10:20:02Z</time>
      </trkpt>
      <trkpt lat="44.03029" lon="0.38357">
        <ele>120.1</ele>
        <time>2022-09-24T10:20:06Z</time>
      </trkpt>
      <trkpt lat="44.0303" lon="0.3835">
        <ele>120.3</ele>
        <time>2022-09-24T10:20:10Z</time>
      </trkpt>
      <trkpt lat="44.03031" lon="0.38344">
        <ele>120.4</ele>
        <time>2022-09-24T10:20:15Z</time>
      </trkpt>
      <trkpt lat="44.03032" lon="0.38337">
        <ele>119.8</ele>
        <time>2022-09-24T10:20:20Z</time>
      </trkpt>
      <trkpt lat="44.03035" lon="0.38331">
        <ele>119.1</ele>
        <time>2022-09-24T10:20:24Z</time>
      </trkpt>
      <trkpt lat="44.03037" lon="0.38325">
        <ele>118.5</ele>
        <time>2022-09-24T10:20:28Z</time>
      </trkpt>
      <trkpt lat="44.03039" lon="0.38319">
        <ele>118.1</ele>
        <time>2022-09-24T10:20:32Z</time>
      </trkpt>
      <trkpt lat="44.03042" lon="0.38313">
        <ele>117.7</ele>
        <time>2022-09-24T10:20:36Z</time>
      </trkpt>
      <trkpt lat="44.03044" lon="0.38307">
        <ele>117.3</ele>
        <time>2022-09-24T10:20:40Z</time>
      </trkpt>
      <trkpt lat="44.03046" lon="0.383">
        <ele>116.9</ele>
        <time>2022-09-24T10:20:44Z</time>
      </trkpt>
      <trkpt lat="44.03048" lon="0.38293">
        <ele>116.9</ele>
        <time>2022-09-24T10:20:48Z</time>
      </trkpt>
      <trkpt lat="44.0305" lon="0.38288">
        <ele>117</ele>
        <time>2022-09-24T10:20:52Z</time>
      </trkpt>
      <trkpt lat="44.03052" lon="0.38281">
        <ele>117.1</ele>
        <time>2022-09-24T10:20:57Z</time>
      </trkpt>
      <trkpt lat="44.03054" lon="0.38274">
        <ele>117</ele>
        <time>2022-09-24T10:21:01Z</time>
      </trkpt>
      <trkpt lat="44.03056" lon="0.38267">
        <ele>117.1</ele>
        <time>2022-09-24T10:21:05Z</time>
      </trkpt>
      <trkpt lat="44.03058" lon="0.38261">
        <ele>117</ele>
        <time>2022-09-24T10:21:09Z</time>
      </trkpt>
      <trkpt lat="44.0306" lon="0.38254">
        <ele>116.9</ele>
        <time>2022-09-24T10:21:13Z</time>
      </trkpt>
      <trkpt lat="44.03062" lon="0.38248">
        <ele>116.6</ele>
        <time>2022-09-24T10:21:18Z</time>
      </trkpt>
      <trkpt lat="44.03065" lon="0.38242">
        <ele>116.5</ele>
        <time>2022-09-24T10:21:22Z</time>
      </trkpt>
      <trkpt lat="44.03066" lon="0.38235">
        <ele>116.3</ele>
        <time>2022-09-24T10:21:26Z</time>
      </trkpt>
      <trkpt lat="44.03068" lon="0.38228">
        <ele>116.5</ele>
        <time>2022-09-24T10:21:30Z</time>
      </trkpt>
      <trkpt lat="44.0307" lon="0.38221">
        <ele>116.6</ele>
        <time>2022-09-24T10:21:34Z</time>
      </trkpt>
      <trkpt lat="44.03072" lon="0.38215">
        <ele>116.7</ele>
        <time>2022-09-24T10:21:37Z</time>
      </trkpt>
      <trkpt lat="44.03074" lon="0.38209">
        <ele>117.2</ele>
        <time>2022-09-24T10:21:41Z</time>
      </trkpt>
      <trkpt lat="44.03077" lon="0.38203">
        <ele>117.3</ele>
        <time>2022-09-24T10:21:45Z</time>
      </trkpt>
      <trkpt lat="44.0308" lon="0.38197">
        <ele>117.4</ele>
        <time>2022-09-24T10:21:49Z</time>
      </trkpt>
      <trkpt lat="44.03082" lon="0.38191">
        <ele>117.3</ele>
        <time>2022-09-24T10:21:53Z</time>
      </trkpt>
      <trkpt lat="44.03084" lon="0.38185">
        <ele>116.9</ele>
        <time>2022-09-24T10:21:57Z</time>
      </trkpt>
      <trkpt lat="44.03086" lon="0.38177">
        <ele>116.5</ele>
        <time>2022-09-24T10:22:02Z</time>
      </trkpt>
      <trkpt lat="44.03088" lon="0.3817">
        <ele>115.9</ele>
        <time>2022-09-24T10:22:07Z</time>
      </trkpt>
      <trkpt lat="44.0309" lon="0.38164">
        <ele>115.5</ele>
        <time>2022-09-24T10:22:11Z</time>
      </trkpt>
      <trkpt lat="44.03092" lon="0.38158">
        <ele>115.1</ele>
        <time>2022-09-24T10:22:15Z</time>
      </trkpt>
      <trkpt lat="44.03094" lon="0.38152">
        <ele>115.1</ele>
        <time>2022-09-24T10:22:19Z</time>
      </trkpt>
      <trkpt lat="44.03096" lon="0.38145">
        <ele>115</ele>
        <time>2022-09-24T10:22:23Z</time>
      </trkpt>
      <trkpt lat="44.03098" lon="0.3814">
        <ele>114.8</ele>
        <time>2022-09-24T10:22:27Z</time>
      </trkpt>
      <trkpt lat="44.03102" lon="0.38134">
        <ele>114.3</ele>
        <time>2022-09-24T10:22:31Z</time>
      </trkpt>
      <trkpt lat="44.03103" lon="0.38127">
        <ele>113.9</ele>
        <time>2022-09-24T10:22:35Z</time>
      </trkpt>
      <trkpt lat="44.03105" lon="0.38121">
        <ele>113.1</ele>
        <time>2022-09-24T10:22:39Z</time>
      </trkpt>
      <trkpt lat="44.03106" lon="0.38113">
        <ele>112.2</ele>
        <time>2022-09-24T10:22:44Z</time>
      </trkpt>
      <trkpt lat="44.03109" lon="0.38107">
        <ele>111.6</ele>
        <time>2022-09-24T10:22:48Z</time>
      </trkpt>
      <trkpt lat="44.03111" lon="0.38101">
        <ele>111.2</ele>
        <time>2022-09-24T10:22:51Z</time>
      </trkpt>
      <trkpt lat="44.03114" lon="0.38095">
        <ele>110.7</ele>
        <time>2022-09-24T10:22:55Z</time>
      </trkpt>
      <trkpt lat="44.03117" lon="0.38089">
        <ele>109.8</ele>
        <time>2022-09-24T10:23:01Z</time>
      </trkpt>
      <trkpt lat="44.03121" lon="0.38082">
        <ele>108.9</ele>
        <time>2022-09-24T10:23:05Z</time>
      </trkpt>
      <trkpt lat="44.03124" lon="0.38076">
        <ele>108.6</ele>
        <time>2022-09-24T10:23:09Z</time>
      </trkpt>
      <trkpt lat="44.03126" lon="0.3807">
        <ele>108.6</ele>
        <time>2022-09-24T10:23:14Z</time>
      </trkpt>
      <trkpt lat="44.03129" lon="0.38064">
        <ele>108.8</ele>
        <time>2022-09-24T10:23:19Z</time>
      </trkpt>
      <trkpt lat="44.03131" lon="0.38058">
        <ele>108.8</ele>
        <time>2022-09-24T10:23:23Z</time>
      </trkpt>
      <trkpt lat="44.03133" lon="0.38051">
        <ele>108.9</ele>
        <time>2022-09-24T10:23:27Z</time>
      </trkpt>
      <trkpt lat="44.03136" lon="0.38045">
        <ele>109.1</ele>
        <time>2022-09-24T10:23:31Z</time>
      </trkpt>
      <trkpt lat="44.03138" lon="0.38038">
        <ele>109.4</ele>
        <time>2022-09-24T10:23:35Z</time>
      </trkpt>
      <trkpt lat="44.0314" lon="0.38033">
        <ele>110</ele>
        <time>2022-09-24T10:23:39Z</time>
      </trkpt>
      <trkpt lat="44.03142" lon="0.38027">
        <ele>110.4</ele>
        <time>2022-09-24T10:23:43Z</time>
      </trkpt>
      <trkpt lat="44.03144" lon="0.3802">
        <ele>110.8</ele>
        <time>2022-09-24T10:23:48Z</time>
      </trkpt>
      <trkpt lat="44.03146" lon="0.38014">
        <ele>110.8</ele>
        <time>2022-09-24T10:23:52Z</time>
      </trkpt>
      <trkpt lat="44.03148" lon="0.38007">
        <ele>110.4</ele>
        <time>2022-09-24T10:23:56Z</time>
      </trkpt>
      <trkpt lat="44.03151" lon="0.38001">
        <ele>109.7</ele>
        <time>2022-09-24T10:24:01Z</time>
      </trkpt>
      <trkpt lat="44.03154" lon="0.37995">
        <ele>109.4</ele>
        <time>2022-09-24T10:24:06Z</time>
      </trkpt>
      <trkpt lat="44.03156" lon="0.37988">
        <ele>109.4</ele>
        <time>2022-09-24T10:24:11Z</time>
      </trkpt>
      <trkpt lat="44.03158" lon="0.37981">
        <ele>109.7</ele>
        <time>2022-09-24T10:24:15Z</time>
      </trkpt>
      <trkpt lat="44.0316" lon="0.37975">
        <ele>110.4</ele>
        <time>2022-09-24T10:24:19Z</time>
      </trkpt>
      <trkpt lat="44.03163" lon="0.37968">
        <ele>110.9</ele>
        <time>2022-09-24T10:24:24Z</time>
      </trkpt>
      <trkpt lat="44.03165" lon="0.37963">
        <ele>110.7</ele>
        <time>2022-09-24T10:24:29Z</time>
      </trkpt>
      <trkpt lat="44.03168" lon="0.37956">
        <ele>109.9</ele>
        <time>2022-09-24T10:24:34Z</time>
      </trkpt>
      <trkpt lat="44.0317" lon="0.3795">
        <ele>108.8</ele>
        <time>2022-09-24T10:24:38Z</time>
      </trkpt>
      <trkpt lat="44.03172" lon="0.37943">
        <ele>107.9</ele>
        <time>2022-09-24T10:24:42Z</time>
      </trkpt>
      <trkpt lat="44.03173" lon="0.37935">
        <ele>106.9</ele>
        <time>2022-09-24T10:24:46Z</time>
      </trkpt>
      <trkpt lat="44.03175" lon="0.37928">
        <ele>105.9</ele>
        <time>2022-09-24T10:24:50Z</time>
      </trkpt>
      <trkpt lat="44.03179" lon="0.37923">
        <ele>105.3</ele>
        <time>2022-09-24T10:24:54Z</time>
      </trkpt>
      <trkpt lat="44.03183" lon="0.37918">
        <ele>104.6</ele>
        <time>2022-09-24T10:24:58Z</time>
      </trkpt>
      <trkpt lat="44.03187" lon="0.37913">
        <ele>104.2</ele>
        <time>2022-09-24T10:25:03Z</time>
      </trkpt>
      <trkpt lat="44.03192" lon="0.37911">
        <ele>104.5</ele>
        <time>2022-09-24T10:25:08Z</time>
      </trkpt>
      <trkpt lat="44.03197" lon="0.37911">
        <ele>104.5</ele>
        <time>2022-09-24T10:25:13Z</time>
      </trkpt>
      <trkpt lat="44.03203" lon="0.37912">
        <ele>104.4</ele>
        <time>2022-09-24T10:25:18Z</time>
      </trkpt>
      <trkpt lat="44.03207" lon="0.37913">
        <ele>104.4</ele>
        <time>2022-09-24T10:25:22Z</time>
      </trkpt>
      <trkpt lat="44.03213" lon="0.37916">
        <ele>104.5</ele>
        <time>2022-09-24T10:25:27Z</time>
      </trkpt>
      <trkpt lat="44.03218" lon="0.37918">
        <ele>104.8</ele>
        <time>2022-09-24T10:25:32Z</time>
      </trkpt>
      <trkpt lat="44.03222" lon="0.37921">
        <ele>104.8</ele>
        <time>2022-09-24T10:25:37Z</time>
      </trkpt>
      <trkpt lat="44.03227" lon="0.3792">
        <ele>105.2</ele>
        <time>2022-09-24T10:25:41Z</time>
      </trkpt>
      <trkpt lat="44.03232" lon="0.37919">
        <ele>105.7</ele>
        <time>2022-09-24T10:25:46Z</time>
      </trkpt>
      <trkpt lat="44.03236" lon="0.37918">
        <ele>105.9</ele>
        <time>2022-09-24T10:25:53Z</time>
      </trkpt>
      <trkpt lat="44.03241" lon="0.37918">
        <ele>106.3</ele>
        <time>2022-09-24T10:25:59Z</time>
      </trkpt>
      <trkpt lat="44.03246" lon="0.3792">
        <ele>108</ele>
        <time>2022-09-24T10:26:29Z</time>
      </trkpt>
      <trkpt lat="44.03243" lon="0.37914">
        <ele>106</ele>
        <time>2022-09-24T10:29:10Z</time>
      </trkpt>
      <trkpt lat="44.03246" lon="0.37909">
        <ele>105</ele>
        <time>2022-09-24T10:29:35Z</time>
      </trkpt>
      <trkpt lat="44.03245" lon="0.37903">
        <ele>104.9</ele>
        <time>2022-09-24T10:29:40Z</time>
      </trkpt>
      <trkpt lat="44.03244" lon="0.37896">
        <ele>104.9</ele>
        <time>2022-09-24T10:29:45Z</time>
      </trkpt>
      <trkpt lat="44.03242" lon="0.37889">
        <ele>104.7</ele>
        <time>2022-09-24T10:29:50Z</time>
      </trkpt>
      <trkpt lat="44.03241" lon="0.37882">
        <ele>104.3</ele>
        <time>2022-09-24T10:29:55Z</time>
      </trkpt>
      <trkpt lat="44.0324" lon="0.37875">
        <ele>104.1</ele>
        <time>2022-09-24T10:29:59Z</time>
      </trkpt>
      <trkpt lat="44.0324" lon="0.37868">
        <ele>103.9</ele>
        <time>2022-09-24T10:30:03Z</time>
      </trkpt>
      <trkpt lat="44.03239" lon="0.3786">
        <ele>104</ele>
        <time>2022-09-24T10:30:07Z</time>
      </trkpt>
      <trkpt lat="44.0324" lon="0.37854">
        <ele>104.1</ele>
        <time>2022-09-24T10:30:11Z</time>
      </trkpt>
      <trkpt lat="44.03241" lon="0.37847">
        <ele>104.6</ele>
        <time>2022-09-24T10:30:15Z</time>
      </trkpt>
      <trkpt lat="44.0324" lon="0.3784">
        <ele>104.5</ele>
        <time>2022-09-24T10:30:19Z</time>
      </trkpt>
      <trkpt lat="44.0324" lon="0.37832">
        <ele>104.3</ele>
        <time>2022-09-24T10:30:23Z</time>
      </trkpt>
      <trkpt lat="44.03239" lon="0.37825">
        <ele>104</ele>
        <time>2022-09-24T10:30:27Z</time>
      </trkpt>
      <trkpt lat="44.03239" lon="0.37818">
        <ele>103.6</ele>
        <time>2022-09-24T10:30:31Z</time>
      </trkpt>
      <trkpt lat="44.03238" lon="0.37812">
        <ele>103.3</ele>
        <time>2022-09-24T10:30:35Z</time>
      </trkpt>
      <trkpt lat="44.03237" lon="0.37805">
        <ele>102.9</ele>
        <time>2022-09-24T10:30:39Z</time>
      </trkpt>
      <trkpt lat="44.03237" lon="0.37798">
        <ele>102.1</ele>
        <time>2022-09-24T10:30:43Z</time>
      </trkpt>
      <trkpt lat="44.03236" lon="0.37791">
        <ele>101</ele>
        <time>2022-09-24T10:30:48Z</time>
      </trkpt>
      <trkpt lat="44.03237" lon="0.37784">
        <ele>100.4</ele>
        <time>2022-09-24T10:30:52Z</time>
      </trkpt>
      <trkpt lat="44.03237" lon="0.37777">
        <ele>99.7</ele>
        <time>2022-09-24T10:30:56Z</time>
      </trkpt>
      <trkpt lat="44.03236" lon="0.37769">
        <ele>99.6</ele>
        <time>2022-09-24T10:31:00Z</time>
      </trkpt>
      <trkpt lat="44.03237" lon="0.37762">
        <ele>99.7</ele>
        <time>2022-09-24T10:31:04Z</time>
      </trkpt>
      <trkpt lat="44.03236" lon="0.37755">
        <ele>99.6</ele>
        <time>2022-09-24T10:31:08Z</time>
      </trkpt>
      <trkpt lat="44.03235" lon="0.37748">
        <ele>99.5</ele>
        <time>2022-09-24T10:31:12Z</time>
      </trkpt>
      <trkpt lat="44.03236" lon="0.37742">
        <ele>99</ele>
        <time>2022-09-24T10:31:16Z</time>
      </trkpt>
      <trkpt lat="44.03235" lon="0.37734">
        <ele>98.5</ele>
        <time>2022-09-24T10:31:21Z</time>
      </trkpt>
      <trkpt lat="44.03235" lon="0.37728">
        <ele>98.5</ele>
        <time>2022-09-24T10:31:25Z</time>
      </trkpt>
      <trkpt lat="44.03236" lon="0.3772">
        <ele>99</ele>
        <time>2022-09-24T10:31:29Z</time>
      </trkpt>
      <trkpt lat="44.03235" lon="0.37712">
        <ele>99.5</ele>
        <time>2022-09-24T10:31:33Z</time>
      </trkpt>
      <trkpt lat="44.03234" lon="0.37704">
        <ele>99.7</ele>
        <time>2022-09-24T10:31:37Z</time>
      </trkpt>
      <trkpt lat="44.03235" lon="0.37696">
        <ele>99.6</ele>
        <time>2022-09-24T10:31:41Z</time>
      </trkpt>
      <trkpt lat="44.03235" lon="0.37689">
        <ele>99.3</ele>
        <time>2022-09-24T10:31:45Z</time>
      </trkpt>
      <trkpt lat="44.03236" lon="0.37682">
        <ele>98.7</ele>
        <time>2022-09-24T10:31:49Z</time>
      </trkpt>
      <trkpt lat="44.03238" lon="0.37675">
        <ele>98.1</ele>
        <time>2022-09-24T10:31:53Z</time>
      </trkpt>
      <trkpt lat="44.03239" lon="0.37668">
        <ele>98</ele>
        <time>2022-09-24T10:31:57Z</time>
      </trkpt>
      <trkpt lat="44.0324" lon="0.37661">
        <ele>98.8</ele>
        <time>2022-09-24T10:32:02Z</time>
      </trkpt>
      <trkpt lat="44.03243" lon="0.37655">
        <ele>99.4</ele>
        <time>2022-09-24T10:32:07Z</time>
      </trkpt>
      <trkpt lat="44.03245" lon="0.37648">
        <ele>99.3</ele>
        <time>2022-09-24T10:32:13Z</time>
      </trkpt>
      <trkpt lat="44.03247" lon="0.37641">
        <ele>98.8</ele>
        <time>2022-09-24T10:32:18Z</time>
      </trkpt>
      <trkpt lat="44.03249" lon="0.37635">
        <ele>98</ele>
        <time>2022-09-24T10:32:24Z</time>
      </trkpt>
      <trkpt lat="44.03252" lon="0.3763">
        <ele>97.3</ele>
        <time>2022-09-24T10:32:32Z</time>
      </trkpt>
      <trkpt lat="44.03256" lon="0.37629">
        <ele>96.7</ele>
        <time>2022-09-24T10:32:42Z</time>
      </trkpt>
      <trkpt lat="44.03256" lon="0.37622">
        <ele>96.3</ele>
        <time>2022-09-24T10:32:58Z</time>
      </trkpt>
      <trkpt lat="44.03258" lon="0.37614">
        <ele>96.2</ele>
        <time>2022-09-24T10:33:03Z</time>
      </trkpt>
      <trkpt lat="44.03259" lon="0.37608">
        <ele>96.4</ele>
        <time>2022-09-24T10:33:07Z</time>
      </trkpt>
      <trkpt lat="44.03261" lon="0.37602">
        <ele>96.6</ele>
        <time>2022-09-24T10:33:11Z</time>
      </trkpt>
      <trkpt lat="44.03264" lon="0.37596">
        <ele>96.7</ele>
        <time>2022-09-24T10:33:15Z</time>
      </trkpt>
      <trkpt lat="44.03267" lon="0.3759">
        <ele>96.9</ele>
        <time>2022-09-24T10:33:19Z</time>
      </trkpt>
      <trkpt lat="44.03269" lon="0.37584">
        <ele>97</ele>
        <time>2022-09-24T10:33:23Z</time>
      </trkpt>
      <trkpt lat="44.03271" lon="0.37578">
        <ele>96.9</ele>
        <time>2022-09-24T10:33:27Z</time>
      </trkpt>
      <trkpt lat="44.03273" lon="0.37572">
        <ele>96.6</ele>
        <time>2022-09-24T10:33:31Z</time>
      </trkpt>
      <trkpt lat="44.03276" lon="0.37566">
        <ele>96.6</ele>
        <time>2022-09-24T10:33:35Z</time>
      </trkpt>
      <trkpt lat="44.03278" lon="0.3756">
        <ele>96.8</ele>
        <time>2022-09-24T10:33:38Z</time>
      </trkpt>
      <trkpt lat="44.0328" lon="0.37553">
        <ele>97.5</ele>
        <time>2022-09-24T10:33:42Z</time>
      </trkpt>
      <trkpt lat="44.03283" lon="0.37546">
        <ele>98</ele>
        <time>2022-09-24T10:33:46Z</time>
      </trkpt>
      <trkpt lat="44.03285" lon="0.37541">
        <ele>98.4</ele>
        <time>2022-09-24T10:33:50Z</time>
      </trkpt>
      <trkpt lat="44.03289" lon="0.37534">
        <ele>98.4</ele>
        <time>2022-09-24T10:33:54Z</time>
      </trkpt>
      <trkpt lat="44.03292" lon="0.37528">
        <ele>98.3</ele>
        <time>2022-09-24T10:33:58Z</time>
      </trkpt>
      <trkpt lat="44.03294" lon="0.37522">
        <ele>97.8</ele>
        <time>2022-09-24T10:34:02Z</time>
      </trkpt>
      <trkpt lat="44.03297" lon="0.37516">
        <ele>97.2</ele>
        <time>2022-09-24T10:34:06Z</time>
      </trkpt>
      <trkpt lat="44.03301" lon="0.37511">
        <ele>96.4</ele>
        <time>2022-09-24T10:34:10Z</time>
      </trkpt>
      <trkpt lat="44.03304" lon="0.37504">
        <ele>95.2</ele>
        <time>2022-09-24T10:34:14Z</time>
      </trkpt>
      <trkpt lat="44.03308" lon="0.37498">
        <ele>94.4</ele>
        <time>2022-09-24T10:34:18Z</time>
      </trkpt>
      <trkpt lat="44.0331" lon="0.37493">
        <ele>94.4</ele>
        <time>2022-09-24T10:34:22Z</time>
      </trkpt>
      <trkpt lat="44.03313" lon="0.37489">
        <ele>94.6</ele>
        <time>2022-09-24T10:34:26Z</time>
      </trkpt>
      <trkpt lat="44.03317" lon="0.37483">
        <ele>95.1</ele>
        <time>2022-09-24T10:34:30Z</time>
      </trkpt>
      <trkpt lat="44.0332" lon="0.37478">
        <ele>94.7</ele>
        <time>2022-09-24T10:34:34Z</time>
      </trkpt>
      <trkpt lat="44.03323" lon="0.37472">
        <ele>94.5</ele>
        <time>2022-09-24T10:34:38Z</time>
      </trkpt>
      <trkpt lat="44.03326" lon="0.37467">
        <ele>94.3</ele>
        <time>2022-09-24T10:34:43Z</time>
      </trkpt>
      <trkpt lat="44.0333" lon="0.37462">
        <ele>94</ele>
        <time>2022-09-24T10:34:47Z</time>
      </trkpt>
      <trkpt lat="44.03333" lon="0.37457">
        <ele>93.2</ele>
        <time>2022-09-24T10:34:51Z</time>
      </trkpt>
      <trkpt lat="44.03336" lon="0.37451">
        <ele>92.4</ele>
        <time>2022-09-24T10:34:56Z</time>
      </trkpt>
      <trkpt lat="44.0334" lon="0.37445">
        <ele>92.2</ele>
        <time>2022-09-24T10:35:00Z</time>
      </trkpt>
      <trkpt lat="44.03343" lon="0.3744">
        <ele>92.5</ele>
        <time>2022-09-24T10:35:04Z</time>
      </trkpt>
      <trkpt lat="44.03347" lon="0.37435">
        <ele>92.8</ele>
        <time>2022-09-24T10:35:09Z</time>
      </trkpt>
      <trkpt lat="44.0335" lon="0.37431">
        <ele>92.5</ele>
        <time>2022-09-24T10:35:14Z</time>
      </trkpt>
      <trkpt lat="44.03354" lon="0.37425">
        <ele>92.3</ele>
        <time>2022-09-24T10:35:18Z</time>
      </trkpt>
      <trkpt lat="44.03358" lon="0.37419">
        <ele>92.3</ele>
        <time>2022-09-24T10:35:22Z</time>
      </trkpt>
      <trkpt lat="44.0336" lon="0.37412">
        <ele>92.6</ele>
        <time>2022-09-24T10:35:26Z</time>
      </trkpt>
      <trkpt lat="44.03364" lon="0.37407">
        <ele>93.1</ele>
        <time>2022-09-24T10:35:30Z</time>
      </trkpt>
      <trkpt lat="44.03367" lon="0.37402">
        <ele>93.4</ele>
        <time>2022-09-24T10:35:34Z</time>
      </trkpt>
      <trkpt lat="44.0337" lon="0.37396">
        <ele>93.8</ele>
        <time>2022-09-24T10:35:38Z</time>
      </trkpt>
      <trkpt lat="44.03374" lon="0.3739">
        <ele>94.4</ele>
        <time>2022-09-24T10:35:42Z</time>
      </trkpt>
      <trkpt lat="44.03377" lon="0.37385">
        <ele>94.5</ele>
        <time>2022-09-24T10:35:46Z</time>
      </trkpt>
      <trkpt lat="44.0338" lon="0.3738">
        <ele>94.7</ele>
        <time>2022-09-24T10:35:50Z</time>
      </trkpt>
      <trkpt lat="44.03384" lon="0.37374">
        <ele>94.6</ele>
        <time>2022-09-24T10:35:54Z</time>
      </trkpt>
      <trkpt lat="44.03387" lon="0.3737">
        <ele>94.7</ele>
        <time>2022-09-24T10:35:58Z</time>
      </trkpt>
      <trkpt lat="44.0339" lon="0.37364">
        <ele>95.1</ele>
        <time>2022-09-24T10:36:02Z</time>
      </trkpt>
      <trkpt lat="44.03394" lon="0.37359">
        <ele>95.3</ele>
        <time>2022-09-24T10:36:06Z</time>
      </trkpt>
      <trkpt lat="44.03397" lon="0.37353">
        <ele>95.4</ele>
        <time>2022-09-24T10:36:10Z</time>
      </trkpt>
      <trkpt lat="44.034" lon="0.37347">
        <ele>95.3</ele>
        <time>2022-09-24T10:36:14Z</time>
      </trkpt>
      <trkpt lat="44.03403" lon="0.37342">
        <ele>95.1</ele>
        <time>2022-09-24T10:36:18Z</time>
      </trkpt>
      <trkpt lat="44.03406" lon="0.37337">
        <ele>94.7</ele>
        <time>2022-09-24T10:36:22Z</time>
      </trkpt>
      <trkpt lat="44.0341" lon="0.37332">
        <ele>93.6</ele>
        <time>2022-09-24T10:36:28Z</time>
      </trkpt>
      <trkpt lat="44.03414" lon="0.37328">
        <ele>92.4</ele>
        <time>2022-09-24T10:36:32Z</time>
      </trkpt>
      <trkpt lat="44.03417" lon="0.37323">
        <ele>91.1</ele>
        <time>2022-09-24T10:36:36Z</time>
      </trkpt>
      <trkpt lat="44.03421" lon="0.37317">
        <ele>90</ele>
        <time>2022-09-24T10:36:40Z</time>
      </trkpt>
      <trkpt lat="44.03425" lon="0.37312">
        <ele>89</ele>
        <time>2022-09-24T10:36:44Z</time>
      </trkpt>
      <trkpt lat="44.03428" lon="0.37307">
        <ele>88.3</ele>
        <time>2022-09-24T10:36:48Z</time>
      </trkpt>
      <trkpt lat="44.03431" lon="0.37301">
        <ele>88.2</ele>
        <time>2022-09-24T10:36:53Z</time>
      </trkpt>
      <trkpt lat="44.03434" lon="0.37295">
        <ele>88.3</ele>
        <time>2022-09-24T10:36:58Z</time>
      </trkpt>
      <trkpt lat="44.03437" lon="0.37289">
        <ele>88.1</ele>
        <time>2022-09-24T10:37:03Z</time>
      </trkpt>
      <trkpt lat="44.03441" lon="0.37284">
        <ele>88.2</ele>
        <time>2022-09-24T10:37:07Z</time>
      </trkpt>
      <trkpt lat="44.03444" lon="0.37279">
        <ele>88.1</ele>
        <time>2022-09-24T10:37:11Z</time>
      </trkpt>
      <trkpt lat="44.03448" lon="0.37274">
        <ele>88.2</ele>
        <time>2022-09-24T10:37:15Z</time>
      </trkpt>
      <trkpt lat="44.03452" lon="0.37269">
        <ele>88.5</ele>
        <time>2022-09-24T10:37:19Z</time>
      </trkpt>
      <trkpt lat="44.03455" lon="0.37263">
        <ele>88.7</ele>
        <time>2022-09-24T10:37:24Z</time>
      </trkpt>
      <trkpt lat="44.03457" lon="0.37258">
        <ele>89.3</ele>
        <time>2022-09-24T10:37:27Z</time>
      </trkpt>
      <trkpt lat="44.03461" lon="0.37252">
        <ele>90.1</ele>
        <time>2022-09-24T10:37:31Z</time>
      </trkpt>
      <trkpt lat="44.03464" lon="0.37246">
        <ele>90.6</ele>
        <time>2022-09-24T10:37:36Z</time>
      </trkpt>
      <trkpt lat="44.03467" lon="0.37241">
        <ele>90.7</ele>
        <time>2022-09-24T10:37:40Z</time>
      </trkpt>
      <trkpt lat="44.03471" lon="0.37237">
        <ele>90.3</ele>
        <time>2022-09-24T10:37:45Z</time>
      </trkpt>
      <trkpt lat="44.03475" lon="0.37232">
        <ele>90</ele>
        <time>2022-09-24T10:37:49Z</time>
      </trkpt>
      <trkpt lat="44.03478" lon="0.37226">
        <ele>89.7</ele>
        <time>2022-09-24T10:37:53Z</time>
      </trkpt>
      <trkpt lat="44.03481" lon="0.3722">
        <ele>89.6</ele>
        <time>2022-09-24T10:37:58Z</time>
      </trkpt>
      <trkpt lat="44.03485" lon="0.37215">
        <ele>89.6</ele>
        <time>2022-09-24T10:38:03Z</time>
      </trkpt>
      <trkpt lat="44.03488" lon="0.37211">
        <ele>89.5</ele>
        <time>2022-09-24T10:38:07Z</time>
      </trkpt>
      <trkpt lat="44.03492" lon="0.37204">
        <ele>89.9</ele>
        <time>2022-09-24T10:38:11Z</time>
      </trkpt>
      <trkpt lat="44.03496" lon="0.37199">
        <ele>90.6</ele>
        <time>2022-09-24T10:38:15Z</time>
      </trkpt>
      <trkpt lat="44.03499" lon="0.37194">
        <ele>91.5</ele>
        <time>2022-09-24T10:38:19Z</time>
      </trkpt>
      <trkpt lat="44.03502" lon="0.37189">
        <ele>92.4</ele>
        <time>2022-09-24T10:38:23Z</time>
      </trkpt>
      <trkpt lat="44.03506" lon="0.37185">
        <ele>93.2</ele>
        <time>2022-09-24T10:38:27Z</time>
      </trkpt>
      <trkpt lat="44.0351" lon="0.37179">
        <ele>94</ele>
        <time>2022-09-24T10:38:31Z</time>
      </trkpt>
      <trkpt lat="44.03515" lon="0.37179">
        <ele>94.2</ele>
        <time>2022-09-24T10:38:36Z</time>
      </trkpt>
      <trkpt lat="44.03521" lon="0.37181">
        <ele>94.4</ele>
        <time>2022-09-24T10:38:40Z</time>
      </trkpt>
      <trkpt lat="44.03525" lon="0.37184">
        <ele>94.5</ele>
        <time>2022-09-24T10:38:45Z</time>
      </trkpt>
      <trkpt lat="44.03528" lon="0.37189">
        <ele>94.5</ele>
        <time>2022-09-24T10:38:51Z</time>
      </trkpt>
      <trkpt lat="44.03532" lon="0.37195">
        <ele>94.5</ele>
        <time>2022-09-24T10:38:57Z</time>
      </trkpt>
      <trkpt lat="44.03535" lon="0.372">
        <ele>94.2</ele>
        <time>2022-09-24T10:39:05Z</time>
      </trkpt>
      <trkpt lat="44.03539" lon="0.37203">
        <ele>93.7</ele>
        <time>2022-09-24T10:39:12Z</time>
      </trkpt>
      <trkpt lat="44.03544" lon="0.37201">
        <ele>93</ele>
        <time>2022-09-24T10:39:27Z</time>
      </trkpt>
      <trkpt lat="44.03549" lon="0.37204">
        <ele>93.4</ele>
        <time>2022-09-24T10:39:45Z</time>
      </trkpt>
      <trkpt lat="44.03552" lon="0.37209">
        <ele>94.7</ele>
        <time>2022-09-24T10:39:50Z</time>
      </trkpt>
      <trkpt lat="44.03556" lon="0.37212">
        <ele>95.5</ele>
        <time>2022-09-24T10:39:56Z</time>
      </trkpt>
      <trkpt lat="44.03561" lon="0.37208">
        <ele>95.7</ele>
        <time>2022-09-24T10:40:03Z</time>
      </trkpt>
      <trkpt lat="44.03564" lon="0.37203">
        <ele>95.5</ele>
        <time>2022-09-24T10:40:08Z</time>
      </trkpt>
      <trkpt lat="44.03569" lon="0.37201">
        <ele>92.7</ele>
        <time>2022-09-24T10:40:32Z</time>
      </trkpt>
      <trkpt lat="44.03566" lon="0.37195">
        <ele>93.5</ele>
        <time>2022-09-24T10:40:50Z</time>
      </trkpt>
      <trkpt lat="44.03569" lon="0.372">
        <ele>94.8</ele>
        <time>2022-09-24T10:41:07Z</time>
      </trkpt>
      <trkpt lat="44.03569" lon="0.37206">
        <ele>93.5</ele>
        <time>2022-09-24T10:41:34Z</time>
      </trkpt>
      <trkpt lat="44.03566" lon="0.37201">
        <ele>92.3</ele>
        <time>2022-09-24T10:41:47Z</time>
      </trkpt>
      <trkpt lat="44.03569" lon="0.37195">
        <ele>87</ele>
        <time>2022-09-24T10:42:09Z</time>
      </trkpt>
      <trkpt lat="44.03566" lon="0.3719">
        <ele>87.3</ele>
        <time>2022-09-24T10:42:52Z</time>
      </trkpt>
      <trkpt lat="44.03568" lon="0.37196">
        <ele>89.6</ele>
        <time>2022-09-24T10:43:00Z</time>
      </trkpt>
      <trkpt lat="44.0357" lon="0.37202">
        <ele>89.6</ele>
        <time>2022-09-24T10:43:12Z</time>
      </trkpt>
      <trkpt lat="44.03566" lon="0.37197">
        <ele>89.3</ele>
        <time>2022-09-24T10:43:22Z</time>
      </trkpt>
      <trkpt lat="44.03564" lon="0.37203">
        <ele>88.9</ele>
        <time>2022-09-24T10:43:52Z</time>
      </trkpt>
      <trkpt lat="44.03565" lon="0.37209">
        <ele>88</ele>
        <time>2022-09-24T10:43:57Z</time>
      </trkpt>
      <trkpt lat="44.03564" lon="0.37203">
        <ele>90</ele>
        <time>2022-09-24T10:44:26Z</time>
      </trkpt>
      <trkpt lat="44.03568" lon="0.37203">
        <ele>88.4</ele>
        <time>2022-09-24T10:44:49Z</time>
      </trkpt>
      <trkpt lat="44.03572" lon="0.372">
        <ele>87</ele>
        <time>2022-09-24T10:45:07Z</time>
      </trkpt>
      <trkpt lat="44.0357" lon="0.37194">
        <ele>86.8</ele>
        <time>2022-09-24T10:45:12Z</time>
      </trkpt>
      <trkpt lat="44.03566" lon="0.37197">
        <ele>86.8</ele>
        <time>2022-09-24T10:45:22Z</time>
      </trkpt>
      <trkpt lat="44.03565" lon="0.37204">
        <ele>88.7</ele>
        <time>2022-09-24T10:45:38Z</time>
      </trkpt>
      <trkpt lat="44.0357" lon="0.37203">
        <ele>89</ele>
        <time>2022-09-24T10:45:42Z</time>
      </trkpt>
      <trkpt lat="44.03564" lon="0.37202">
        <ele>91</ele>
        <time>2022-09-24T10:46:13Z</time>
      </trkpt>
      <trkpt lat="44.03568" lon="0.37198">
        <ele>91.7</ele>
        <time>2022-09-24T10:46:28Z</time>
      </trkpt>
      <trkpt lat="44.03566" lon="0.37191">
        <ele>94</ele>
        <time>2022-09-24T10:46:38Z</time>
      </trkpt>
      <trkpt lat="44.03566" lon="0.37198">
        <ele>93.4</ele>
        <time>2022-09-24T10:47:00Z</time>
      </trkpt>
      <trkpt lat="44.03564" lon="0.37204">
        <ele>92.4</ele>
        <time>2022-09-24T10:47:09Z</time>
      </trkpt>
      <trkpt lat="44.0356" lon="0.37208">
        <ele>91.5</ele>
        <time>2022-09-24T10:47:17Z</time>
      </trkpt>
      <trkpt lat="44.03556" lon="0.37213">
        <ele>90.8</ele>
        <time>2022-09-24T10:47:24Z</time>
      </trkpt>
      <trkpt lat="44.03551" lon="0.3721">
        <ele>90.9</ele>
        <time>2022-09-24T10:47:31Z</time>
      </trkpt>
      <trkpt lat="44.03547" lon="0.37213">
        <ele>95.4</ele>
        <time>2022-09-24T10:51:55Z</time>
      </trkpt>
    </trkseg>
  </trk>
</gpx>